UA924 / N671UA 7700 Squawk Report (19th of February, 2020)

Aircraft B763 Reg No. N671UA Age N/A
Model 767 Jet engines 2 First flight 09-99
Registered 01-10-99 Rollout N/A Delivered 01-10-99
Construction No. 30026 Line No. 0766 Series 322(ER)
ADSHEX A8E132 Airline name United Airlines Owner N/A
Airfield based Chicago O`Hare~IL~N First tracked N/A
Time Lat Lon Altitude Heading Speed Vertical Rate
2020-02-19 12:48:47 GMT 51.468678 -0.442104 0 270 2 0
2020-02-19 12:48:44 GMT 51.468681 -0.442070 0 270 2 0
2020-02-19 12:48:30 GMT 51.468681 -0.441829 0 270 4 0
2020-02-19 12:48:24 GMT 51.468678 -0.441647 0 270 5 0
2020-02-19 12:48:15 GMT 51.468678 -0.441303 0 267 4 0
2020-02-19 12:48:03 GMT 51.468689 -0.440807 0 241 5 0
2020-02-19 12:47:51 GMT 51.468819 -0.440548 0 180 5 0
2020-02-19 12:47:45 GMT 51.468956 -0.440548 0 180 7 0
2020-02-19 12:47:33 GMT 51.469318 -0.440540 0 180 10 0
2020-02-19 12:47:22 GMT 51.469852 -0.440559 0 180 13 0
2020-02-19 12:47:05 GMT 51.470856 -0.440567 0 180 14 0
2020-02-19 12:47:01 GMT 51.471100 -0.440559 0 180 13 0
2020-02-19 12:46:50 GMT 51.471771 -0.440567 0 180 12 0
2020-02-19 12:46:38 GMT 51.472446 -0.440585 0 180 14 0
2020-02-19 12:46:32 GMT 51.472836 -0.440585 0 180 13 0
2020-02-19 12:45:58 GMT 51.474903 -0.440598 0 180 15 0
2020-02-19 12:45:36 GMT 51.475937 -0.441160 0 90 12 0
2020-02-19 12:45:28 GMT 51.475941 -0.441990 0 92 14 0
2020-02-19 12:45:18 GMT 51.475994 -0.443072 0 92 20 0
2020-02-19 12:45:09 GMT 51.476006 -0.444501 0 90 20 0
2020-02-19 12:44:59 GMT 51.475998 -0.445881 0 90 18 0
2020-02-19 12:44:48 GMT 51.475998 -0.447159 0 90 15 0
2020-02-19 12:44:42 GMT 51.475994 -0.447804 0 90 14 0
2020-02-19 12:44:36 GMT 51.475994 -0.448380 0 90 15 0
2020-02-19 12:44:28 GMT 51.475998 -0.449181 0 90 15 0
2020-02-19 12:44:18 GMT 51.475986 -0.450401 0 90 18 0
2020-02-19 12:44:07 GMT 51.475983 -0.451776 0 90 17 0
2020-02-19 12:43:57 GMT 51.475983 -0.453112 0 90 21 0
2020-02-19 12:43:45 GMT 51.475975 -0.454807 0 90 18 0
2020-02-19 12:43:33 GMT 51.475971 -0.456285 0 90 16 0
2020-02-19 12:43:26 GMT 51.475971 -0.457176 0 90 20 0
2020-02-19 12:43:15 GMT 51.475964 -0.458660 0 90 18 0
2020-02-19 12:43:04 GMT 51.475952 -0.460224 0 90 21 0
2020-02-19 12:42:56 GMT 51.475952 -0.461445 0 90 24 0
2020-02-19 12:42:35 GMT 51.475937 -0.464729 0 90 19 0
2020-02-19 12:42:25 GMT 51.475925 -0.466010 0 87 17 0
2020-02-19 12:42:15 GMT 51.475929 -0.467243 0 90 16 0
2020-02-19 12:42:04 GMT 51.475891 -0.468369 0 81 14 0
2020-02-19 12:41:54 GMT 51.475834 -0.469313 0 101 12 0
2020-02-19 12:41:44 GMT 51.475998 -0.470009 0 146 9 0
2020-02-19 12:41:34 GMT 51.476326 -0.470334 0 151 9 0
2020-02-19 12:41:24 GMT 51.476742 -0.470715 0 171 12 0
2020-02-19 12:41:13 GMT 51.477310 -0.470296 0 239 19 0
2020-02-19 12:41:03 GMT 51.477585 -0.468608 0 270 38 0
2020-02-19 12:40:53 GMT 51.477585 -0.465657 0 270 41 0
2020-02-19 12:40:41 GMT 51.477596 -0.462020 0 270 40 0
2020-02-19 12:40:23 GMT 51.477619 -0.454745 0 270 44 0
2020-02-19 12:40:19 GMT 51.477619 -0.454745 0 270 60 0
2020-02-19 12:40:10 GMT 51.477650 -0.450058 -150 270 89 0
2020-02-19 12:39:50 GMT 51.477722 -0.431436 -50 270 123 -704
2020-02-19 12:39:44 GMT 51.477745 -0.426865 0 270 124 -704
2020-02-19 12:39:40 GMT 51.477722 -0.422825 50 270 125 -640
2020-02-19 12:39:34 GMT 51.477768 -0.412804 175 270 124 -704
2020-02-19 12:39:28 GMT 51.477791 -0.412216 200 270 123 -640
2020-02-19 12:39:24 GMT 51.477791 -0.408096 375 270 122 -640
2020-02-19 12:39:20 GMT 51.477791 -0.405273 275 270 122 -512
2020-02-19 12:39:17 GMT 51.477814 -0.402560 300 270 122 -704
2020-02-19 12:39:14 GMT 51.477814 -0.399887 375 270 122 -640
2020-02-19 12:39:10 GMT 51.477859 -0.396102 425 270 119 -704
2020-02-19 12:39:07 GMT 51.477837 -0.393448 425 270 120 -704
2020-02-19 12:39:04 GMT 51.477859 -0.386748 500 270 121 -640
2020-02-19 12:39:00 GMT 51.477859 -0.386748 525 270 121 -640
2020-02-19 12:38:57 GMT 51.477859 -0.384225 550 270 122 -640
2020-02-19 12:38:54 GMT 51.477882 -0.381546 550 270 120 -640
2020-02-19 12:38:51 GMT 51.477859 -0.375391 625 270 118 -576
2020-02-19 12:38:47 GMT 51.477859 -0.375391 675 270 118 -704
2020-02-19 12:38:44 GMT 51.477882 -0.372620 675 270 118 -704
2020-02-19 12:38:39 GMT 51.477928 -0.368805 700 270 119 -640
2020-02-19 12:38:36 GMT 51.477905 -0.362623 925 270 114 -576
2020-02-19 12:38:33 GMT 51.477928 -0.363007 775 270 119 -640
2020-02-19 12:38:29 GMT 51.477951 -0.359876 825 270 114 -576
2020-02-19 12:38:26 GMT 51.477951 -0.357278 875 270 114 -576
2020-02-19 12:38:23 GMT 51.477978 -0.354919 875 270 114 -640
2020-02-19 12:38:19 GMT 51.477997 -0.349039 925 270 115 -576
2020-02-19 12:38:16 GMT 51.477997 -0.346144 1,025 271 119 -704
2020-02-19 12:38:13 GMT 51.477997 -0.346144 1,000 270 124 -704
2020-02-19 12:38:10 GMT 51.477951 -0.342580 1,025 271 118 -704
2020-02-19 12:38:07 GMT 51.477978 -0.340729 1,025 271 121 -704
2020-02-19 12:38:04 GMT 51.477978 -0.338135 1,175 270 126 -768
2020-02-19 12:38:01 GMT 51.477997 -0.335454 1,125 270 134 -832
2020-02-19 12:37:57 GMT 51.478024 -0.331268 1,200 270 134 -704
2020-02-19 12:37:51 GMT 51.478024 -0.325699 1,275 270 136 -768
2020-02-19 12:37:48 GMT 51.478069 -0.322571 1,300 270 136 -832
2020-02-19 12:37:45 GMT 51.478043 -0.318900 1,350 271 135 -704
2020-02-19 12:37:42 GMT 51.478043 -0.316896 1,450 270 134 -768
2020-02-19 12:37:38 GMT 51.477997 -0.311774 1,450 271 134 -768
2020-02-19 12:37:35 GMT 51.477997 -0.305464 1,475 270 134 -832
2020-02-19 12:37:31 GMT 51.477997 -0.305464 1,500 270 134 -768
2020-02-19 12:37:28 GMT 51.478043 -0.302421 1,550 269 134 -768
2020-02-19 12:37:25 GMT 51.478088 -0.299006 1,575 270 133 -704
2020-02-19 12:37:20 GMT 51.478115 -0.294342 1,650 270 133 -768
2020-02-19 12:37:16 GMT 51.478088 -0.287129 1,775 270 134 -704
2020-02-19 12:37:13 GMT 51.478088 -0.287129 1,750 270 134 -704
2020-02-19 12:37:10 GMT 51.478088 -0.284828 1,800 270 134 -832
2020-02-19 12:37:07 GMT 51.478069 -0.281448 1,925 270 134 -768
2020-02-19 12:37:03 GMT 51.478069 -0.276947 1,875 270 133 -768
2020-02-19 12:37:00 GMT 51.478115 -0.274124 1,900 270 133 -768
2020-02-19 12:36:57 GMT 51.478134 -0.271615 1,950 270 134 -768
2020-02-19 12:36:50 GMT 51.478165 -0.264511 2,000 270 134 -704
2020-02-19 12:36:46 GMT 51.478210 -0.257339 2,100 270 135 -704
2020-02-19 12:36:43 GMT 51.478210 -0.257339 2,150 270 135 -768
2020-02-19 12:36:37 GMT 51.478165 -0.251160 2,200 270 134 -704
2020-02-19 12:36:34 GMT 51.478165 -0.248795 2,275 270 134 -704
2020-02-19 12:36:30 GMT 51.478165 -0.244904 2,275 270 134 -704
2020-02-19 12:36:27 GMT 51.478180 -0.241848 2,325 270 133 -704
2020-02-19 12:36:24 GMT 51.478165 -0.238266 2,400 270 136 -768
2020-02-19 12:36:20 GMT 51.478180 -0.235538 2,375 270 134 -832
2020-02-19 12:36:17 GMT 51.478210 -0.231934 2,425 270 136 -704
2020-02-19 12:36:14 GMT 51.478210 -0.225754 2,500 270 134 -768
2020-02-19 12:36:11 GMT 51.478226 -0.222547 2,525 270 133 -640
2020-02-19 12:36:08 GMT 51.478226 -0.222547 2,550 270 133 -640
2020-02-19 12:36:04 GMT 51.478210 -0.219040 2,875 270 135 -832
2020-02-19 12:36:00 GMT 51.478226 -0.212081 2,650 270 133 -768
2020-02-19 12:35:57 GMT 51.478226 -0.212081 2,675 270 133 -768
2020-02-19 12:35:51 GMT 51.478210 -0.207062 3,025 270 139 -768
2020-02-19 12:35:48 GMT 51.478271 -0.200352 2,825 270 135 -832
2020-02-19 12:35:45 GMT 51.478271 -0.200352 2,875 270 135 -832
2020-02-19 12:35:39 GMT 51.478302 -0.193405 2,950 270 136 -832
2020-02-19 12:35:36 GMT 51.478271 -0.190776 2,975 271 137 -768
2020-02-19 12:35:33 GMT 51.478271 -0.187658 3,025 271 138 -768
2020-02-19 12:35:30 GMT 51.478256 -0.184174 3,050 271 138 -768
2020-02-19 12:35:27 GMT 51.478271 -0.181126 3,075 270 138 -768
2020-02-19 12:35:24 GMT 51.478271 -0.176449 3,200 270 143 -832
2020-02-19 12:35:18 GMT 51.478271 -0.172292 3,200 271 141 -832
2020-02-19 12:35:15 GMT 51.478271 -0.169768 3,250 270 143 -832
2020-02-19 12:35:12 GMT 51.478256 -0.166626 3,275 270 143 -832
2020-02-19 12:35:09 GMT 51.478256 -0.163574 3,350 270 144 -832
2020-02-19 12:35:06 GMT 51.478271 -0.157223 3,375 270 149 -896
2020-02-19 12:35:00 GMT 51.478317 -0.150617 3,475 270 149 -896
2020-02-19 12:34:54 GMT 51.478348 -0.146713 3,600 271 150 -896
2020-02-19 12:34:51 GMT 51.478317 -0.144604 3,600 271 150 -832
2020-02-19 12:34:48 GMT 51.478302 -0.139923 3,625 272 151 -832
2020-02-19 12:34:45 GMT 51.478256 -0.137634 3,675 272 153 -640
2020-02-19 12:34:42 GMT 51.478210 -0.134354 3,700 272 154 -704
2020-02-19 12:34:39 GMT 51.478134 -0.130426 3,725 272 155 -576
2020-02-19 12:34:36 GMT 51.478069 -0.126038 3,750 272 158 -128
2020-02-19 12:34:33 GMT 51.478088 -0.118845 3,750 270 161 -128
2020-02-19 12:34:30 GMT 51.478088 -0.118845 3,750 269 161 -128
2020-02-19 12:34:27 GMT 51.478134 -0.116321 3,775 268 161 -64
2020-02-19 12:34:24 GMT 51.478210 -0.112762 3,775 268 161 0
2020-02-19 12:34:21 GMT 51.478302 -0.109558 3,775 268 161 64
2020-02-19 12:34:18 GMT 51.478397 -0.105515 3,750 268 160 128
2020-02-19 12:34:15 GMT 51.478500 -0.101995 3,750 270 159 128
2020-02-19 12:34:12 GMT 51.478489 -0.098419 3,750 270 159 128
2020-02-19 12:34:09 GMT 51.478069 -0.090561 3,750 278 159 0
2020-02-19 12:34:06 GMT 51.478069 -0.090561 3,750 282 160 0
2020-02-19 12:34:00 GMT 51.476074 -0.080467 3,750 293 162 -64
2020-02-19 12:33:57 GMT 51.476074 -0.080467 3,750 293 162 -64
2020-02-19 12:33:51 GMT 51.474289 -0.073638 3,750 293 162 -64
2020-02-19 12:33:48 GMT 51.473831 -0.071782 3,750 292 160 -64
2020-02-19 12:33:45 GMT 51.472717 -0.067291 3,750 292 161 0
2020-02-19 12:33:41 GMT 51.471085 -0.060573 3,750 294 161 0
2020-02-19 12:33:35 GMT 51.469830 -0.055695 3,750 295 162 0
2020-02-19 12:33:32 GMT 51.469070 -0.053150 3,750 298 162 0
2020-02-19 12:33:29 GMT 51.468201 -0.050478 3,750 304 164 -64
2020-02-19 12:33:26 GMT 51.466896 -0.047455 3,750 310 166 -64
2020-02-19 12:33:23 GMT 51.463219 -0.042038 3,750 324 169 0
2020-02-19 12:33:20 GMT 51.460705 -0.039902 3,750 338 174 64
2020-02-19 12:33:16 GMT 51.460705 -0.039902 3,750 30 200 0
2020-02-19 12:33:13 GMT 51.458084 -0.038526 3,750 355 182 64
2020-02-19 12:33:10 GMT 51.456005 -0.037994 3,750 5 188 0
2020-02-19 12:33:07 GMT 51.452885 -0.037842 3,750 2 187 64
2020-02-19 12:33:04 GMT 51.451069 -0.038147 3,750 13 193 0
2020-02-19 12:33:01 GMT 51.448368 -0.039139 3,750 21 196 0
2020-02-19 12:32:58 GMT 51.445862 -0.040679 3,750 26 198 0
2020-02-19 12:32:54 GMT 51.441284 -0.044985 3,750 35 202 64
2020-02-19 12:32:51 GMT 51.440140 -0.046247 3,750 35 202 64
2020-02-19 12:32:48 GMT 51.437943 -0.048828 3,750 36 201 64
2020-02-19 12:32:45 GMT 51.435101 -0.052185 3,750 36 201 0
2020-02-19 12:32:42 GMT 51.433502 -0.054041 3,750 36 201 -64
2020-02-19 12:32:39 GMT 51.431213 -0.056787 3,750 36 201 -256
2020-02-19 12:32:36 GMT 51.428833 -0.059608 4,025 36 206 -576
2020-02-19 12:32:33 GMT 51.426361 -0.062578 3,800 36 202 -512
2020-02-19 12:32:30 GMT 51.424114 -0.065231 3,800 36 202 -512
2020-02-19 12:32:27 GMT 51.421837 -0.067978 3,850 36 203 -448
2020-02-19 12:32:24 GMT 51.420044 -0.070075 3,850 36 203 -512
2020-02-19 12:32:21 GMT 51.417709 -0.072896 3,875 36 206 -512
2020-02-19 12:32:18 GMT 51.414871 -0.076236 3,900 36 207 -576
2020-02-19 12:32:15 GMT 51.413269 -0.078092 3,925 36 207 -576
2020-02-19 12:32:12 GMT 51.410942 -0.080872 4,000 36 211 -512
2020-02-19 12:32:09 GMT 51.408600 -0.083585 3,975 36 211 -512
2020-02-19 12:32:06 GMT 51.405914 -0.086746 4,000 36 211 -512
2020-02-19 12:32:03 GMT 51.404099 -0.088882 4,025 36 214 -576
2020-02-19 12:32:00 GMT 51.400543 -0.093013 4,075 36 216 -576
2020-02-19 12:31:57 GMT 51.398697 -0.095139 4,100 36 218 -576
2020-02-19 12:31:54 GMT 51.395763 -0.098572 4,125 36 220 -576
2020-02-19 12:31:51 GMT 51.391529 -0.103531 4,150 36 222 -576
2020-02-19 12:31:48 GMT 51.391529 -0.103531 4,175 35 223 -576
2020-02-19 12:31:45 GMT 51.388924 -0.106506 4,200 35 225 -576
2020-02-19 12:31:42 GMT 51.385529 -0.110457 4,250 35 227 -576
2020-02-19 12:31:39 GMT 51.383057 -0.113278 4,275 35 229 -576
2020-02-19 12:31:36 GMT 51.378525 -0.118474 4,300 35 234 -512
2020-02-19 12:31:33 GMT 51.378525 -0.118474 4,325 35 235 -576
2020-02-19 12:31:30 GMT 51.375328 -0.122147 4,350 35 237 -576
2020-02-19 12:31:27 GMT 51.373234 -0.124588 4,350 35 238 -512
2020-02-19 12:31:24 GMT 51.370628 -0.127563 4,375 35 238 -512
2020-02-19 12:31:21 GMT 51.364380 -0.134879 4,425 36 239 -512
2020-02-19 12:31:15 GMT 51.362595 -0.136958 4,450 35 240 -512
2020-02-19 12:31:12 GMT 51.359070 -0.141041 4,500 36 241 -448
2020-02-19 12:31:09 GMT 51.356506 -0.143936 4,525 36 241 -512
2020-02-19 12:31:06 GMT 51.353439 -0.147499 4,550 36 241 -512
2020-02-19 12:31:03 GMT 51.351379 -0.149949 4,600 36 241 -512
2020-02-19 12:31:00 GMT 51.348328 -0.153503 4,600 36 241 -512
2020-02-19 12:30:57 GMT 51.345535 -0.156784 4,650 36 242 -512
2020-02-19 12:30:54 GMT 51.343735 -0.158931 4,650 36 243 -512
2020-02-19 12:30:51 GMT 51.340805 -0.162345 4,675 36 243 -448
2020-02-19 12:30:48 GMT 51.337189 -0.166576 4,700 36 242 -512
2020-02-19 12:30:45 GMT 51.334503 -0.169754 4,725 36 242 -512
2020-02-19 12:30:42 GMT 51.329910 -0.175113 4,750 36 241 -384
2020-02-19 12:30:39 GMT 51.329910 -0.175113 4,750 36 240 64
2020-02-19 12:30:36 GMT 51.326496 -0.179062 4,750 36 239 128
2020-02-19 12:30:33 GMT 51.324726 -0.181122 4,750 36 239 -64
2020-02-19 12:30:30 GMT 51.321934 -0.184402 4,750 36 238 0
2020-02-19 12:30:27 GMT 51.319557 -0.187225 4,750 36 238 0
2020-02-19 12:30:24 GMT 51.316544 -0.190776 4,750 36 239 -64
2020-02-19 12:30:21 GMT 51.311832 -0.196457 4,750 36 242 -192
2020-02-19 12:30:18 GMT 51.308624 -0.200278 4,750 37 242 -192
2020-02-19 12:30:15 GMT 51.308624 -0.200278 4,775 36 242 -192
2020-02-19 12:30:12 GMT 51.306293 -0.203094 4,775 37 242 -192
2020-02-19 12:30:09 GMT 51.302799 -0.207291 4,775 37 241 0
2020-02-19 12:30:06 GMT 51.300339 -0.210299 4,800 37 241 -64
2020-02-19 12:30:03 GMT 51.297409 -0.213862 4,800 37 241 64
2020-02-19 12:30:00 GMT 51.292374 -0.219955 4,750 37 239 256
2020-02-19 12:29:54 GMT 51.290039 -0.222622 4,750 35 239 256
2020-02-19 12:29:51 GMT 51.284271 -0.228043 4,750 28 236 0
2020-02-19 12:29:48 GMT 51.280411 -0.230408 4,750 15 228 0
2020-02-19 12:29:44 GMT 51.280411 -0.230408 4,750 17 229 0
2020-02-19 12:29:41 GMT 51.274338 -0.232420 4,750 8 225 64
2020-02-19 12:29:38 GMT 51.271362 -0.233088 4,750 7 224 0
2020-02-19 12:29:35 GMT 51.271362 -0.233088 4,750 7 225 0
2020-02-19 12:29:32 GMT 51.267105 -0.233979 4,750 7 226 0
2020-02-19 12:29:29 GMT 51.265045 -0.234424 4,750 7 226 0
2020-02-19 12:29:26 GMT 51.261929 -0.235062 4,750 7 227 0
2020-02-19 12:29:23 GMT 51.259232 -0.235612 4,750 7 227 -64
2020-02-19 12:29:20 GMT 51.254524 -0.236588 4,750 7 228 -64
2020-02-19 12:29:17 GMT 51.252502 -0.237023 4,800 7 218 -128
2020-02-19 12:29:14 GMT 51.249481 -0.237691 4,775 7 226 -192
2020-02-19 12:29:11 GMT 51.246147 -0.238342 4,800 7 222 -192
2020-02-19 12:29:08 GMT 51.243484 -0.238878 4,800 7 222 -192
2020-02-19 12:29:05 GMT 51.239491 -0.239792 4,800 7 213 -64
2020-02-19 12:29:02 GMT 51.236046 -0.240479 4,800 7 209 64
2020-02-19 12:28:59 GMT 51.234512 -0.240883 4,800 8 205 192
2020-02-19 12:28:56 GMT 51.232086 -0.241394 4,775 8 201 256
2020-02-19 12:28:52 GMT 51.228470 -0.242293 4,775 8 195 192
2020-02-19 12:28:49 GMT 51.225449 -0.243110 4,775 10 190 -256
2020-02-19 12:28:46 GMT 51.222500 -0.243988 4,775 11 190 -320
2020-02-19 12:28:43 GMT 51.217842 -0.245438 4,800 11 189 -256
2020-02-19 12:28:40 GMT 51.217072 -0.245708 4,800 10 189 0
2020-02-19 12:28:37 GMT 51.214630 -0.246506 4,800 10 189 0
2020-02-19 12:28:34 GMT 51.209183 -0.248108 4,800 10 187 192
2020-02-19 12:28:31 GMT 51.206902 -0.248795 4,800 10 187 256
2020-02-19 12:28:28 GMT 51.206902 -0.248795 4,775 11 187 192
2020-02-19 12:28:25 GMT 51.204529 -0.249568 4,775 30 204 -256
2020-02-19 12:28:22 GMT 51.202057 -0.250459 4,700 14 191 0
2020-02-19 12:28:19 GMT 51.198715 -0.252166 4,775 21 197 -64
2020-02-19 12:28:16 GMT 51.196976 -0.253354 4,775 26 201 -128
2020-02-19 12:28:13 GMT 51.194962 -0.254987 4,775 34 208 -192
2020-02-19 12:28:10 GMT 51.191772 -0.258636 4,800 38 211 -320
2020-02-19 12:28:07 GMT 51.187912 -0.264637 4,825 48 220 -64
2020-02-19 12:28:01 GMT 51.184185 -0.272446 4,825 54 228 64
2020-02-19 12:27:58 GMT 51.182556 -0.276260 4,825 56 232 64
2020-02-19 12:27:52 GMT 51.180679 -0.280968 4,800 58 238 384
2020-02-19 12:27:49 GMT 51.178574 -0.286535 4,800 58 238 -128
2020-02-19 12:27:46 GMT 51.176788 -0.291138 4,800 57 237 -64
2020-02-19 12:27:43 GMT 51.171291 -0.302505 4,800 52 225 320
2020-02-19 12:27:38 GMT 51.169430 -0.305176 4,750 43 216 704
2020-02-19 12:27:32 GMT 51.167679 -0.307469 4,700 35 210 384
2020-02-19 12:27:29 GMT 51.161911 -0.312516 4,675 22 203 320
2020-02-19 12:27:26 GMT 51.161911 -0.312516 4,650 14 196 512
2020-02-19 12:27:23 GMT 51.157654 -0.314595 4,600 352 179 1472
2020-02-19 12:27:20 GMT 51.157654 -0.314595 4,600 344 178 1536
2020-02-19 12:27:17 GMT 51.154770 -0.315189 4,550 1 185 1216
2020-02-19 12:27:14 GMT 51.151794 -0.315263 4,175 335 178 1472
2020-02-19 12:27:11 GMT 51.150154 -0.314941 3,925 309 178 2176
2020-02-19 12:27:08 GMT 51.146667 -0.313482 4,350 341 178 1472
2020-02-19 12:27:05 GMT 51.144516 -0.311848 4,250 328 175 1664
2020-02-19 12:27:01 GMT 51.142612 -0.309906 4,250 326 174 1792
2020-02-19 12:26:58 GMT 51.139938 -0.306133 4,000 312 177 2240
2020-02-19 12:26:55 GMT 51.137283 -0.299749 3,800 265 193 1152
2020-02-19 12:26:51 GMT 51.137283 -0.299749 3,700 289 180 1664
2020-02-19 12:26:47 GMT 51.136189 -0.294724 3,675 281 184 1600
2020-02-19 12:26:41 GMT 51.135727 -0.282601 3,550 267 192 1152
2020-02-19 12:26:38 GMT 51.135727 -0.282601 3,500 264 195 1152
2020-02-19 12:26:35 GMT 51.136005 -0.278854 3,425 258 200 1280
2020-02-19 12:26:32 GMT 51.136551 -0.274287 3,425 259 197 1024
2020-02-19 12:26:29 GMT 51.137146 -0.269610 3,350 258 200 1280
2020-02-19 12:26:26 GMT 51.137650 -0.265750 3,200 257 194 768
2020-02-19 12:26:23 GMT 51.138382 -0.260480 3,275 257 198 1088
2020-02-19 12:26:20 GMT 51.138840 -0.257511 3,225 257 194 704
2020-02-19 12:26:17 GMT 51.140102 -0.248718 3,175 258 185 576
2020-02-19 12:26:11 GMT 51.140625 -0.244965 3,050 258 168 1920
2020-02-19 12:26:08 GMT 51.141220 -0.240660 3,000 259 162 2240
2020-02-19 12:26:02 GMT 51.142056 -0.234451 2,700 259 154 2368
2020-02-19 12:25:58 GMT 51.143127 -0.226288 2,550 258 146 2816
2020-02-19 12:25:52 GMT 51.143509 -0.223587 2,375 257 141 3456
2020-02-19 12:25:48 GMT 51.144516 -0.216609 1,950 257 140 4160
2020-02-19 12:25:45 GMT 51.144516 -0.216609 1,900 257 140 4096
2020-02-19 12:25:42 GMT 51.145035 -0.213165 1,675 257 141 3904
2020-02-19 12:25:35 GMT 51.146027 -0.206588 1,250 258 140 4160
2020-02-19 12:25:32 GMT 51.146530 -0.203099 1,000 259 141 4800
2020-02-19 12:25:28 GMT 51.147129 -0.198364 600 259 146 4544
2020-02-19 12:25:24 GMT 51.147594 -0.194626 350 259 151 3968
2020-02-19 12:25:11 GMT 51.149410 -0.181046 -25 258 130 192
2020-02-19 12:25:06 GMT 51.150009 -0.176746 -25 258 105 0
2020-02-19 12:25:01 GMT 51.150517 -0.173168 0 258 100 0
2020-02-19 12:24:58 GMT 51.150719 -0.171680 0 258 63 0
2020-02-19 12:24:51 GMT 51.151039 -0.169323 0 255 24 0
2020-02-19 12:24:30 GMT 51.151134 -0.168743 0 255 0 0
2020-02-19 12:24:20 GMT 51.151134 -0.168724 0 255 2 0
2020-02-19 12:24:10 GMT 51.151176 -0.168469 0 247 10 0
2020-02-19 12:23:59 GMT 51.151428 -0.167876 0 182 10 0
2020-02-19 12:23:50 GMT 51.151863 -0.167931 0 165 11 0
2020-02-19 12:23:39 GMT 51.152264 -0.168080 0 165 7 0
2020-02-19 12:23:28 GMT 51.152588 -0.168190 0 157 7 0
2020-02-19 12:22:43 GMT 51.152786 -0.168324 0 137 0 0
2020-02-19 12:22:18 GMT 51.152790 -0.168339 0 137 0 0
2020-02-19 12:22:13 GMT 51.152786 -0.168343 0 137 0 0
2020-02-19 12:22:03 GMT 51.152790 -0.168339 0 137 0 0
2020-02-19 12:21:53 GMT 51.152786 -0.168343 0 137 0 0
2020-02-19 12:21:44 GMT 51.152790 -0.168339 0 137 0 0
2020-02-19 12:21:33 GMT 51.152798 -0.168343 0 137 0 0
2020-02-19 12:20:59 GMT 51.152790 -0.168339 0 137 0 0
2020-02-19 12:20:29 GMT 51.152802 -0.168339 0 137 0 0
2020-02-19 12:20:14 GMT 51.152798 -0.168343 0 137 0 0
2020-02-19 12:20:04 GMT 51.152802 -0.168339 0 137 0 0
2020-02-19 12:19:54 GMT 51.152798 -0.168343 0 137 0 0
2020-02-19 12:19:49 GMT 51.152802 -0.168339 0 137 0 0
2020-02-19 12:19:19 GMT 51.152798 -0.168343 0 137 0 0
2020-02-19 12:19:04 GMT 51.152802 -0.168339 0 137 0 0
2020-02-19 12:18:44 GMT 51.152798 -0.168343 0 137 0 0
2020-02-19 12:18:15 GMT 51.152802 -0.168339 0 137 0 0
2020-02-19 12:18:07 GMT 51.152878 -0.168362 0 112 6 0
2020-02-19 12:17:38 GMT 51.152836 -0.169601 0 75 4 0
2020-02-19 12:17:29 GMT 51.152786 -0.170002 0 73 8 0
2020-02-19 12:17:11 GMT 51.152519 -0.170918 0 50 8 0
2020-02-19 12:17:04 GMT 51.152355 -0.171261 0 39 8 0
2020-02-19 12:16:49 GMT 51.151947 -0.171757 0 61 7 0
2020-02-19 12:16:42 GMT 51.151844 -0.172024 0 95 7 0
2020-02-19 12:16:11 GMT 51.152172 -0.172831 0 146 4 0
2020-02-19 12:15:56 GMT 51.152527 -0.173220 0 146 6 0
2020-02-19 12:15:51 GMT 51.152622 -0.173340 0 146 9 0
2020-02-19 12:15:45 GMT 51.152824 -0.173517 0 132 8 0
2020-02-19 12:15:40 GMT 51.152950 -0.173703 0 112 7 0
2020-02-19 12:15:33 GMT 51.153042 -0.173963 0 84 9 0
2020-02-19 12:15:26 GMT 51.152996 -0.174408 0 78 7 0
2020-02-19 12:15:09 GMT 51.152878 -0.175476 0 78 9 0
2020-02-19 12:15:02 GMT 51.152809 -0.175915 0 78 9 0
2020-02-19 12:14:59 GMT 51.152798 -0.176067 0 78 9 0
2020-02-19 12:14:53 GMT 51.152752 -0.176373 0 75 11 0
2020-02-19 12:14:47 GMT 51.152706 -0.176735 0 75 11 0
2020-02-19 12:14:42 GMT 51.152645 -0.177116 0 78 11 0
2020-02-19 12:14:32 GMT 51.152554 -0.177822 0 78 11 0
2020-02-19 12:14:28 GMT 51.152515 -0.178082 0 78 12 0
2020-02-19 12:14:23 GMT 51.152473 -0.178471 0 78 10 0
2020-02-19 12:14:19 GMT 51.152424 -0.178757 0 78 9 0
2020-02-19 12:14:14 GMT 51.152390 -0.179062 0 78 8 0
2020-02-19 12:14:08 GMT 51.152344 -0.179367 0 78 7 0
2020-02-19 12:14:02 GMT 51.152309 -0.179615 0 78 7 0
2020-02-19 12:13:54 GMT 51.152264 -0.179938 0 75 4 0
2020-02-19 12:13:47 GMT 51.152241 -0.180105 0 75 4 0
2020-02-19 12:13:42 GMT 51.152218 -0.180235 0 75 4 0
2020-02-19 12:13:32 GMT 51.152180 -0.180492 0 75 2 0
2020-02-19 12:13:24 GMT 51.152111 -0.181065 0 78 9 0
2020-02-19 12:13:16 GMT 51.152111 -0.181065 0 78 9 0
2020-02-19 12:13:13 GMT 51.152088 -0.181255 0 78 11 0
2020-02-19 12:13:10 GMT 51.152046 -0.181534 0 75 10 0
2020-02-19 12:13:05 GMT 51.152004 -0.181828 0 75 9 0
2020-02-19 12:13:01 GMT 51.151966 -0.182072 0 78 9 0
2020-02-19 12:12:53 GMT 51.151897 -0.182703 0 81 14 0
2020-02-19 12:12:50 GMT 51.151867 -0.182972 0 81 14 0
2020-02-19 12:12:42 GMT 51.151806 -0.183743 0 78 12 0
2020-02-19 12:12:33 GMT 51.151680 -0.184669 0 78 13 0
2020-02-19 12:12:22 GMT 51.151520 -0.185803 0 81 9 0
2020-02-19 12:12:17 GMT 51.151520 -0.185803 0 81 9 0
2020-02-19 12:12:13 GMT 51.151493 -0.186100 0 90 11 0
2020-02-19 12:12:08 GMT 51.151474 -0.186489 0 118 10 0
2020-02-19 12:12:00 GMT 51.151634 -0.186879 0 160 9 0
2020-02-19 12:11:50 GMT 51.152031 -0.187054 0 168 9 0
2020-02-19 12:11:39 GMT 51.152447 -0.187194 0 168 10 0
2020-02-19 12:11:29 GMT 51.152927 -0.187359 0 168 11 0
2020-02-19 12:11:19 GMT 51.153320 -0.187511 0 168 9 0
2020-02-19 12:11:12 GMT 51.153564 -0.187588 0 168 7 0
2020-02-19 12:11:06 GMT 51.153751 -0.187664 0 168 6 0
2020-02-19 12:10:58 GMT 51.153900 -0.187714 0 168 0 0
2020-02-19 12:10:48 GMT 51.153980 -0.187733 0 168 0 0
2020-02-19 12:10:38 GMT 51.153973 -0.187721 0 168 0 0
2020-02-19 12:10:28 GMT 51.153980 -0.187733 0 168 0 0
2020-02-19 12:10:18 GMT 51.153973 -0.187721 0 168 0 0
2020-02-19 12:10:08 GMT 51.153980 -0.187733 0 168 0 0
2020-02-19 12:09:58 GMT 51.153973 -0.187721 0 168 0 0
2020-02-19 12:09:48 GMT 51.153980 -0.187733 0 168 0 0
2020-02-19 12:09:23 GMT 51.153973 -0.187721 0 168 0 0
2020-02-19 12:09:13 GMT 51.153980 -0.187733 0 168 0 0
2020-02-19 12:09:03 GMT 51.153973 -0.187721 0 168 0 0
2020-02-19 12:08:58 GMT 51.153973 -0.187721 0 168 0 0
2020-02-19 12:08:43 GMT 51.153973 -0.187721 0 168 0 0
2020-02-19 12:08:28 GMT 51.153980 -0.187733 0 168 0 0
2020-02-19 12:08:23 GMT 51.153973 -0.187721 0 168 0 0
2020-02-19 12:08:10 GMT 51.153980 -0.187733 0 168 0 0
2020-02-19 12:08:06 GMT 51.153980 -0.187733 0 168 0 0
2020-02-19 12:07:57 GMT 51.153980 -0.187733 0 168 0 0
2020-02-19 12:07:41 GMT 51.153973 -0.187721 0 168 0
2020-02-19 12:07:37 GMT 51.153980 -0.187733 0 168 0
2020-02-19 12:07:16 GMT 51.153973 -0.187721 0 168 0
2020-02-19 12:07:12 GMT 51.153980 -0.187733 0 168 0
2020-02-19 12:07:01 GMT 51.153973 -0.187721 0 168 0
2020-02-19 12:06:31 GMT 51.153980 -0.187733 0 168 0
2020-02-19 12:05:31 GMT 51.153973 -0.187721 0 168 0
2020-02-19 12:04:50 GMT 51.153980 -0.187733 0 168 0
2020-02-19 12:04:20 GMT 51.153973 -0.187721 0 168 0
2020-02-19 12:04:10 GMT 51.153980 -0.187733 0 168 0
2020-02-19 12:03:31 GMT 51.153973 -0.187721 0 168 0
2020-02-19 12:03:21 GMT 51.153980 -0.187733 0 168 0
2020-02-19 12:03:11 GMT 51.153984 -0.187721 0 168 1
2020-02-19 12:03:00 GMT 51.153877 -0.187714 0 174 3
2020-02-19 12:02:47 GMT 51.153671 -0.187788 0 188 4
2020-02-19 12:02:38 GMT 51.153568 -0.187881 0 202 3
2020-02-19 12:02:31 GMT 51.153465 -0.188104 0 222 3
2020-02-19 12:02:21 GMT 51.153439 -0.188198 0 233 4
2020-02-19 12:02:09 GMT 51.153419 -0.188438 0 253 3
2020-02-19 12:01:59 GMT 51.153404 -0.188675 0 258 4
2020-02-19 12:01:50 GMT 51.153374 -0.188902 0 258 4
2020-02-19 12:01:35 GMT 51.153339 -0.189087 0 258 0
2020-02-19 12:01:25 GMT 51.153339 -0.189087 0 258 0
2020-02-19 12:01:15 GMT 51.153339 -0.189069 0 255 0
2020-02-19 12:01:00 GMT 51.153351 -0.189069 0 255 0
2020-02-19 12:00:45 GMT 51.153343 -0.189075 0 255 0
2020-02-19 12:00:15 GMT 51.153351 -0.189069 0 255 0
2020-02-19 11:59:56 GMT 51.153343 -0.189075 0 255 0
2020-02-19 11:59:51 GMT 51.153351 -0.189069 0 255 0
2020-02-19 11:59:16 GMT 51.153343 -0.189075 0 255 0
2020-02-19 11:59:11 GMT 51.153351 -0.189087 0 255 0
2020-02-19 11:59:06 GMT 51.153343 -0.189075 0 255 0
2020-02-19 11:58:46 GMT 51.153351 -0.189087 0 255 0
2020-02-19 11:58:41 GMT 51.153343 -0.189075 0 255 0
2020-02-19 11:58:02 GMT 51.153351 -0.189087 0 255 0
2020-02-19 11:57:12 GMT 51.153343 -0.189075 0 255 0
2020-02-19 11:57:07 GMT 51.153339 -0.189087 0 255 0
2020-02-19 11:56:52 GMT 51.153343 -0.189075 0 255 0
2020-02-19 11:56:37 GMT 51.153339 -0.189087 0 255 0
2020-02-19 11:56:22 GMT 51.153343 -0.189075 0 255 0
2020-02-19 11:56:12 GMT 51.153339 -0.189087 0 255 0
2020-02-19 11:56:02 GMT 51.153343 -0.189075 0 255 0
2020-02-19 11:55:53 GMT 51.153339 -0.189087 0 255 0
2020-02-19 11:55:29 GMT 51.153343 -0.189075 0 255 0
2020-02-19 11:55:22 GMT 51.153339 -0.189087 0 255 0
2020-02-19 11:55:02 GMT 51.153343 -0.189075 0 255 0
2020-02-19 11:54:57 GMT 51.153339 -0.189087 0 255 0
2020-02-19 11:54:52 GMT 51.153343 -0.189075 0 255 0
2020-02-19 11:54:47 GMT 51.153339 -0.189087 0 255 0
2020-02-19 11:53:47 GMT 51.153343 -0.189075 0 255 0
2020-02-19 11:53:32 GMT 51.153339 -0.189087 0 255 0
2020-02-19 11:53:27 GMT 51.153343 -0.189075 0 255 0
2020-02-19 11:53:07 GMT 51.153332 -0.189075 0 255 0
2020-02-19 11:52:52 GMT 51.153343 -0.189075 0 255 0
We lost coverage of the aircraft here for a total of 78 minutes
2020-02-19 10:34:36 GMT 51.153393 -0.188713 0 258 3 0
2020-02-19 10:34:31 GMT 51.153404 -0.188560 0 255 6 0
2020-02-19 10:34:23 GMT 51.153465 -0.188197 0 348 8 0
2020-02-19 10:34:20 GMT 51.153484 -0.188046 0 348 8 0
2020-02-19 10:34:02 GMT 51.153339 -0.187510 0 348 6 0
2020-02-19 10:33:53 GMT 51.153076 -0.187417 0 348 8 0
2020-02-19 10:33:49 GMT 51.152950 -0.187380 0 345 10 0
2020-02-19 10:33:40 GMT 51.152493 -0.187213 0 345 13 0
2020-02-19 10:33:32 GMT 51.152081 -0.187065 0 345 10 0
2020-02-19 10:33:28 GMT 51.151924 -0.187016 0 348 10 0
2020-02-19 10:33:18 GMT 51.151497 -0.187009 0 45 11 0
2020-02-19 10:33:07 GMT 51.151234 -0.187770 0 78 11 0
2020-02-19 10:33:02 GMT 51.151165 -0.188289 0 75 15 0
2020-02-19 10:32:57 GMT 51.151112 -0.188713 0 78 17 0
2020-02-19 10:32:52 GMT 51.151028 -0.189310 0 78 16 0
2020-02-19 10:32:49 GMT 51.150993 -0.189571 0 78 18 0
2020-02-19 10:32:46 GMT 51.150936 -0.189997 0 75 18 0
2020-02-19 10:32:36 GMT 51.150753 -0.191333 0 75 23 0
2020-02-19 10:32:24 GMT 51.150482 -0.193233 0 78 21 0
2020-02-19 10:32:16 GMT 51.150307 -0.194569 0 75 21 0
2020-02-19 10:32:05 GMT 51.150078 -0.196158 0 78 23 0
2020-02-19 10:31:54 GMT 51.149860 -0.197791 0 75 21 0
2020-02-19 10:31:48 GMT 51.149715 -0.198784 0 78 22 0
2020-02-19 10:31:43 GMT 51.149620 -0.199509 0 78 23 0
2020-02-19 10:31:34 GMT 51.149422 -0.200844 0 75 20 0
2020-02-19 10:31:23 GMT 51.149231 -0.202282 0 75 18 0
2020-02-19 10:31:13 GMT 51.149075 -0.203495 0 78 15 0
2020-02-19 10:31:06 GMT 51.148968 -0.204231 0 75 14 0
2020-02-19 10:31:02 GMT 51.148922 -0.204565 0 75 13 0
2020-02-19 10:30:57 GMT 51.148842 -0.205103 0 75 12 0
2020-02-19 10:30:52 GMT 51.148796 -0.205418 0 70 11 0
2020-02-19 10:30:42 GMT 51.148567 -0.206161 0 19 14 0
2020-02-19 10:30:36 GMT 51.148235 -0.206291 0 329 13 0
2020-02-19 10:30:31 GMT 51.148006 -0.206105 0 300 15 0
2020-02-19 10:30:20 GMT 51.147755 -0.205029 0 284 13 0
2020-02-19 10:30:09 GMT 51.147617 -0.204249 0 281 8 0
2020-02-19 10:30:00 GMT 51.147583 -0.203934 0 281 0 0
2020-02-19 10:29:50 GMT 51.147549 -0.203711 0 281 17 0
2020-02-19 10:29:39 GMT 51.147385 -0.202541 0 281 15 0
2020-02-19 10:29:27 GMT 51.147163 -0.200958 0 281 23 0
2020-02-19 10:29:16 GMT 51.147049 -0.198612 0 264 35 0
2020-02-19 10:29:08 GMT 51.147293 -0.196457 0 258 44 0
2020-02-19 10:28:55 GMT 51.147945 -0.191746 0 258 67 0
2020-02-19 10:28:46 GMT 51.148636 -0.186619 -50 258 80 0
2020-02-19 10:28:35 GMT 51.149780 -0.178454 -50 258 106 -64
2020-02-19 10:28:26 GMT 51.150852 -0.170746 0 258 125 -576
2020-02-19 10:28:21 GMT 51.151600 -0.165405 75 259 122 -768
2020-02-19 10:28:16 GMT 51.152069 -0.161677 125 258 123 -704
2020-02-19 10:28:12 GMT 51.152622 -0.157623 175 258 123 -640
2020-02-19 10:28:04 GMT 51.153603 -0.150528 275 258 122 -832
2020-02-19 10:28:01 GMT 51.153881 -0.148315 300 258 122 -704
2020-02-19 10:27:58 GMT 51.154816 -0.141783 400 258 123 -704
2020-02-19 10:27:54 GMT 51.154816 -0.141783 400 258 123 -704
2020-02-19 10:27:51 GMT 51.155182 -0.139259 425 258 122 -640
2020-02-19 10:27:48 GMT 51.155548 -0.136513 475 258 121 -512
2020-02-19 10:27:44 GMT 51.156067 -0.132828 500 258 121 -704
2020-02-19 10:27:41 GMT 51.156345 -0.130844 525 258 118 -640
2020-02-19 10:27:35 GMT 51.157604 -0.121994 625 258 118 -640
2020-02-19 10:27:32 GMT 51.157604 -0.121994 650 258 117 -768
2020-02-19 10:27:27 GMT 51.158115 -0.118332 700 258 116 -640
2020-02-19 10:27:24 GMT 51.158569 -0.115208 725 258 115 -640
2020-02-19 10:27:20 GMT 51.158844 -0.113129 750 259 115 -640
2020-02-19 10:27:17 GMT 51.159187 -0.110626 800 258 115 -640
2020-02-19 10:27:13 GMT 51.160172 -0.103554 875 259 112 -640
2020-02-19 10:27:05 GMT 51.160995 -0.097170 975 258 109 -640
2020-02-19 10:27:01 GMT 51.160995 -0.097170 975 258 109 -640
2020-02-19 10:26:58 GMT 51.161373 -0.094376 1,025 258 109 -640
2020-02-19 10:26:51 GMT 51.162048 -0.089375 1,075 258 108 -640
2020-02-19 10:26:45 GMT 51.162643 -0.085218 1,125 259 107 -576
2020-02-19 10:26:42 GMT 51.162964 -0.082694 1,200 258 106 -640
2020-02-19 10:26:38 GMT 51.163467 -0.079057 1,200 258 106 -640
2020-02-19 10:26:35 GMT 51.164028 -0.074921 1,325 259 106 -640
2020-02-19 10:26:28 GMT 51.164566 -0.070892 1,325 258 109 -640
2020-02-19 10:26:25 GMT 51.164822 -0.068893 1,350 258 109 -640
2020-02-19 10:26:21 GMT 51.165611 -0.063400 1,425 257 119 -768
2020-02-19 10:26:17 GMT 51.165611 -0.063400 1,425 257 119 -768
2020-02-19 10:26:14 GMT 51.165939 -0.060944 1,450 258 120 -768
2020-02-19 10:26:10 GMT 51.166489 -0.057233 1,525 259 130 -768
2020-02-19 10:26:07 GMT 51.166866 -0.054092 1,600 258 136 -832
2020-02-19 10:26:04 GMT 51.167267 -0.051369 1,600 258 134 -896
2020-02-19 10:26:00 GMT 51.168217 -0.044327 1,700 258 146 -832
2020-02-19 10:25:57 GMT 51.168217 -0.044327 1,700 258 147 -832
2020-02-19 10:25:53 GMT 51.168777 -0.040382 1,825 258 151 -896
2020-02-19 10:25:50 GMT 51.169243 -0.037231 1,775 258 151 -896
2020-02-19 10:25:46 GMT 51.169846 -0.032730 1,850 258 150 -832
2020-02-19 10:25:43 GMT 51.170265 -0.029602 2,150 258 152 -832
2020-02-19 10:25:40 GMT 51.170792 -0.025907 2,150 258 154 -896
2020-02-19 10:25:34 GMT 51.171661 -0.019375 2,000 258 153 -896
2020-02-19 10:25:28 GMT 51.172668 -0.012100 2,125 258 154 -896
2020-02-19 10:25:24 GMT 51.173244 -0.007629 2,175 258 154 -896
2020-02-19 10:25:21 GMT 51.173492 -0.005864 2,225 258 154 -896
2020-02-19 10:25:17 GMT 51.174362 0.000610 2,250 258 154 -896
2020-02-19 10:25:13 GMT 51.174828 0.003815 2,400 258 153 -896
2020-02-19 10:25:09 GMT 51.175415 0.008166 2,375 258 153 -832
2020-02-19 10:25:05 GMT 51.176041 0.012589 2,450 258 152 -896
2020-02-19 10:25:02 GMT 51.176422 0.015218 2,625 258 152 -832
2020-02-19 10:24:59 GMT 51.176971 0.019078 2,600 258 153 -832
2020-02-19 10:24:56 GMT 51.177475 0.022492 2,600 258 154 -832
2020-02-19 10:24:53 GMT 51.177979 0.026501 2,600 259 155 -896
2020-02-19 10:24:48 GMT 51.178574 0.031326 2,700 260 155 -832
2020-02-19 10:24:45 GMT 51.179077 0.035706 2,725 260 155 -704
2020-02-19 10:24:42 GMT 51.179344 0.037918 2,750 260 154 -448
2020-02-19 10:24:39 GMT 51.179764 0.041351 2,750 259 154 0
2020-02-19 10:24:36 GMT 51.180183 0.044861 2,750 256 154 64
2020-02-19 10:24:32 GMT 51.180817 0.049290 2,750 219 162 128
2020-02-19 10:24:29 GMT 51.181320 0.052482 2,750 255 155 0
2020-02-19 10:24:25 GMT 51.182045 0.056229 2,750 253 155 0
2020-02-19 10:24:22 GMT 51.183113 0.061035 2,750 248 156 -128
2020-02-19 10:24:16 GMT 51.184746 0.066299 2,775 235 156 128
2020-02-19 10:24:13 GMT 51.186279 0.070038 2,775 234 156 192
2020-02-19 10:24:10 GMT 51.187397 0.072403 2,750 232 157 192
2020-02-19 10:24:06 GMT 51.192005 0.080643 2,750 230 158 -64
2020-02-19 10:24:01 GMT 51.192005 0.080643 2,750 224 160 -64
2020-02-19 10:23:58 GMT 51.192719 0.081655 2,750 219 162 -128
2020-02-19 10:23:55 GMT 51.194893 0.084457 2,750 220 162 -192
2020-02-19 10:23:51 GMT 51.197479 0.087742 2,775 220 162 -128
2020-02-19 10:23:48 GMT 51.198757 0.089417 2,775 218 162 128
2020-02-19 10:23:45 GMT 51.202515 0.094349 2,750 209 166 0
2020-02-19 10:23:39 GMT 51.204712 0.097021 2,750 217 163 128
2020-02-19 10:23:36 GMT 51.206299 0.098724 2,750 213 163 0
2020-02-19 10:23:33 GMT 51.208145 0.100362 2,750 206 166 -64
2020-02-19 10:23:30 GMT 51.210999 0.102158 2,750 195 171 -448
2020-02-19 10:23:27 GMT 51.212814 0.102844 2,775 186 175 -832
2020-02-19 10:23:24 GMT 51.215744 0.103108 2,825 179 179 -1024
2020-02-19 10:23:21 GMT 51.220413 0.101995 3,000 166 185 -1216
2020-02-19 10:23:17 GMT 51.223343 0.100659 3,000 163 188 -1152
2020-02-19 10:23:14 GMT 51.223343 0.100659 3,075 162 188 -1088
2020-02-19 10:23:11 GMT 51.225723 0.099397 3,075 162 188 -1024
2020-02-19 10:23:08 GMT 51.228333 0.098135 3,125 162 189 -1024
2020-02-19 10:23:04 GMT 51.231808 0.096359 3,175 162 190 -896
2020-02-19 10:23:01 GMT 51.234276 0.095139 3,250 142 210 -704
2020-02-19 10:22:58 GMT 51.238770 0.092716 3,300 159 195 -768
2020-02-19 10:22:55 GMT 51.242615 0.090043 3,325 124 223 -576
2020-02-19 10:22:51 GMT 51.242615 0.090043 3,375 149 204 -768
2020-02-19 10:22:48 GMT 51.244858 0.088039 3,425 145 208 -704
2020-02-19 10:22:45 GMT 51.247009 0.085515 3,450 133 217 -640
2020-02-19 10:22:42 GMT 51.250057 0.080719 3,500 126 222 -576
2020-02-19 10:22:38 GMT 51.252686 0.074826 3,525 118 227 -640
2020-02-19 10:22:35 GMT 51.253593 0.072174 3,550 115 228 -576
2020-02-19 10:22:32 GMT 51.254852 0.067520 3,575 111 232 -448
2020-02-19 10:22:29 GMT 51.255692 0.063248 3,600 104 236 -384
2020-02-19 10:22:26 GMT 51.256527 0.055847 3,625 90 243 -512
2020-02-19 10:22:23 GMT 51.256668 0.051956 3,650 90 243 -512
2020-02-19 10:22:20 GMT 51.256622 0.046543 3,675 85 248 -576
2020-02-19 10:22:17 GMT 51.256439 0.041347 3,750 85 246 -576
2020-02-19 10:22:13 GMT 51.255783 0.028763 3,750 85 250 -512
2020-02-19 10:22:06 GMT 51.255478 0.021898 3,775 85 253 -512
2020-02-19 10:22:03 GMT 51.255131 0.015335 3,825 85 256 -640
2020-02-19 10:22:00 GMT 51.254898 0.010223 4,300 86 265 -1472
2020-02-19 10:21:57 GMT 51.254524 0.002441 3,875 85 259 -768
2020-02-19 10:21:54 GMT 51.254105 -0.006904 4,000 85 262 -832
2020-02-19 10:21:51 GMT 51.253826 -0.013504 3,975 86 263 -896
2020-02-19 10:21:48 GMT 51.253826 -0.013504 4,200 86 266 -1152
2020-02-19 10:21:45 GMT 51.253548 -0.019531 4,050 86 265 -1152
2020-02-19 10:21:42 GMT 51.253372 -0.024200 4,150 86 266 -1152
2020-02-19 10:21:39 GMT 51.253052 -0.031029 4,150 86 266 -1152
2020-02-19 10:21:36 GMT 51.252525 -0.044556 4,375 86 265 -1472
2020-02-19 10:21:32 GMT 51.252525 -0.044556 4,300 86 265 -1472
2020-02-19 10:21:29 GMT 51.252274 -0.050403 4,375 86 265 -1472
2020-02-19 10:21:26 GMT 51.252010 -0.057068 4,450 86 265 -1472
2020-02-19 10:21:23 GMT 51.251827 -0.061951 4,500 86 264 -1472
2020-02-19 10:21:20 GMT 51.251595 -0.067596 4,575 86 263 -1472
2020-02-19 10:21:17 GMT 51.251408 -0.073166 4,625 86 263 -1472
2020-02-19 10:21:14 GMT 51.251129 -0.079575 4,775 86 263 -1472
2020-02-19 10:21:11 GMT 51.250896 -0.086365 4,825 86 262 -1408
2020-02-19 10:21:08 GMT 51.250626 -0.092196 4,875 86 262 -1408
2020-02-19 10:21:05 GMT 51.250477 -0.096588 4,925 86 262 -1344
2020-02-19 10:21:02 GMT 51.250198 -0.102997 5,000 85 262 -1216
2020-02-19 10:20:59 GMT 51.249985 -0.108007 5,100 85 262 -1152
2020-02-19 10:20:56 GMT 51.249638 -0.115128 5,175 85 263 -1152
2020-02-19 10:20:53 GMT 51.249390 -0.120775 5,250 85 263 -1088
2020-02-19 10:20:50 GMT 51.249081 -0.127335 5,250 85 263 -1024
2020-02-19 10:20:47 GMT 51.248840 -0.131984 5,300 85 264 -832
2020-02-19 10:20:44 GMT 51.248566 -0.138245 5,325 85 265 -704
2020-02-19 10:20:41 GMT 51.248009 -0.150146 5,400 85 266 -512
2020-02-19 10:20:35 GMT 51.247787 -0.155219 5,425 85 266 -512
2020-02-19 10:20:32 GMT 51.247467 -0.162494 5,900 86 270 -1216
2020-02-19 10:20:29 GMT 51.247330 -0.166205 5,475 86 266 -448
2020-02-19 10:20:26 GMT 51.246964 -0.173851 5,500 85 266 -448
2020-02-19 10:20:23 GMT 51.246826 -0.177786 5,525 85 266 -448
2020-02-19 10:20:20 GMT 51.246506 -0.184689 5,550 86 268 -896
2020-02-19 10:20:17 GMT 51.246185 -0.191370 5,575 86 268 -1024
2020-02-19 10:20:13 GMT 51.245914 -0.197830 5,675 86 268 -1088
2020-02-19 10:20:10 GMT 51.245636 -0.204583 5,700 86 269 -1088
2020-02-19 10:20:07 GMT 51.245453 -0.210299 5,775 86 270 -1152
2020-02-19 10:20:04 GMT 51.245270 -0.215273 5,825 86 270 -1152
2020-02-19 10:20:01 GMT 51.244995 -0.222250 5,850 86 270 -1216
2020-02-19 10:19:58 GMT 51.244701 -0.229797 5,950 86 270 -1280
2020-02-19 10:19:55 GMT 51.244537 -0.233756 6,000 86 270 -1280
2020-02-19 10:19:52 GMT 51.244286 -0.240936 6,075 86 270 -1344
2020-02-19 10:19:49 GMT 51.244080 -0.247267 6,150 86 270 -1280
2020-02-19 10:19:46 GMT 51.243942 -0.251275 6,200 86 269 -1344
2020-02-19 10:19:43 GMT 51.243622 -0.259812 6,300 86 269 -1344
2020-02-19 10:19:40 GMT 51.243530 -0.262781 6,325 86 269 -1344
2020-02-19 10:19:37 GMT 51.243256 -0.270501 6,400 86 269 -1280
2020-02-19 10:19:34 GMT 51.243027 -0.275475 6,475 86 269 -1280
2020-02-19 10:19:31 GMT 51.242752 -0.282007 6,750 84 270 -1088
2020-02-19 10:19:27 GMT 51.242283 -0.291443 6,575 85 269 -1152
2020-02-19 10:19:24 GMT 51.242050 -0.295639 6,675 85 269 -1152
2020-02-19 10:19:21 GMT 51.241745 -0.301530 6,700 84 270 -1088
2020-02-19 10:19:18 GMT 51.241306 -0.308304 6,775 84 270 -1024
2020-02-19 10:19:15 GMT 51.241013 -0.313036 6,850 83 270 -960
2020-02-19 10:19:12 GMT 51.240559 -0.320206 6,850 87 273 -768
2020-02-19 10:19:06 GMT 51.240234 -0.330963 6,950 94 274 -640
2020-02-19 10:19:03 GMT 51.240467 -0.337677 6,975 102 275 -256
2020-02-19 10:19:00 GMT 51.241074 -0.343628 7,000 108 275 0
2020-02-19 10:18:56 GMT 51.243668 -0.357650 7,000 131 276 -896
2020-02-19 10:18:53 GMT 51.243668 -0.357650 7,000 109 276 64
2020-02-19 10:18:50 GMT 51.246552 -0.371086 7,000 108 277 0
2020-02-19 10:18:46 GMT 51.246552 -0.371086 7,000 108 277 0
2020-02-19 10:18:43 GMT 51.247971 -0.377618 7,000 108 277 0
2020-02-19 10:18:40 GMT 51.248615 -0.380707 7,000 108 277 0
2020-02-19 10:18:37 GMT 51.250443 -0.389198 7,000 108 277 0
2020-02-19 10:18:33 GMT 51.251862 -0.395953 7,000 108 277 0
2020-02-19 10:18:30 GMT 51.253269 -0.402603 7,000 108 277 0
2020-02-19 10:18:25 GMT 51.255203 -0.411690 7,000 108 278 0
2020-02-19 10:18:22 GMT 51.256165 -0.416367 7,000 108 278 0
2020-02-19 10:18:19 GMT 51.257263 -0.421637 7,000 108 278 0
2020-02-19 10:18:15 GMT 51.259087 -0.430145 7,000 108 279 0
2020-02-19 10:18:12 GMT 51.260254 -0.435791 7,000 108 278 -64
2020-02-19 10:18:09 GMT 51.261646 -0.442276 7,000 108 278 -64
2020-02-19 10:18:06 GMT 51.262905 -0.448303 7,000 108 278 -64
2020-02-19 10:18:03 GMT 51.264633 -0.456452 7,000 108 277 -128
2020-02-19 10:18:00 GMT 51.265732 -0.461648 7,000 108 277 -64
2020-02-19 10:17:55 GMT 51.269485 -0.479241 7,000 108 275 64
2020-02-19 10:17:51 GMT 51.269485 -0.479241 7,000 108 275 64
2020-02-19 10:17:48 GMT 51.270260 -0.482864 7,000 114 278 -1088
2020-02-19 10:17:45 GMT 51.272690 -0.494162 7,000 108 273 0
2020-02-19 10:17:39 GMT 51.273987 -0.500336 7,000 108 275 -768
2020-02-19 10:17:36 GMT 51.275162 -0.505891 7,175 108 274 -1344
2020-02-19 10:17:33 GMT 51.276638 -0.513000 7,075 108 276 -1152
2020-02-19 10:17:30 GMT 51.277847 -0.518799 7,125 108 274 -1216
2020-02-19 10:17:27 GMT 51.279053 -0.524523 7,175 108 274 -1344
2020-02-19 10:17:24 GMT 51.280197 -0.530165 7,250 108 274 -1280
2020-02-19 10:17:21 GMT 51.281246 -0.535126 7,375 108 274 -1216
2020-02-19 10:17:18 GMT 51.284134 -0.549393 7,400 107 276 -960
2020-02-19 10:17:15 GMT 51.284134 -0.549393 7,450 107 276 -960
2020-02-19 10:17:12 GMT 51.284737 -0.552521 7,525 110 277 -960
2020-02-19 10:17:09 GMT 51.285873 -0.557927 7,550 125 276 -1152
2020-02-19 10:17:06 GMT 51.287521 -0.565054 7,575 112 278 -1024
2020-02-19 10:17:02 GMT 51.289902 -0.573145 7,650 123 277 -1152
2020-02-19 10:16:59 GMT 51.293304 -0.581360 7,700 125 276 -1152
2020-02-19 10:16:56 GMT 51.293304 -0.581360 7,750 128 276 -1088
2020-02-19 10:16:53 GMT 51.296173 -0.586804 7,825 131 275 -1024
2020-02-19 10:16:49 GMT 51.301170 -0.595779 7,850 131 275 -1024
2020-02-19 10:16:46 GMT 51.301575 -0.596528 7,950 131 276 -960
2020-02-19 10:16:43 GMT 51.304871 -0.602541 7,975 131 276 -832
2020-02-19 10:16:40 GMT 51.306885 -0.606178 8,000 131 277 -832
2020-02-19 10:16:37 GMT 51.309273 -0.610504 8,050 131 278 -704
2020-02-19 10:16:34 GMT 51.311646 -0.614789 8,100 131 279 -704
2020-02-19 10:16:31 GMT 51.314812 -0.620422 8,125 131 278 -704
2020-02-19 10:16:28 GMT 51.320442 -0.630417 8,175 131 281 -768
2020-02-19 10:16:25 GMT 51.320442 -0.630417 8,200 131 281 -704
2020-02-19 10:16:22 GMT 51.322258 -0.633621 8,250 131 281 -768
2020-02-19 10:16:19 GMT 51.327801 -0.643539 8,300 131 282 -832
2020-02-19 10:16:16 GMT 51.327801 -0.643539 8,300 131 282 -832
2020-02-19 10:16:13 GMT 51.329941 -0.647507 8,375 130 282 -896
2020-02-19 10:16:10 GMT 51.333012 -0.653152 8,400 131 283 -896
2020-02-19 10:16:07 GMT 51.336090 -0.658586 8,425 131 283 -896
2020-02-19 10:16:04 GMT 51.338833 -0.663071 8,500 138 282 -1088
2020-02-19 10:16:01 GMT 51.344883 -0.670853 8,600 143 281 -1088
2020-02-19 10:15:58 GMT 51.344883 -0.670853 8,650 147 280 -1024
2020-02-19 10:15:55 GMT 51.346653 -0.672607 8,650 153 279 -896
2020-02-19 10:15:52 GMT 51.350464 -0.676030 8,925 174 272 -1024
2020-02-19 10:15:49 GMT 51.354630 -0.679297 8,725 153 278 -896
2020-02-19 10:15:46 GMT 51.357918 -0.681763 8,800 158 278 -960
2020-02-19 10:15:43 GMT 51.365135 -0.685806 8,850 169 274 -960
2020-02-19 10:15:40 GMT 51.365135 -0.685806 8,875 169 274 -960
2020-02-19 10:15:37 GMT 51.369873 -0.687239 9,075 174 272 -1024
2020-02-19 10:15:34 GMT 51.372849 -0.687685 8,975 178 270 -1088
2020-02-19 10:15:31 GMT 51.375961 -0.687685 9,000 183 267 -1152
2020-02-19 10:15:28 GMT 51.380493 -0.687017 9,050 187 265 -1088
2020-02-19 10:15:25 GMT 51.383385 -0.686264 9,175 192 263 -1024
2020-02-19 10:15:22 GMT 51.390553 -0.683899 9,225 192 263 -1024
2020-02-19 10:15:16 GMT 51.394089 -0.682637 9,275 193 263 -1024
2020-02-19 10:15:13 GMT 51.396835 -0.681763 9,325 193 264 -1024
2020-02-19 10:15:10 GMT 51.401505 -0.680113 9,400 193 264 -1024
2020-02-19 10:15:07 GMT 51.405304 -0.678777 9,450 193 264 -1024
2020-02-19 10:15:04 GMT 51.408428 -0.677719 9,600 193 265 -1024
2020-02-19 10:15:01 GMT 51.416061 -0.674973 9,575 193 265 -1024
2020-02-19 10:14:58 GMT 51.416061 -0.674973 9,650 193 266 -1024
2020-02-19 10:14:55 GMT 51.419769 -0.673729 10,025 193 266 -960
2020-02-19 10:14:52 GMT 51.421829 -0.672987 9,750 193 268 -960
2020-02-19 10:14:49 GMT 51.427094 -0.671158 9,725 193 265 -1024
2020-02-19 10:14:46 GMT 51.430710 -0.669943 9,775 193 265 -1024
2020-02-19 10:14:43 GMT 51.433472 -0.668945 9,875 193 266 -960
2020-02-19 10:14:40 GMT 51.437347 -0.667642 9,900 193 266 -960
2020-02-19 10:14:37 GMT 51.441666 -0.666122 9,925 193 266 -960
2020-02-19 10:14:34 GMT 51.445206 -0.664902 10,000 193 268 -960
2020-02-19 10:14:31 GMT 51.448334 -0.663856 10,075 193 268 -960
2020-02-19 10:14:28 GMT 51.451488 -0.662766 10,100 193 269 -1024
2020-02-19 10:14:25 GMT 51.456238 -0.661087 10,125 193 269 -1024
2020-02-19 10:14:22 GMT 51.460098 -0.659774 10,425 193 269 -1024
2020-02-19 10:14:19 GMT 51.463120 -0.658734 10,300 193 269 -1024
2020-02-19 10:14:16 GMT 51.466049 -0.657695 10,325 193 269 -1088
2020-02-19 10:14:13 GMT 51.470673 -0.656062 10,350 193 269 -1088
2020-02-19 10:14:10 GMT 51.473972 -0.654907 10,425 193 269 -1152
2020-02-19 10:14:07 GMT 51.477978 -0.653458 10,450 193 269 -1152
2020-02-19 10:14:04 GMT 51.481236 -0.652313 10,550 193 269 -1216
2020-02-19 10:14:01 GMT 51.484306 -0.651245 10,550 193 269 -1216
2020-02-19 10:13:58 GMT 51.488937 -0.649604 10,625 193 270 -1216
2020-02-19 10:13:55 GMT 51.491959 -0.648565 10,725 193 270 -1152
2020-02-19 10:13:52 GMT 51.495525 -0.647354 10,775 192 269 -1088
2020-02-19 10:13:48 GMT 51.499878 -0.645818 10,850 192 269 -1024
2020-02-19 10:13:45 GMT 51.504776 -0.644185 10,900 193 270 -896
2020-02-19 10:13:42 GMT 51.507706 -0.643146 10,950 193 271 -768
2020-02-19 10:13:39 GMT 51.510887 -0.642090 10,975 193 272 -512
2020-02-19 10:13:36 GMT 51.515682 -0.640411 11,000 193 272 -256
2020-02-19 10:13:33 GMT 51.518478 -0.639496 11,000 193 272 -128
2020-02-19 10:13:30 GMT 51.522293 -0.638123 11,000 193 272 0
2020-02-19 10:13:27 GMT 51.530045 -0.635500 11,000 193 271 64
2020-02-19 10:13:24 GMT 51.530045 -0.635500 11,000 193 272 0
2020-02-19 10:13:21 GMT 51.534447 -0.633926 11,000 193 272 64
2020-02-19 10:13:18 GMT 51.537781 -0.632827 11,000 193 272 64
2020-02-19 10:13:15 GMT 51.540344 -0.631937 11,000 193 272 64
2020-02-19 10:13:12 GMT 51.544266 -0.630569 10,975 193 271 64
2020-02-19 10:13:09 GMT 51.548447 -0.629190 10,975 193 271 64
2020-02-19 10:13:06 GMT 51.552246 -0.627854 10,975 193 271 0
2020-02-19 10:13:03 GMT 51.556320 -0.626443 10,975 193 272 0
2020-02-19 10:13:00 GMT 51.560120 -0.625107 10,975 193 273 64
2020-02-19 10:12:57 GMT 51.563187 -0.624068 10,975 193 272 0
2020-02-19 10:12:54 GMT 51.566238 -0.623016 10,975 193 272 64
2020-02-19 10:12:51 GMT 51.570190 -0.621618 10,975 193 274 0
2020-02-19 10:12:48 GMT 51.574265 -0.620208 10,975 193 275 -64
2020-02-19 10:12:45 GMT 51.577503 -0.619125 10,975 193 275 -64
2020-02-19 10:12:42 GMT 51.582733 -0.617239 10,975 193 275 -64
2020-02-19 10:12:39 GMT 51.585068 -0.616422 10,975 193 275 -64
2020-02-19 10:12:36 GMT 51.592541 -0.613785 11,000 175 283 0
2020-02-19 10:12:30 GMT 51.596127 -0.612411 11,000 194 275 -128
2020-02-19 10:12:27 GMT 51.599712 -0.611115 11,000 194 274 0
2020-02-19 10:12:24 GMT 51.602829 -0.609970 11,025 194 275 -128
2020-02-19 10:12:21 GMT 51.608368 -0.607834 11,025 194 274 -64
2020-02-19 10:12:18 GMT 51.611847 -0.606475 11,000 174 286 -128
2020-02-19 10:12:15 GMT 51.613907 -0.605658 11,000 194 273 192
2020-02-19 10:12:12 GMT 51.618210 -0.603951 11,000 194 273 192
2020-02-19 10:12:09 GMT 51.622513 -0.602318 10,975 190 277 0
2020-02-19 10:12:05 GMT 51.627548 -0.600891 10,975 190 277 -64
2020-02-19 10:12:02 GMT 51.633369 -0.600357 10,975 183 281 -128
2020-02-19 10:11:59 GMT 51.635193 -0.600388 11,000 174 284 0
2020-02-19 10:11:56 GMT 51.639496 -0.600908 11,000 173 284 0
2020-02-19 10:11:53 GMT 51.644073 -0.601724 11,000 173 284 0
2020-02-19 10:11:50 GMT 51.647873 -0.602392 11,000 173 284 0
2020-02-19 10:11:47 GMT 51.651901 -0.603060 10,975 173 283 0
2020-02-19 10:11:44 GMT 51.654781 -0.603561 10,975 173 283 64
2020-02-19 10:11:41 GMT 51.659344 -0.604401 10,975 173 283 64
2020-02-19 10:11:38 GMT 51.667191 -0.605733 10,975 173 284 0
2020-02-19 10:11:35 GMT 51.667191 -0.605733 10,975 173 284 -64
2020-02-19 10:11:32 GMT 51.674660 -0.606995 10,975 173 284 -64
2020-02-19 10:11:29 GMT 51.674660 -0.606995 10,975 173 284 -64
2020-02-19 10:11:26 GMT 51.679367 -0.607811 10,975 173 285 -64
2020-02-19 10:11:22 GMT 51.683716 -0.608553 11,000 174 286 -128
2020-02-19 10:11:19 GMT 51.688019 -0.609222 11,000 174 286 -128
2020-02-19 10:11:16 GMT 51.691589 -0.609815 11,000 174 286 -128
2020-02-19 10:11:13 GMT 51.694885 -0.610335 11,000 174 285 -128
2020-02-19 10:11:10 GMT 51.699100 -0.610962 11,000 174 285 64
2020-02-19 10:11:07 GMT 51.702358 -0.611496 11,000 174 285 192
2020-02-19 10:11:04 GMT 51.706558 -0.612117 11,000 174 285 192
2020-02-19 10:11:01 GMT 51.715256 -0.613601 11,000 173 286 64
2020-02-19 10:10:58 GMT 51.715256 -0.613601 11,000 166 291 -64
2020-02-19 10:10:55 GMT 51.719723 -0.614929 11,000 167 290 0
2020-02-19 10:10:52 GMT 51.723358 -0.616571 11,000 161 292 -64
2020-02-19 10:10:49 GMT 51.727173 -0.618820 11,000 157 294 0
2020-02-19 10:10:46 GMT 51.730476 -0.621338 11,000 154 295 0
2020-02-19 10:10:43 GMT 51.733795 -0.624439 11,000 143 298 0
2020-02-19 10:10:40 GMT 51.736992 -0.627899 11,000 141 298 0
2020-02-19 10:10:37 GMT 51.740719 -0.632782 11,000 137 298 0
2020-02-19 10:10:34 GMT 51.743500 -0.637133 11,000 131 299 0
2020-02-19 10:10:31 GMT 51.746677 -0.643234 11,000 127 299 0
2020-02-19 10:10:28 GMT 51.748260 -0.646820 11,000 111 295 0
2020-02-19 10:10:25 GMT 51.750961 -0.654280 11,000 114 296 64
2020-02-19 10:10:22 GMT 51.752380 -0.659105 10,975 111 295 0
2020-02-19 10:10:18 GMT 51.754219 -0.667343 10,975 95 292 0
2020-02-19 10:10:15 GMT 51.755447 -0.676105 10,975 47 266 0
2020-02-19 10:10:12 GMT 51.755997 -0.689466 11,000 79 286 0
2020-02-19 10:10:08 GMT 51.755997 -0.689466 11,000 86 289 -64
2020-02-19 10:10:04 GMT 51.755676 -0.696518 11,000 81 287 0
2020-02-19 10:10:01 GMT 51.753525 -0.710919 11,000 72 282 0
2020-02-19 10:09:57 GMT 51.753525 -0.710919 11,000 69 280 0
2020-02-19 10:09:54 GMT 51.752106 -0.716487 11,000 62 276 0
2020-02-19 10:09:51 GMT 51.749424 -0.724335 11,000 58 273 0
2020-02-19 10:09:48 GMT 51.747608 -0.728455 11,000 37 259 0
2020-02-19 10:09:45 GMT 51.745605 -0.732269 11,000 25 251 64
2020-02-19 10:09:42 GMT 51.742126 -0.737717 11,000 39 260 0
2020-02-19 10:09:38 GMT 51.739647 -0.740738 11,000 31 255 0
2020-02-19 10:09:35 GMT 51.736343 -0.744019 11,000 25 251 64
2020-02-19 10:09:32 GMT 51.733315 -0.746384 11,000 23 249 64
2020-02-19 10:09:29 GMT 51.728661 -0.748825 10,975 7 242 0
2020-02-19 10:09:26 GMT 51.725784 -0.749743 10,975 348 234 -128
2020-02-19 10:09:22 GMT 51.721573 -0.750337 10,975 2 241 -64
2020-02-19 10:09:19 GMT 51.718513 -0.750122 11,000 350 235 -192
2020-02-19 10:09:16 GMT 51.715805 -0.749446 11,000 334 228 64
2020-02-19 10:09:13 GMT 51.712784 -0.748258 11,000 343 232 -128
2020-02-19 10:09:10 GMT 51.709625 -0.746551 11,000 338 230 0
2020-02-19 10:09:07 GMT 51.706558 -0.744472 11,000 335 228 64
2020-02-19 10:09:04 GMT 51.699463 -0.738385 10,975 331 226 128
2020-02-19 10:09:00 GMT 51.699463 -0.738385 11,000 328 226 192
2020-02-19 10:08:57 GMT 51.696945 -0.735639 10,975 321 225 64
2020-02-19 10:08:54 GMT 51.694977 -0.733115 10,975 317 224 0
2020-02-19 10:08:51 GMT 51.692348 -0.729141 10,975 313 224 -64
2020-02-19 10:08:48 GMT 51.690907 -0.726318 10,975 308 223 -64
2020-02-19 10:08:45 GMT 51.689346 -0.722796 10,975 296 226 0
2020-02-19 10:08:42 GMT 51.686966 -0.715819 10,975 297 224 0
2020-02-19 10:08:39 GMT 51.685638 -0.711513 10,975 297 224 0
2020-02-19 10:08:36 GMT 51.684723 -0.708470 10,975 297 224 0
2020-02-19 10:08:33 GMT 51.681595 -0.698090 10,975 296 225 0
2020-02-19 10:08:30 GMT 51.680386 -0.694046 11,000 293 226 -64
2020-02-19 10:08:27 GMT 51.679081 -0.689621 10,975 296 225 0
2020-02-19 10:08:24 GMT 51.679081 -0.689621 10,975 296 226 0
2020-02-19 10:08:21 GMT 51.677547 -0.684280 11,000 295 226 0
2020-02-19 10:08:17 GMT 51.676117 -0.679371 11,000 295 226 0
2020-02-19 10:08:14 GMT 51.674568 -0.673904 11,000 295 226 0
2020-02-19 10:08:11 GMT 51.673450 -0.670013 11,000 295 226 0
2020-02-19 10:08:08 GMT 51.672363 -0.666009 11,000 294 227 0
2020-02-19 10:08:05 GMT 51.671124 -0.661545 11,000 294 227 0
2020-02-19 10:08:02 GMT 51.669525 -0.655542 11,000 292 226 -64
2020-02-19 10:07:59 GMT 51.668564 -0.651831 11,000 292 226 0
2020-02-19 10:07:56 GMT 51.666981 -0.645370 11,000 289 226 64
2020-02-19 10:07:53 GMT 51.666458 -0.642997 11,000 290 226 64
2020-02-19 10:07:50 GMT 51.665085 -0.636687 11,000 289 226 64
2020-02-19 10:07:47 GMT 51.664230 -0.632706 11,000 289 226 64
2020-02-19 10:07:44 GMT 51.663208 -0.627928 11,000 290 226 64
2020-02-19 10:07:41 GMT 51.661716 -0.621643 11,000 297 224 -64
2020-02-19 10:07:38 GMT 51.660835 -0.618591 11,000 298 224 0
2020-02-19 10:07:35 GMT 51.659485 -0.614319 10,975 300 224 64
2020-02-19 10:07:31 GMT 51.657108 -0.607224 11,000 297 225 0
2020-02-19 10:07:28 GMT 51.656132 -0.604095 11,000 294 225 0
2020-02-19 10:07:25 GMT 51.654827 -0.599213 11,000 291 225 0
2020-02-19 10:07:22 GMT 51.653851 -0.594559 11,000 279 228 0
2020-02-19 10:07:19 GMT 51.652409 -0.583344 11,000 279 228 0
2020-02-19 10:07:16 GMT 51.652176 -0.578918 11,000 264 233 0
2020-02-19 10:07:13 GMT 51.652176 -0.578918 11,000 272 231 0
2020-02-19 10:07:10 GMT 51.652222 -0.572922 11,000 267 232 0
2020-02-19 10:07:07 GMT 51.652313 -0.570145 11,000 256 236 0
2020-02-19 10:07:04 GMT 51.652733 -0.565186 11,000 258 235 0
2020-02-19 10:07:01 GMT 51.653896 -0.557404 11,000 253 237 0
2020-02-19 10:06:58 GMT 51.654602 -0.553845 11,000 248 239 0
2020-02-19 10:06:55 GMT 51.656204 -0.547980 11,000 240 243 0
2020-02-19 10:06:52 GMT 51.659904 -0.538254 11,000 237 245 0
2020-02-19 10:06:49 GMT 51.659904 -0.538254 11,000 225 252 0
2020-02-19 10:06:46 GMT 51.661331 -0.535361 11,000 220 255 0
2020-02-19 10:06:43 GMT 51.666328 -0.527344 11,000 214 259 0
2020-02-19 10:06:37 GMT 51.668610 -0.524597 11,000 175 283 0
2020-02-19 10:06:34 GMT 51.675266 -0.518646 11,000 203 268 0
2020-02-19 10:06:31 GMT 51.679459 -0.516135 11,000 199 270 0
2020-02-19 10:06:28 GMT 51.679459 -0.516135 11,000 153 294 128
2020-02-19 10:06:25 GMT 51.683876 -0.514526 11,000 193 274 -64
2020-02-19 10:06:22 GMT 51.687599 -0.513840 11,000 184 280 -64
2020-02-19 10:06:19 GMT 51.694351 -0.514069 11,000 173 284 0
2020-02-19 10:06:13 GMT 51.699051 -0.515244 11,000 159 291 128
2020-02-19 10:06:10 GMT 51.705048 -0.518139 11,000 161 290 128
2020-02-19 10:06:07 GMT 51.705048 -0.518139 11,000 155 293 128
2020-02-19 10:06:04 GMT 51.709854 -0.521702 10,975 145 297 0
2020-02-19 10:06:01 GMT 51.712879 -0.524597 10,975 145 297 64
2020-02-19 10:05:58 GMT 51.716171 -0.528531 10,975 141 298 0
2020-02-19 10:05:54 GMT 51.720932 -0.536029 10,975 121 301 0
2020-02-19 10:05:51 GMT 51.723167 -0.540619 10,975 125 301 -128
2020-02-19 10:05:48 GMT 51.725681 -0.546722 11,000 119 300 64
2020-02-19 10:05:45 GMT 51.727356 -0.551376 10,975 118 300 64
2020-02-19 10:05:42 GMT 51.729637 -0.558014 10,975 118 299 64
2020-02-19 10:05:39 GMT 51.732014 -0.565109 10,975 118 298 64
2020-02-19 10:05:36 GMT 51.733337 -0.569062 10,975 118 298 64
2020-02-19 10:05:33 GMT 51.735901 -0.576708 10,975 118 298 64
2020-02-19 10:05:30 GMT 51.737915 -0.582795 10,975 118 299 64
2020-02-19 10:05:27 GMT 51.739880 -0.588684 10,975 118 299 0
2020-02-19 10:05:24 GMT 51.741508 -0.593567 10,975 117 299 0
2020-02-19 10:05:21 GMT 51.745049 -0.604477 10,975 117 301 -64
2020-02-19 10:05:18 GMT 51.745049 -0.604477 10,975 117 301 -64
2020-02-19 10:05:15 GMT 51.746910 -0.610199 10,975 116 301 -64
2020-02-19 10:05:12 GMT 51.748726 -0.615997 11,000 116 302 -64
2020-02-19 10:05:09 GMT 51.750912 -0.623093 11,000 116 301 -128
2020-02-19 10:05:06 GMT 51.753113 -0.630303 11,000 116 301 -128
2020-02-19 10:05:03 GMT 51.756409 -0.641735 11,000 114 300 -64
2020-02-19 10:05:00 GMT 51.756409 -0.641735 11,000 45 263 64
2020-02-19 10:04:57 GMT 51.757828 -0.646783 10,975 113 298 64
2020-02-19 10:04:54 GMT 51.761536 -0.660664 11,000 113 298 64
2020-02-19 10:04:51 GMT 51.761536 -0.660664 11,000 111 297 64
2020-02-19 10:04:48 GMT 51.762726 -0.665861 11,000 109 297 0
2020-02-19 10:04:45 GMT 51.764008 -0.672393 11,000 105 296 0
2020-02-19 10:04:42 GMT 51.765251 -0.683594 10,975 71 280 -64
2020-02-19 10:04:39 GMT 51.765251 -0.683594 10,975 93 291 64
2020-02-19 10:04:36 GMT 51.765388 -0.692673 10,975 77 283 0
2020-02-19 10:04:33 GMT 51.765152 -0.696890 11,000 79 284 0
2020-02-19 10:04:30 GMT 51.764366 -0.704422 10,975 75 282 -64
2020-02-19 10:04:27 GMT 51.762226 -0.715179 11,000 59 273 0
2020-02-19 10:04:24 GMT 51.759804 -0.723038 11,000 66 277 0
2020-02-19 10:04:21 GMT 51.759804 -0.723038 11,000 55 270 0
2020-02-19 10:04:18 GMT 51.758057 -0.727473 11,000 21 249 0
2020-02-19 10:04:15 GMT 51.755722 -0.732372 11,000 52 268 64
2020-02-19 10:04:12 GMT 51.753799 -0.735931 10,975 47 264 64
2020-02-19 10:04:09 GMT 51.750961 -0.740167 10,975 40 260 0
2020-02-19 10:04:06 GMT 51.745148 -0.746848 10,975 30 254 0
2020-02-19 10:04:03 GMT 51.745148 -0.746848 11,000 28 253 0
2020-02-19 10:04:00 GMT 51.741943 -0.749520 11,000 21 249 0
2020-02-19 10:03:57 GMT 51.739426 -0.751227 10,975 12 242 0
2020-02-19 10:03:54 GMT 51.735413 -0.753403 11,000 17 246 0
2020-02-19 10:03:51 GMT 51.733337 -0.754197 10,975 8 240 64
2020-02-19 10:03:48 GMT 51.728714 -0.755384 10,975 5 239 64
2020-02-19 10:03:45 GMT 51.725636 -0.755768 10,975 357 235 0
2020-02-19 10:03:42 GMT 51.723026 -0.755768 10,975 354 234 -64
2020-02-19 10:03:39 GMT 51.718792 -0.755234 11,000 344 230 -128
2020-02-19 10:03:36 GMT 51.716789 -0.754700 11,000 348 232 -128
2020-02-19 10:03:33 GMT 51.713425 -0.753528 11,000 333 225 64
2020-02-19 10:03:30 GMT 51.706421 -0.749594 11,000 340 228 -64
2020-02-19 10:03:27 GMT 51.706421 -0.749594 11,000 335 226 0
2020-02-19 10:03:24 GMT 51.704128 -0.747910 11,000 333 225 64
2020-02-19 10:03:21 GMT 51.701752 -0.745883 11,000 331 224 64
2020-02-19 10:03:18 GMT 51.699509 -0.743804 11,000 328 224 192
2020-02-19 10:03:15 GMT 51.696121 -0.740241 11,000 327 224 192
2020-02-19 10:03:12 GMT 51.693932 -0.737610 10,975 320 224 64
2020-02-19 10:03:08 GMT 51.690720 -0.732892 10,975 311 224 -64
2020-02-19 10:03:05 GMT 51.689163 -0.730071 10,975 307 225 -128
2020-02-19 10:03:02 GMT 51.687138 -0.725403 11,000 297 225 64
2020-02-19 10:02:59 GMT 51.685738 -0.721512 11,000 298 225 0
2020-02-19 10:02:56 GMT 51.682846 -0.712404 10,975 297 224 64
2020-02-19 10:02:50 GMT 51.681061 -0.706540 10,975 297 224 64
2020-02-19 10:02:47 GMT 51.680008 -0.703051 10,975 296 225 0
2020-02-19 10:02:44 GMT 51.678383 -0.697632 10,975 296 224 0
2020-02-19 10:02:41 GMT 51.676895 -0.692673 10,975 296 224 0
2020-02-19 10:02:38 GMT 51.674240 -0.683454 10,975 295 225 0
2020-02-19 10:02:35 GMT 51.674240 -0.683454 10,975 295 224 0
2020-02-19 10:02:32 GMT 51.672867 -0.678777 11,000 295 225 -64
2020-02-19 10:02:29 GMT 51.670578 -0.670537 11,000 295 225 -64
2020-02-19 10:02:26 GMT 51.670578 -0.670537 11,000 295 224 -64
2020-02-19 10:02:23 GMT 51.669308 -0.665970 11,000 294 225 -64
2020-02-19 10:02:20 GMT 51.667912 -0.660934 11,000 294 224 -64
2020-02-19 10:02:17 GMT 51.666653 -0.656204 11,000 292 224 -64
2020-02-19 10:02:14 GMT 51.665398 -0.651398 11,000 290 225 -64
2020-02-19 10:02:11 GMT 51.664764 -0.648787 11,000 291 224 0
2020-02-19 10:02:08 GMT 51.663528 -0.643443 11,000 289 225 64
2020-02-19 10:02:05 GMT 51.662521 -0.638840 11,000 289 226 64
2020-02-19 10:02:02 GMT 51.661514 -0.633941 11,000 289 225 64
2020-02-19 10:01:59 GMT 51.660095 -0.627408 11,000 290 225 0
2020-02-19 10:01:56 GMT 51.659252 -0.623856 11,000 293 225 -64
2020-02-19 10:01:53 GMT 51.658180 -0.620041 11,000 293 225 0
2020-02-19 10:01:50 GMT 51.656273 -0.613937 11,000 299 224 64
2020-02-19 10:01:47 GMT 51.654968 -0.610112 10,975 297 224 64
2020-02-19 10:01:44 GMT 51.653824 -0.606401 10,975 294 224 0
2020-02-19 10:01:41 GMT 51.652405 -0.600982 10,975 291 225 0
2020-02-19 10:01:38 GMT 51.651291 -0.595245 10,975 278 227 0
2020-02-19 10:01:35 GMT 51.650127 -0.585251 10,975 279 227 0
2020-02-19 10:01:32 GMT 51.649895 -0.580368 11,000 275 228 0
2020-02-19 10:01:29 GMT 51.649895 -0.580368 11,000 262 231 -64
2020-02-19 10:01:26 GMT 51.649887 -0.576634 11,000 266 230 0
2020-02-19 10:01:23 GMT 51.650070 -0.571363 11,000 251 236 -64
2020-02-19 10:01:20 GMT 51.650684 -0.564880 11,000 242 240 0
2020-02-19 10:01:17 GMT 51.651199 -0.561523 11,000 255 234 -64
2020-02-19 10:01:14 GMT 51.653759 -0.550156 11,000 247 238 0
2020-02-19 10:01:08 GMT 51.657108 -0.540619 11,000 240 241 0
2020-02-19 10:01:05 GMT 51.657108 -0.540619 11,000 231 245 0
2020-02-19 10:01:02 GMT 51.658447 -0.537736 11,000 222 250 0
2020-02-19 10:00:59 GMT 51.661011 -0.532837 11,000 227 247 64
2020-02-19 10:00:56 GMT 51.663441 -0.528946 10,975 222 250 0
2020-02-19 10:00:53 GMT 51.665070 -0.526581 11,000 213 258 -576
2020-02-19 10:00:50 GMT 51.671310 -0.519921 11,025 211 260 -704
2020-02-19 10:00:47 GMT 51.675659 -0.516803 11,100 202 267 -1088
2020-02-19 10:00:44 GMT 51.675659 -0.516803 11,150 198 269 -1152
2020-02-19 10:00:41 GMT 51.678864 -0.515095 11,200 191 275 -1088
2020-02-19 10:00:38 GMT 51.681931 -0.513982 11,225 189 276 -1088
2020-02-19 10:00:35 GMT 51.686485 -0.513000 11,250 183 280 -1024
2020-02-19 10:00:32 GMT 51.691132 -0.512869 11,300 179 282 -1024
2020-02-19 10:00:29 GMT 51.693745 -0.513153 11,875 166 290 -1024
2020-02-19 10:00:26 GMT 51.698589 -0.514450 11,425 166 290 -1024
2020-02-19 10:00:23 GMT 51.702869 -0.516357 11,500 157 295 -1024
2020-02-19 10:00:20 GMT 51.706146 -0.518436 11,525 155 296 -1024
2020-02-19 10:00:17 GMT 51.709946 -0.521479 11,550 149 299 -1088
2020-02-19 10:00:13 GMT 51.714203 -0.526082 11,625 136 302 -1088
2020-02-19 10:00:10 GMT 51.716743 -0.529556 11,675 138 302 -1088
2020-02-19 10:00:07 GMT 51.722946 -0.540854 11,850 127 304 -960
2020-02-19 10:00:04 GMT 51.722946 -0.540854 11,825 124 304 -896
2020-02-19 10:00:01 GMT 51.727295 -0.551989 11,850 119 305 -768
2020-02-19 09:59:58 GMT 51.727295 -0.551989 11,975 118 305 -704
2020-02-19 09:59:55 GMT 51.729313 -0.557938 11,925 118 306 -704
2020-02-19 09:59:52 GMT 51.731003 -0.562975 11,950 118 304 64
2020-02-19 09:59:49 GMT 51.733501 -0.570374 11,975 116 304 -1024
2020-02-19 09:59:46 GMT 51.735596 -0.576553 11,975 117 303 -512
2020-02-19 09:59:43 GMT 51.737457 -0.581970 12,000 118 305 64
2020-02-19 09:59:37 GMT 51.742065 -0.595474 11,975 118 303 0
2020-02-19 09:59:34 GMT 51.743591 -0.600017 11,975 118 302 0
2020-02-19 09:59:31 GMT 51.745285 -0.604990 11,975 118 302 0
2020-02-19 09:59:28 GMT 51.747482 -0.611523 11,975 118 302 -256
2020-02-19 09:59:24 GMT 51.749470 -0.617523 12,000 117 303 -448
2020-02-19 09:59:21 GMT 51.752029 -0.625534 12,075 116 304 -1088
2020-02-19 09:59:18 GMT 51.753983 -0.631862 12,100 115 303 -1152
2020-02-19 09:59:15 GMT 51.755768 -0.637727 12,175 114 303 -1088
2020-02-19 09:59:12 GMT 51.757370 -0.643220 12,175 114 303 -1088
2020-02-19 09:59:09 GMT 51.761341 -0.657425 12,375 113 303 -1024
2020-02-19 09:59:06 GMT 51.763203 -0.664520 12,350 112 303 -1024
2020-02-19 09:59:02 GMT 51.763203 -0.664520 12,375 110 303 -1024
2020-02-19 09:58:59 GMT 51.764366 -0.669632 12,450 107 303 -1024
2020-02-19 09:58:56 GMT 51.765858 -0.677567 12,500 96 301 -960
2020-02-19 09:58:53 GMT 51.766525 -0.682860 12,525 96 301 -960
2020-02-19 09:58:50 GMT 51.767029 -0.691990 12,600 90 301 -896
2020-02-19 09:58:47 GMT 51.767017 -0.697403 12,625 86 299 -896
2020-02-19 09:58:44 GMT 51.766460 -0.705109 12,675 76 296 -896
2020-02-19 09:58:41 GMT 51.765701 -0.711142 12,775 69 293 -896
2020-02-19 09:58:35 GMT 51.763435 -0.721664 12,800 63 291 -832
2020-02-19 09:58:31 GMT 51.760391 -0.731036 12,875 52 285 -704
2020-02-19 09:58:28 GMT 51.758640 -0.735092 12,925 50 284 -704
2020-02-19 09:58:25 GMT 51.756363 -0.739647 12,925 47 282 -640
2020-02-19 09:58:22 GMT 51.753525 -0.744324 12,950 40 277 -448
2020-02-19 09:58:19 GMT 51.750633 -0.748367 13,000 35 274 -256
2020-02-19 09:58:16 GMT 51.743881 -0.755386 12,975 355 250 -64
2020-02-19 09:58:13 GMT 51.743881 -0.755386 12,975 23 266 0
2020-02-19 09:58:10 GMT 51.740067 -0.758205 12,975 16 261 0
2020-02-19 09:58:07 GMT 51.737087 -0.759888 12,975 16 261 0
2020-02-19 09:58:04 GMT 51.733501 -0.761490 12,975 9 257 0
2020-02-19 09:58:01 GMT 51.730453 -0.762436 12,975 348 246 -128
2020-02-19 09:57:58 GMT 51.726238 -0.763168 12,975 5 255 0
2020-02-19 09:57:55 GMT 51.719955 -0.763016 12,975 356 250 -64
2020-02-19 09:57:52 GMT 51.719955 -0.763016 12,975 352 248 -64
2020-02-19 09:57:49 GMT 51.716324 -0.762253 13,000 349 246 -64
2020-02-19 09:57:46 GMT 51.712830 -0.761100 13,000 336 239 0
2020-02-19 09:57:43 GMT 51.708618 -0.759022 13,000 339 241 -64
2020-02-19 09:57:40 GMT 51.706512 -0.757760 13,000 336 239 0
2020-02-19 09:57:37 GMT 51.702667 -0.755013 13,000 336 239 0
2020-02-19 09:57:34 GMT 51.701382 -0.754013 13,000 333 238 64
2020-02-19 09:57:31 GMT 51.697144 -0.750275 12,975 296 230 -64
2020-02-19 09:57:28 GMT 51.695206 -0.748332 12,975 325 236 192
2020-02-19 09:57:25 GMT 51.691544 -0.743953 12,975 322 234 64
2020-02-19 09:57:22 GMT 51.689529 -0.741058 12,975 307 232 -64
2020-02-19 09:57:19 GMT 51.687088 -0.736694 12,975 307 232 -64
2020-02-19 09:57:16 GMT 51.685638 -0.733486 12,975 303 231 -64
2020-02-19 09:57:13 GMT 51.684017 -0.729065 12,975 299 230 0
2020-02-19 09:57:10 GMT 51.682667 -0.724945 12,975 297 231 64
2020-02-19 09:57:07 GMT 51.680759 -0.718765 13,000 295 230 0
2020-02-19 09:57:04 GMT 51.679314 -0.714035 12,975 296 230 0
2020-02-19 09:57:00 GMT 51.676056 -0.703201 12,975 296 230 -64
2020-02-19 09:56:56 GMT 51.674698 -0.698523 13,000 295 230 0
2020-02-19 09:56:53 GMT 51.674698 -0.698523 13,000 295 230 -64
2020-02-19 09:56:50 GMT 51.673233 -0.693401 13,000 295 230 0
2020-02-19 09:56:47 GMT 51.671677 -0.687982 13,000 295 230 0
2020-02-19 09:56:44 GMT 51.670395 -0.683454 13,000 295 230 0
2020-02-19 09:56:41 GMT 51.669399 -0.680008 13,000 295 230 0
2020-02-19 09:56:38 GMT 51.667648 -0.673803 13,000 294 230 -128
2020-02-19 09:56:35 GMT 51.666321 -0.668978 13,000 294 229 -64
2020-02-19 09:56:32 GMT 51.664993 -0.664079 13,000 294 230 -128
2020-02-19 09:56:29 GMT 51.664215 -0.661110 13,000 291 229 -64
2020-02-19 09:56:26 GMT 51.662750 -0.655245 13,000 291 229 -64
2020-02-19 09:56:23 GMT 51.661835 -0.651237 13,000 290 228 64
2020-02-19 09:56:20 GMT 51.660736 -0.646263 13,000 289 229 128
2020-02-19 09:56:17 GMT 51.659672 -0.641098 13,000 288 229 64
2020-02-19 09:56:14 GMT 51.658787 -0.636749 13,000 296 229 -64
2020-02-19 09:56:11 GMT 51.657715 -0.631862 13,000 291 229 0
2020-02-19 09:56:08 GMT 51.656158 -0.625775 13,000 296 229 -64
2020-02-19 09:56:05 GMT 51.655197 -0.622583 13,000 298 228 0
2020-02-19 09:56:02 GMT 51.653198 -0.616531 12,975 300 229 64
2020-02-19 09:55:59 GMT 51.652222 -0.613708 12,975 290 229 0
2020-02-19 09:55:56 GMT 51.650803 -0.609222 12,975 294 228 0
2020-02-19 09:55:53 GMT 51.649101 -0.602646 12,975 289 228 0
2020-02-19 09:55:50 GMT 51.648453 -0.599594 12,975 282 229 0
2020-02-19 09:55:47 GMT 51.647690 -0.594969 12,975 275 231 0
2020-02-19 09:55:44 GMT 51.646961 -0.588913 12,975 253 238 0
2020-02-19 09:55:38 GMT 51.646500 -0.579900 13,000 269 233 -64
2020-02-19 09:55:35 GMT 51.646961 -0.569000 13,000 263 234 0
2020-02-19 09:55:32 GMT 51.646961 -0.569000 13,000 260 235 0
2020-02-19 09:55:29 GMT 51.647518 -0.563965 13,000 256 237 0
2020-02-19 09:55:26 GMT 51.648312 -0.559082 13,000 252 238 0
2020-02-19 09:55:23 GMT 51.649662 -0.552902 13,000 238 245 0
2020-02-19 09:55:20 GMT 51.650826 -0.548782 13,000 246 242 0
2020-02-19 09:55:17 GMT 51.652363 -0.544128 13,000 238 245 0
2020-02-19 09:55:14 GMT 51.656342 -0.534990 13,000 195 276 -64
2020-02-19 09:55:11 GMT 51.656342 -0.534990 13,000 222 256 0
2020-02-19 09:55:08 GMT 51.659157 -0.530014 13,000 224 254 0
2020-02-19 09:55:05 GMT 51.661903 -0.526123 13,000 221 256 0
2020-02-19 09:55:02 GMT 51.663673 -0.523911 13,000 162 296 128
2020-02-19 09:54:59 GMT 51.668282 -0.519104 13,000 211 264 0
2020-02-19 09:54:55 GMT 51.671127 -0.516803 13,000 204 269 0
2020-02-19 09:54:52 GMT 51.675705 -0.513982 13,000 188 281 -64
2020-02-19 09:54:49 GMT 51.678383 -0.512848 13,000 190 280 -64
2020-02-19 09:54:46 GMT 51.682709 -0.511532 13,000 186 282 -64
2020-02-19 09:54:43 GMT 51.686737 -0.511013 13,000 184 283 -64
2020-02-19 09:54:40 GMT 51.691086 -0.511161 13,000 170 291 0
2020-02-19 09:54:37 GMT 51.695095 -0.512009 13,000 170 291 0
2020-02-19 09:54:34 GMT 51.697842 -0.512924 13,000 155 300 192
2020-02-19 09:54:31 GMT 51.702965 -0.515366 12,975 155 300 192
2020-02-19 09:54:28 GMT 51.709248 -0.520020 12,975 137 308 -64
2020-02-19 09:54:25 GMT 51.709248 -0.520020 12,975 145 305 64
2020-02-19 09:54:22 GMT 51.712784 -0.523632 12,975 143 305 0
2020-02-19 09:54:19 GMT 51.716232 -0.527954 12,975 131 310 -128
2020-02-19 09:54:16 GMT 51.719788 -0.533579 12,975 129 310 -128
2020-02-19 09:54:13 GMT 51.723312 -0.540557 13,000 124 310 -64
2020-02-19 09:54:10 GMT 51.725235 -0.545382 13,000 119 310 0
2020-02-19 09:54:07 GMT 51.726883 -0.549762 13,000 118 310 64
2020-02-19 09:54:04 GMT 51.729034 -0.556072 12,975 118 310 64
2020-02-19 09:54:01 GMT 51.731003 -0.561936 12,975 118 310 64
2020-02-19 09:53:58 GMT 51.733643 -0.569916 12,975 118 311 64
2020-02-19 09:53:55 GMT 51.734940 -0.573739 12,975 118 312 64
2020-02-19 09:53:52 GMT 51.739792 -0.588288 12,975 118 312 0
2020-02-19 09:53:49 GMT 51.739792 -0.588288 12,975 118 313 64
2020-02-19 09:53:46 GMT 51.741974 -0.594864 12,975 118 312 0
2020-02-19 09:53:43 GMT 51.743324 -0.598984 12,975 117 313 0
2020-02-19 09:53:40 GMT 51.745377 -0.605139 12,975 117 314 -64
2020-02-19 09:53:37 GMT 51.747437 -0.611523 12,975 117 314 -64
2020-02-19 09:53:34 GMT 51.749817 -0.619020 12,975 116 313 -128
2020-02-19 09:53:31 GMT 51.753387 -0.630526 13,000 116 314 -128
2020-02-19 09:53:25 GMT 51.755493 -0.637504 13,000 115 312 0
2020-02-19 09:53:22 GMT 51.757416 -0.643962 13,000 115 312 0
2020-02-19 09:53:19 GMT 51.758640 -0.648193 13,000 115 312 0
2020-02-19 09:53:16 GMT 51.761261 -0.657472 13,000 114 311 128
2020-02-19 09:53:13 GMT 51.762497 -0.661926 13,000 113 310 192
2020-02-19 09:53:10 GMT 51.765388 -0.674210 12,975 90 305 0
2020-02-19 09:53:04 GMT 51.766479 -0.680855 12,975 95 306 0
2020-02-19 09:53:01 GMT 51.767303 -0.688798 12,975 92 305 0
2020-02-19 09:52:58 GMT 51.767487 -0.694663 12,975 88 304 0
2020-02-19 09:52:55 GMT 51.767345 -0.701675 12,975 67 294 -64
2020-02-19 09:52:52 GMT 51.766846 -0.708321 12,975 76 298 0
2020-02-19 09:52:49 GMT 51.765793 -0.715893 12,975 68 295 -64
2020-02-19 09:52:46 GMT 51.764645 -0.721359 12,975 60 290 0
2020-02-19 09:52:43 GMT 51.762737 -0.728378 13,000 60 290 0
2020-02-19 09:52:40 GMT 51.760826 -0.733795 13,000 53 286 0
2020-02-19 09:52:37 GMT 51.758606 -0.739127 12,975 48 282 0
2020-02-19 09:52:34 GMT 51.756779 -0.742722 13,000 48 282 0
2020-02-19 09:52:31 GMT 51.752838 -0.749297 13,000 40 276 64
2020-02-19 09:52:28 GMT 51.750305 -0.752792 12,975 36 274 64
2020-02-19 09:52:25 GMT 51.747208 -0.756349 12,975 28 270 64
2020-02-19 09:52:22 GMT 51.745510 -0.758057 12,975 27 269 0
2020-02-19 09:52:19 GMT 51.741230 -0.761642 12,975 9 261 0
2020-02-19 09:52:16 GMT 51.734619 -0.765305 12,975 11 261 0
2020-02-19 09:52:10 GMT 51.729767 -0.766964 12,975 7 260 0
2020-02-19 09:52:07 GMT 51.726105 -0.767558 12,975 2 257 0
2020-02-19 09:52:04 GMT 51.723129 -0.767781 12,975 356 254 0
2020-02-19 09:52:01 GMT 51.720654 -0.767670 12,975 352 252 0
2020-02-19 09:51:58 GMT 51.716080 -0.766890 12,975 349 251 -64
2020-02-19 09:51:55 GMT 51.712143 -0.765628 13,000 348 250 -64
2020-02-19 09:51:52 GMT 51.709248 -0.764313 13,000 342 247 -128
2020-02-19 09:51:48 GMT 51.704773 -0.761620 13,000 336 244 -64
2020-02-19 09:51:45 GMT 51.702267 -0.759888 13,000 333 242 0
2020-02-19 09:51:42 GMT 51.698685 -0.756869 13,000 331 241 64
2020-02-19 09:51:39 GMT 51.696075 -0.754419 13,000 328 239 128
2020-02-19 09:51:36 GMT 51.693840 -0.752106 13,000 327 239 128
2020-02-19 09:51:33 GMT 51.690308 -0.747887 12,975 323 238 128
2020-02-19 09:51:30 GMT 51.688625 -0.745544 12,975 318 237 64
2020-02-19 09:51:27 GMT 51.685787 -0.740891 12,975 308 236 -64
2020-02-19 09:51:24 GMT 51.683533 -0.736158 12,975 302 235 0
2020-02-19 09:51:21 GMT 51.682621 -0.733795 12,975 299 235 0
2020-02-19 09:51:18 GMT 51.681107 -0.729552 12,975 297 235 0
2020-02-19 09:51:15 GMT 51.679413 -0.724058 12,975 297 236 0
2020-02-19 09:51:12 GMT 51.677536 -0.717897 12,975 297 236 0
2020-02-19 09:51:09 GMT 51.676571 -0.714798 12,975 296 236 -64
2020-02-19 09:51:06 GMT 51.673508 -0.704461 13,000 296 236 -64
2020-02-19 09:51:03 GMT 51.673508 -0.704461 13,000 296 236 -64
2020-02-19 09:51:00 GMT 51.672379 -0.700607 13,000 296 236 -64
2020-02-19 09:50:57 GMT 51.670532 -0.694291 13,000 295 236 0
2020-02-19 09:50:53 GMT 51.668747 -0.688019 13,000 295 236 64
2020-02-19 09:50:50 GMT 51.667164 -0.682449 13,000 295 234 64
2020-02-19 09:50:47 GMT 51.666275 -0.679297 13,000 295 233 64
2020-02-19 09:50:44 GMT 51.665115 -0.675125 13,000 295 233 64
2020-02-19 09:50:41 GMT 51.662567 -0.665935 12,975 294 232 0
2020-02-19 09:50:35 GMT 51.660599 -0.658289 13,025 290 234 -1280
2020-02-19 09:50:32 GMT 51.659637 -0.654280 13,050 291 233 -576
2020-02-19 09:50:29 GMT 51.658974 -0.651169 13,050 289 233 -832
2020-02-19 09:50:26 GMT 51.657715 -0.645447 13,100 288 234 -1088
2020-02-19 09:50:23 GMT 51.656799 -0.640770 13,125 289 233 -1216
2020-02-19 09:50:20 GMT 51.654594 -0.631180 13,250 291 234 -1344
2020-02-19 09:50:17 GMT 51.654594 -0.631180 13,500 297 233 -1344
2020-02-19 09:50:14 GMT 51.653107 -0.625839 13,350 299 233 -1216
2020-02-19 09:50:10 GMT 51.651012 -0.619507 13,575 299 233 -1088
2020-02-19 09:50:07 GMT 51.648102 -0.610855 13,500 298 233 -1088
2020-02-19 09:50:01 GMT 51.646820 -0.606252 13,750 284 234 -896
2020-02-19 09:49:58 GMT 51.645519 -0.600433 13,650 286 234 -960
2020-02-19 09:49:55 GMT 51.644821 -0.596542 13,675 284 234 -896
2020-02-19 09:49:52 GMT 51.643982 -0.589905 13,750 279 235 -832
2020-02-19 09:49:49 GMT 51.643517 -0.580063 14,000 267 239 -768
2020-02-19 09:49:46 GMT 51.643517 -0.580063 13,825 270 239 -768
2020-02-19 09:49:43 GMT 51.643570 -0.575520 13,975 248 251 -320
2020-02-19 09:49:40 GMT 51.643936 -0.569458 13,900 258 244 -640
2020-02-19 09:49:37 GMT 51.644772 -0.562515 13,925 258 244 -576
2020-02-19 09:49:33 GMT 51.645519 -0.558167 13,975 240 257 -64
2020-02-19 09:49:30 GMT 51.646820 -0.552583 13,975 246 252 -256
2020-02-19 09:49:27 GMT 51.648170 -0.547791 13,975 243 254 -128
2020-02-19 09:49:24 GMT 51.649979 -0.542487 14,000 237 259 0
2020-02-19 09:49:21 GMT 51.651848 -0.538025 14,000 234 261 0
2020-02-19 09:49:18 GMT 51.656662 -0.529200 14,000 219 272 -64
2020-02-19 09:49:15 GMT 51.656662 -0.529200 14,000 219 272 -64
2020-02-19 09:49:12 GMT 51.659363 -0.525339 14,000 219 272 -64
2020-02-19 09:49:09 GMT 51.663998 -0.520020 14,000 214 275 -64
2020-02-19 09:49:06 GMT 51.666607 -0.517731 14,000 210 278 -64
2020-02-19 09:49:02 GMT 51.671356 -0.514353 14,000 198 286 0
2020-02-19 09:48:59 GMT 51.675125 -0.512390 14,000 191 290 0
2020-02-19 09:48:56 GMT 51.679688 -0.510788 14,000 190 290 64
2020-02-19 09:48:53 GMT 51.681702 -0.510345 14,000 181 295 0
2020-02-19 09:48:50 GMT 51.685738 -0.509872 14,000 183 294 0
2020-02-19 09:48:47 GMT 51.690907 -0.510101 14,000 169 302 -256
2020-02-19 09:48:44 GMT 51.694611 -0.510938 14,000 167 303 -256
2020-02-19 09:48:41 GMT 51.698727 -0.512466 14,000 163 306 -512
2020-02-19 09:48:38 GMT 51.701569 -0.513840 14,050 136 319 -1216
2020-02-19 09:48:35 GMT 51.707657 -0.518436 14,100 132 319 -1216
2020-02-19 09:48:32 GMT 51.709759 -0.520401 14,300 148 315 -1152
2020-02-19 09:48:29 GMT 51.714371 -0.525818 14,300 130 319 -1152
2020-02-19 09:48:26 GMT 51.717720 -0.530853 14,275 132 319 -1216
2020-02-19 09:48:23 GMT 51.719879 -0.534693 14,350 125 320 -1152
2020-02-19 09:48:20 GMT 51.722561 -0.540390 14,400 122 320 -1152
2020-02-19 09:48:17 GMT 51.725681 -0.548248 14,450 119 320 -1088
2020-02-19 09:48:14 GMT 51.727173 -0.552597 14,525 117 321 -1024
2020-02-19 09:48:11 GMT 51.729767 -0.560674 14,575 117 321 -1024
2020-02-19 09:48:08 GMT 51.731873 -0.567281 14,600 117 322 -1024
2020-02-19 09:48:05 GMT 51.733429 -0.572180 14,700 117 323 -832
2020-02-19 09:48:02 GMT 51.735580 -0.578786 14,725 117 322 -1024
2020-02-19 09:47:59 GMT 51.737732 -0.585393 14,775 117 323 -896
2020-02-19 09:47:56 GMT 51.740112 -0.592575 14,800 117 323 -896
2020-02-19 09:47:53 GMT 51.744370 -0.605584 14,975 117 324 64
2020-02-19 09:47:50 GMT 51.744370 -0.605584 14,975 118 325 -128
2020-02-19 09:47:47 GMT 51.747116 -0.613972 14,975 118 325 -576
2020-02-19 09:47:44 GMT 51.748260 -0.617371 14,975 118 325 -384
2020-02-19 09:47:41 GMT 51.750259 -0.623322 14,975 118 325 -320
2020-02-19 09:47:38 GMT 51.752773 -0.631027 14,975 118 325 0
2020-02-19 09:47:35 GMT 51.754532 -0.636390 14,975 117 324 64
2020-02-19 09:47:32 GMT 51.756317 -0.641735 14,975 117 324 64
2020-02-19 09:47:29 GMT 51.758686 -0.648956 14,975 116 325 -64
2020-02-19 09:47:26 GMT 51.760735 -0.655136 14,975 117 325 0
2020-02-19 09:47:23 GMT 51.763527 -0.663757 14,975 117 325 0
2020-02-19 09:47:19 GMT 51.766087 -0.671692 14,975 117 325 -64
2020-02-19 09:47:15 GMT 51.768787 -0.680084 14,975 116 325 -64
2020-02-19 09:47:12 GMT 51.770370 -0.685309 15,000 116 325 -64
2020-02-19 09:47:09 GMT 51.773026 -0.694046 15,000 115 326 -128
2020-02-19 09:47:06 GMT 51.774490 -0.698820 15,000 115 325 -128
2020-02-19 09:47:03 GMT 51.776516 -0.705872 15,000 109 323 0
2020-02-19 09:47:00 GMT 51.778473 -0.712662 15,000 114 323 64
2020-02-19 09:46:57 GMT 51.782288 -0.726242 15,000 114 323 128
2020-02-19 09:46:54 GMT 51.782288 -0.726242 15,000 113 323 128
2020-02-19 09:46:51 GMT 51.785732 -0.740128 14,975 109 323 0
2020-02-19 09:46:48 GMT 51.785732 -0.740128 14,975 106 321 0
2020-02-19 09:46:45 GMT 51.787689 -0.752640 14,975 102 320 0
2020-02-19 09:46:42 GMT 51.787689 -0.752640 14,975 97 318 0
2020-02-19 09:46:39 GMT 51.788200 -0.759201 14,975 82 311 0
2020-02-19 09:46:36 GMT 51.788040 -0.775130 14,975 84 312 0
2020-02-19 09:46:30 GMT 51.786530 -0.787081 14,975 74 306 0
2020-02-19 09:46:27 GMT 51.786530 -0.787081 14,975 67 302 0
2020-02-19 09:46:24 GMT 51.785221 -0.793533 14,975 64 300 0
2020-02-19 09:46:21 GMT 51.783600 -0.799701 14,975 51 292 0
2020-02-19 09:46:18 GMT 51.781403 -0.806427 14,975 57 295 0
2020-02-19 09:46:15 GMT 51.778889 -0.812454 14,975 52 293 0
2020-02-19 09:46:12 GMT 51.774582 -0.820708 14,975 38 283 0
2020-02-19 09:46:06 GMT 51.771606 -0.825237 14,975 35 281 0
2020-02-19 09:46:03 GMT 51.768322 -0.829391 14,975 35 281 0
2020-02-19 09:46:00 GMT 51.764736 -0.833206 15,000 24 275 -64
2020-02-19 09:45:56 GMT 51.760689 -0.836639 15,000 344 254 -64
2020-02-19 09:45:53 GMT 51.755997 -0.839638 15,000 16 270 0
2020-02-19 09:45:50 GMT 51.752636 -0.841217 15,000 9 265 0
2020-02-19 09:45:47 GMT 51.750214 -0.842133 15,000 10 266 0
2020-02-19 09:45:44 GMT 51.741898 -0.843720 14,975 1 261 64
2020-02-19 09:45:38 GMT 51.738373 -0.843795 15,000 354 257 0
2020-02-19 09:45:35 GMT 51.731506 -0.842681 15,000 347 255 -64
2020-02-19 09:45:32 GMT 51.731506 -0.842681 14,975 350 256 -64
2020-02-19 09:45:29 GMT 51.729172 -0.841980 14,975 347 255 -64
2020-02-19 09:45:26 GMT 51.721664 -0.838301 15,000 341 252 -64
2020-02-19 09:45:23 GMT 51.721664 -0.838301 15,000 336 250 -64
2020-02-19 09:45:20 GMT 51.717545 -0.835481 15,000 334 249 0
2020-02-19 09:45:17 GMT 51.715672 -0.834045 15,000 332 247 64
2020-02-19 09:45:14 GMT 51.712830 -0.831620 15,000 330 247 64
2020-02-19 09:45:11 GMT 51.709488 -0.828429 15,000 323 247 128
2020-02-19 09:45:08 GMT 51.706558 -0.825237 14,975 324 246 192
2020-02-19 09:45:05 GMT 51.701248 -0.818259 14,975 301 246 0
2020-02-19 09:45:02 GMT 51.697983 -0.812454 14,975 314 246 -64
2020-02-19 09:44:59 GMT 51.697983 -0.812454 14,975 304 245 -64
2020-02-19 09:44:55 GMT 51.696213 -0.808386 14,975 301 246 -64
2020-02-19 09:44:52 GMT 51.693924 -0.802076 15,000 298 246 0
2020-02-19 09:44:49 GMT 51.693100 -0.799478 14,975 298 246 0
2020-02-19 09:44:46 GMT 51.689209 -0.787452 14,975 298 246 0
2020-02-19 09:44:42 GMT 51.689209 -0.787452 14,975 298 246 0
2020-02-19 09:44:39 GMT 51.687149 -0.780920 14,975 298 245 0
2020-02-19 09:44:36 GMT 51.683945 -0.770825 14,975 297 246 0
2020-02-19 09:44:33 GMT 51.683945 -0.770825 14,975 297 246 0
2020-02-19 09:44:30 GMT 51.683212 -0.768523 14,975 268 247 -384
2020-02-19 09:44:27 GMT 51.681061 -0.761694 14,975 297 246 0
2020-02-19 09:44:24 GMT 51.678177 -0.752489 14,975 297 247 0
2020-02-19 09:44:21 GMT 51.678177 -0.752489 14,975 297 247 0
2020-02-19 09:44:18 GMT 51.676895 -0.748444 14,975 297 247 0
2020-02-19 09:44:15 GMT 51.675171 -0.742874 14,975 297 246 0
2020-02-19 09:44:12 GMT 51.673645 -0.737866 14,975 297 247 0
2020-02-19 09:44:09 GMT 51.672424 -0.733948 15,000 296 247 -64
2020-02-19 09:44:06 GMT 51.670212 -0.726657 15,000 296 246 -64
2020-02-19 09:44:03 GMT 51.669067 -0.722871 15,000 296 247 -64
2020-02-19 09:44:00 GMT 51.665348 -0.710297 15,000 296 246 -64
2020-02-19 09:43:56 GMT 51.665348 -0.710297 15,000 295 245 64
2020-02-19 09:43:53 GMT 51.664417 -0.706940 15,000 295 244 64
2020-02-19 09:43:50 GMT 51.662659 -0.700824 15,000 295 244 64
2020-02-19 09:43:47 GMT 51.661469 -0.696741 14,975 295 242 64
2020-02-19 09:43:44 GMT 51.660229 -0.692291 15,000 295 242 64
2020-02-19 09:43:41 GMT 51.658356 -0.685680 15,000 294 241 64
2020-02-19 09:43:38 GMT 51.657303 -0.681746 14,975 294 240 0
2020-02-19 09:43:35 GMT 51.655525 -0.675201 14,975 294 240 -128
2020-02-19 09:43:32 GMT 51.654690 -0.671844 15,000 290 242 -1088
2020-02-19 09:43:29 GMT 51.653248 -0.665665 15,225 289 242 -1280
2020-02-19 09:43:25 GMT 51.652081 -0.660400 15,100 289 242 -1216
2020-02-19 09:43:22 GMT 51.650940 -0.654577 15,175 288 242 -1280
2020-02-19 09:43:19 GMT 51.650024 -0.649975 15,275 290 242 -1344
2020-02-19 09:43:16 GMT 51.649101 -0.645523 15,325 292 241 -1408
2020-02-19 09:43:13 GMT 51.647919 -0.640473 15,375 294 241 -1408
2020-02-19 09:43:10 GMT 51.646088 -0.634164 15,450 301 240 -1152
2020-02-19 09:43:07 GMT 51.644669 -0.629932 15,575 301 240 -1152
2020-02-19 09:43:04 GMT 51.643250 -0.626072 15,575 301 240 -1152
2020-02-19 09:43:01 GMT 51.641235 -0.620282 15,650 297 240 -1088
2020-02-19 09:42:57 GMT 51.639908 -0.615977 15,675 278 242 -832
2020-02-19 09:42:54 GMT 51.638260 -0.609593 15,700 293 239 -1088
2020-02-19 09:42:51 GMT 51.637482 -0.605658 15,850 285 240 -1024
2020-02-19 09:42:48 GMT 51.636337 -0.598161 15,850 278 242 -832
2020-02-19 09:42:45 GMT 51.635883 -0.593567 15,950 276 243 -768
2020-02-19 09:42:42 GMT 51.635513 -0.587620 15,925 272 245 -576
2020-02-19 09:42:39 GMT 51.635414 -0.582733 16,000 267 247 -320
2020-02-19 09:42:36 GMT 51.635509 -0.577850 15,975 267 247 -320
2020-02-19 09:42:33 GMT 51.636299 -0.567474 16,000 255 256 -448
2020-02-19 09:42:27 GMT 51.637024 -0.562381 16,100 243 264 -1280
2020-02-19 09:42:24 GMT 51.638535 -0.554661 16,100 234 270 -1280
2020-02-19 09:42:21 GMT 51.639450 -0.551098 16,125 243 264 -1280
2020-02-19 09:42:18 GMT 51.641647 -0.544120 16,175 240 266 -1344
2020-02-19 09:42:15 GMT 51.642929 -0.540706 16,225 236 269 -1344
2020-02-19 09:42:12 GMT 51.645996 -0.533876 16,450 214 284 -1152
2020-02-19 09:42:09 GMT 51.647598 -0.530758 16,450 225 276 -1216
2020-02-19 09:42:06 GMT 51.650803 -0.525488 16,425 222 279 -1216
2020-02-19 09:42:03 GMT 51.653339 -0.521927 16,475 218 282 -1152
2020-02-19 09:42:00 GMT 51.656273 -0.518494 16,500 214 284 -1152
2020-02-19 09:41:57 GMT 51.660919 -0.513982 16,600 207 290 -1088
2020-02-19 09:41:54 GMT 51.663712 -0.511755 16,650 202 294 -1024
2020-02-19 09:41:51 GMT 51.667213 -0.509491 16,675 195 300 -1024
2020-02-19 09:41:48 GMT 51.671307 -0.507431 16,775 193 301 -1024
2020-02-19 09:41:45 GMT 51.680431 -0.505371 16,925 186 307 -960
2020-02-19 09:41:42 GMT 51.680431 -0.505371 16,925 167 318 -512
2020-02-19 09:41:39 GMT 51.684174 -0.505371 16,900 176 312 -768
2020-02-19 09:41:33 GMT 51.693233 -0.507355 16,950 164 321 -384
2020-02-19 09:41:30 GMT 51.697357 -0.509231 16,975 161 322 -256
2020-02-19 09:41:26 GMT 51.703445 -0.513165 16,975 154 325 0
2020-02-19 09:41:23 GMT 51.705990 -0.515213 16,975 147 329 128
2020-02-19 09:41:20 GMT 51.714020 -0.524078 16,975 117 336 0
2020-02-19 09:41:17 GMT 51.714020 -0.524078 16,975 135 333 -64
2020-02-19 09:41:14 GMT 51.716789 -0.528336 16,975 129 334 -64
2020-02-19 09:41:11 GMT 51.720474 -0.535287 16,975 127 333 -64
2020-02-19 09:41:08 GMT 51.722378 -0.539551 16,975 119 334 -64
2020-02-19 09:41:05 GMT 51.725727 -0.548553 16,975 118 335 0
2020-02-19 09:41:02 GMT 51.727936 -0.555106 16,975 117 338 -64
2020-02-19 09:40:59 GMT 51.729267 -0.559311 17,000 117 339 0
2020-02-19 09:40:56 GMT 51.732014 -0.567780 16,975 117 336 0
2020-02-19 09:40:53 GMT 51.734573 -0.575817 16,975 117 337 -64
2020-02-19 09:40:50 GMT 51.735718 -0.579380 16,975 117 338 -64
2020-02-19 09:40:47 GMT 51.738575 -0.588303 16,975 117 339 0
2020-02-19 09:40:44 GMT 51.740623 -0.594788 17,000 117 339 -64
2020-02-19 09:40:41 GMT 51.742485 -0.600662 17,000 117 340 0
2020-02-19 09:40:38 GMT 51.746887 -0.614344 17,000 117 340 0
2020-02-19 09:40:35 GMT 51.746887 -0.614344 17,000 117 340 64
2020-02-19 09:40:32 GMT 51.748947 -0.620876 17,000 117 340 64
2020-02-19 09:40:29 GMT 51.751705 -0.629425 17,000 117 340 0
2020-02-19 09:40:26 GMT 51.753147 -0.633926 16,975 116 338 0
2020-02-19 09:40:23 GMT 51.755264 -0.640696 17,000 117 339 64
2020-02-19 09:40:20 GMT 51.757290 -0.647049 16,975 117 339 64
2020-02-19 09:40:17 GMT 51.759476 -0.653761 16,975 117 339 64
2020-02-19 09:40:14 GMT 51.762459 -0.663147 16,975 117 338 0
2020-02-19 09:40:11 GMT 51.764923 -0.670834 16,975 117 338 0
2020-02-19 09:40:08 GMT 51.766788 -0.676651 16,975 117 339 0
2020-02-19 09:40:05 GMT 51.768139 -0.680923 16,975 117 339 0
2020-02-19 09:40:02 GMT 51.770184 -0.687408 16,975 117 339 0
2020-02-19 09:39:59 GMT 51.772202 -0.693698 16,975 117 338 0
2020-02-19 09:39:56 GMT 51.774326 -0.700455 16,975 117 338 0
2020-02-19 09:39:53 GMT 51.776981 -0.708771 16,975 117 338 0
2020-02-19 09:39:50 GMT 51.778889 -0.714874 16,975 116 338 0
2020-02-19 09:39:47 GMT 51.781635 -0.723648 16,975 116 338 0
2020-02-19 09:39:44 GMT 51.783463 -0.729477 16,975 117 338 0
2020-02-19 09:39:41 GMT 51.785522 -0.736010 16,975 116 337 0
2020-02-19 09:39:38 GMT 51.787354 -0.741874 16,975 116 337 0
2020-02-19 09:39:35 GMT 51.790054 -0.750411 16,975 116 337 0
2020-02-19 09:39:32 GMT 51.792114 -0.756869 16,975 116 337 0
2020-02-19 09:39:29 GMT 51.794533 -0.764542 17,000 116 337 0
2020-02-19 09:39:26 GMT 51.795685 -0.768301 17,000 116 337 0
2020-02-19 09:39:23 GMT 51.798302 -0.776596 17,000 116 337 0
2020-02-19 09:39:20 GMT 51.799988 -0.782034 17,000 116 337 0
2020-02-19 09:39:17 GMT 51.802540 -0.790100 17,000 116 337 0
2020-02-19 09:39:14 GMT 51.806217 -0.801697 17,000 117 336 0
2020-02-19 09:39:08 GMT 51.808319 -0.808460 17,000 117 336 0
2020-02-19 09:39:05 GMT 51.811012 -0.816956 17,000 117 336 0
2020-02-19 09:39:02 GMT 51.813263 -0.824123 17,000 116 337 0
2020-02-19 09:38:59 GMT 51.814911 -0.829245 17,000 117 336 -64
2020-02-19 09:38:56 GMT 51.817383 -0.837114 17,000 117 336 -64
2020-02-19 09:38:53 GMT 51.819260 -0.843126 17,000 117 336 -64
2020-02-19 09:38:50 GMT 51.823792 -0.857453 17,000 117 335 0
2020-02-19 09:38:47 GMT 51.823792 -0.857453 17,000 117 335 0
2020-02-19 09:38:44 GMT 51.825714 -0.863466 17,000 116 335 0
2020-02-19 09:38:41 GMT 51.827679 -0.869675 17,000 117 334 64
2020-02-19 09:38:38 GMT 51.829926 -0.876828 17,000 116 334 64
2020-02-19 09:38:35 GMT 51.832352 -0.884548 17,000 116 333 64
2020-02-19 09:38:32 GMT 51.834427 -0.891190 17,000 117 332 0
2020-02-19 09:38:29 GMT 51.836197 -0.896683 17,000 117 331 0
2020-02-19 09:38:26 GMT 51.840664 -0.910721 16,975 117 330 64
2020-02-19 09:38:23 GMT 51.840664 -0.910721 16,975 116 330 128
2020-02-19 09:38:20 GMT 51.844894 -0.924188 16,975 116 330 128
2020-02-19 09:38:17 GMT 51.844894 -0.924188 16,975 116 337 -128
2020-02-19 09:38:14 GMT 51.846634 -0.929681 16,975 117 341 -576
2020-02-19 09:38:10 GMT 51.851440 -0.945047 16,950 117 343 -512
2020-02-19 09:38:06 GMT 51.853775 -0.952470 16,975 117 341 -512
2020-02-19 09:38:03 GMT 51.853775 -0.952470 16,975 117 340 -384
2020-02-19 09:38:00 GMT 51.856819 -0.961990 17,025 117 343 -512
2020-02-19 09:37:57 GMT 51.859268 -0.969766 17,075 117 345 -576
2020-02-19 09:37:54 GMT 51.861374 -0.976373 17,075 117 345 -576
2020-02-19 09:37:51 GMT 51.865494 -0.989215 17,125 117 348 -576
2020-02-19 09:37:48 GMT 51.865494 -0.989215 17,125 117 348 -576
2020-02-19 09:37:45 GMT 51.867432 -0.995255 17,150 117 350 -576
2020-02-19 09:37:42 GMT 51.869293 -1.001092 17,225 117 351 -576
2020-02-19 09:37:39 GMT 51.871529 -1.008072 17,200 117 352 -576
2020-02-19 09:37:36 GMT 51.874229 -1.016464 17,225 117 353 -576
2020-02-19 09:37:33 GMT 51.878281 -1.029510 17,300 116 356 -512
2020-02-19 09:37:30 GMT 51.880234 -1.035684 17,325 116 359 -512
2020-02-19 09:37:27 GMT 51.882935 -1.044592 17,325 116 359 -512
2020-02-19 09:37:24 GMT 51.885590 -1.052980 17,375 116 361 -512
2020-02-19 09:37:21 GMT 51.885590 -1.052980 17,425 122 368 -576
2020-02-19 09:37:18 GMT 51.887054 -1.057583 17,400 118 364 -512
2020-02-19 09:37:15 GMT 51.890717 -1.068272 17,425 119 365 -512
2020-02-19 09:37:12 GMT 51.892639 -1.073691 17,450 120 367 -512
2020-02-19 09:37:09 GMT 51.895157 -1.080551 17,475 121 368 -576
2020-02-19 09:37:06 GMT 51.898361 -1.088715 17,500 124 371 -576
2020-02-19 09:37:02 GMT 51.901367 -1.096043 17,575 126 373 -512
2020-02-19 09:36:59 GMT 51.904255 -1.102635 17,600 127 375 -448
2020-02-19 09:36:56 GMT 51.907188 -1.109227 17,600 127 374 -512
2020-02-19 09:36:53 GMT 51.910309 -1.115875 17,600 128 376 -448
2020-02-19 09:36:50 GMT 51.914639 -1.124686 17,625 129 376 -448
2020-02-19 09:36:47 GMT 51.922413 -1.139518 17,675 130 378 -512
2020-02-19 09:36:43 GMT 51.922413 -1.139518 17,700 131 378 -512
2020-02-19 09:36:40 GMT 51.925140 -1.144333 17,725 132 380 -512
2020-02-19 09:36:37 GMT 51.929672 -1.152267 17,825 136 383 -512
2020-02-19 09:36:34 GMT 51.932922 -1.157532 17,775 136 383 -576
2020-02-19 09:36:31 GMT 51.937492 -1.164708 17,800 137 383 -576
2020-02-19 09:36:28 GMT 51.940887 -1.169739 17,850 139 383 -576
2020-02-19 09:36:25 GMT 51.944614 -1.175066 18,000 140 382 -640
2020-02-19 09:36:22 GMT 51.948166 -1.179810 17,875 141 383 -640
2020-02-19 09:36:19 GMT 51.952423 -1.185455 17,900 141 383 -640
2020-02-19 09:36:16 GMT 51.957092 -1.191546 17,925 140 382 -640
2020-02-19 09:36:13 GMT 51.961212 -1.196976 17,975 140 382 -640
2020-02-19 09:36:10 GMT 51.965893 -1.203081 17,975 140 381 -448
2020-02-19 09:36:07 GMT 51.969566 -1.207947 18,000 140 381 -64
2020-02-19 09:36:04 GMT 51.972034 -1.211243 18,000 140 381 0
2020-02-19 09:36:01 GMT 51.982269 -1.224670 18,000 140 381 0
2020-02-19 09:35:57 GMT 51.982269 -1.224670 18,000 140 380 64
2020-02-19 09:35:54 GMT 51.987442 -1.231537 18,000 140 380 64
2020-02-19 09:35:51 GMT 51.991261 -1.236590 18,000 140 380 64
2020-02-19 09:35:48 GMT 51.993851 -1.240005 17,975 140 377 64
2020-02-19 09:35:45 GMT 51.998749 -1.246414 17,975 140 378 64
2020-02-19 09:35:42 GMT 52.004059 -1.253357 17,975 140 376 64
2020-02-19 09:35:39 GMT 52.007446 -1.257858 17,975 140 375 -192
2020-02-19 09:35:36 GMT 52.012302 -1.264212 17,975 140 374 0
2020-02-19 09:35:33 GMT 52.015656 -1.268685 17,975 141 375 64
2020-02-19 09:35:30 GMT 52.019028 -1.273041 18,300 141 379 -1216
2020-02-19 09:35:27 GMT 52.023834 -1.279449 17,975 140 375 -128
2020-02-19 09:35:24 GMT 52.026810 -1.283340 17,975 140 375 -192
2020-02-19 09:35:21 GMT 52.030876 -1.288696 18,050 140 377 -832
2020-02-19 09:35:17 GMT 52.041412 -1.302567 18,100 140 378 -1216
2020-02-19 09:35:14 GMT 52.041412 -1.302567 18,150 140 378 -1216
2020-02-19 09:35:11 GMT 52.045448 -1.308001 18,225 140 378 -1216
2020-02-19 09:35:08 GMT 52.050110 -1.314087 18,275 141 379 -1216
2020-02-19 09:35:05 GMT 52.052536 -1.317291 18,300 141 379 -1216
2020-02-19 09:35:02 GMT 52.057739 -1.324088 18,350 141 379 -1216
2020-02-19 09:34:59 GMT 52.061974 -1.329581 18,475 141 380 -1280
2020-02-19 09:34:56 GMT 52.065811 -1.334610 18,500 141 381 -1280
2020-02-19 09:34:53 GMT 52.070774 -1.340960 18,575 141 381 -1344
2020-02-19 09:34:50 GMT 52.073936 -1.345119 18,700 140 381 -2176
2020-02-19 09:34:47 GMT 52.078308 -1.350861 18,700 141 381 -1408
2020-02-19 09:34:44 GMT 52.083248 -1.357361 18,725 140 381 -1536
2020-02-19 09:34:41 GMT 52.087208 -1.362540 19,000 140 381 -2240
2020-02-19 09:34:35 GMT 52.095108 -1.373062 19,100 140 382 -2240
2020-02-19 09:34:32 GMT 52.098541 -1.377563 19,375 140 384 -1792
2020-02-19 09:34:29 GMT 52.102020 -1.382065 19,300 140 387 -1344
2020-02-19 09:34:26 GMT 52.106152 -1.387573 19,375 140 385 -1728
2020-02-19 09:34:23 GMT 52.109436 -1.391983 19,650 140 387 -1152
2020-02-19 09:34:20 GMT 52.116211 -1.400986 19,525 140 388 -1024
2020-02-19 09:34:17 GMT 52.120213 -1.406407 19,575 140 390 -960
2020-02-19 09:34:14 GMT 52.123142 -1.410252 19,625 140 390 -960
2020-02-19 09:34:11 GMT 52.127609 -1.416245 19,700 140 392 -768
2020-02-19 09:34:08 GMT 52.131088 -1.420898 19,725 140 392 -768
2020-02-19 09:34:05 GMT 52.135014 -1.426104 19,750 140 392 -768
2020-02-19 09:34:02 GMT 52.140739 -1.433794 19,800 140 392 -704
2020-02-19 09:33:59 GMT 52.145119 -1.439601 19,825 140 392 -704
2020-02-19 09:33:56 GMT 52.147633 -1.442976 19,850 140 392 -704
2020-02-19 09:33:53 GMT 52.152100 -1.448975 19,900 140 392 -704
2020-02-19 09:33:50 GMT 52.156448 -1.454697 19,950 140 390 -704
2020-02-19 09:33:47 GMT 52.161503 -1.461417 19,975 140 390 -640
2020-02-19 09:33:44 GMT 52.164948 -1.466047 20,000 140 388 -64
2020-02-19 09:33:41 GMT 52.173561 -1.477583 20,000 140 387 64
2020-02-19 09:33:38 GMT 52.173561 -1.477583 19,975 140 387 64
2020-02-19 09:33:35 GMT 52.177795 -1.483311 19,975 140 385 64
2020-02-19 09:33:32 GMT 52.182220 -1.489182 19,975 140 385 64
2020-02-19 09:33:29 GMT 52.186317 -1.494690 19,975 140 384 0
2020-02-19 09:33:26 GMT 52.189201 -1.498535 19,975 140 382 64
2020-02-19 09:33:23 GMT 52.193855 -1.504813 20,000 140 382 64
2020-02-19 09:33:20 GMT 52.201771 -1.515407 19,975 140 383 -64
2020-02-19 09:33:17 GMT 52.207264 -1.522784 19,975 140 385 -320
2020-02-19 09:33:14 GMT 52.207264 -1.522784 20,000 140 385 -448
2020-02-19 09:33:11 GMT 52.210419 -1.526947 20,025 140 386 -640
2020-02-19 09:33:08 GMT 52.214722 -1.532745 20,050 140 387 -1216
2020-02-19 09:33:05 GMT 52.218575 -1.537929 20,100 140 387 -1216
2020-02-19 09:33:02 GMT 52.223557 -1.544571 20,200 140 390 -1280
2020-02-19 09:32:59 GMT 52.227585 -1.549911 20,275 140 389 -1280
2020-02-19 09:32:56 GMT 52.231064 -1.554565 20,400 140 389 -1344
2020-02-19 09:32:53 GMT 52.235641 -1.560669 20,500 140 390 -1280
2020-02-19 09:32:49 GMT 52.245575 -1.573868 20,500 140 390 -1280
2020-02-19 09:32:46 GMT 52.245575 -1.573868 20,525 140 390 -1472
2020-02-19 09:32:43 GMT 52.249237 -1.578674 20,625 140 391 -1536
2020-02-19 09:32:40 GMT 52.253445 -1.584229 20,725 141 398 -1600
2020-02-19 09:32:37 GMT 52.258331 -1.590742 20,750 141 393 -1600
2020-02-19 09:32:34 GMT 52.261871 -1.595450 20,775 141 398 -1600
2020-02-19 09:32:31 GMT 52.266998 -1.602173 20,900 141 396 -1536
2020-02-19 09:32:28 GMT 52.274551 -1.612091 21,075 141 398 -1664
2020-02-19 09:32:25 GMT 52.278168 -1.616821 21,325 141 399 -1728
2020-02-19 09:32:22 GMT 52.278168 -1.616821 21,350 140 401 -1984
2020-02-19 09:32:19 GMT 52.283890 -1.624407 21,250 140 400 -1920
2020-02-19 09:32:16 GMT 52.287323 -1.629028 21,475 140 403 -2112
2020-02-19 09:32:13 GMT 52.290939 -1.633759 21,425 140 402 -2112
2020-02-19 09:32:10 GMT 52.295853 -1.640337 21,500 140 403 -2240
2020-02-19 09:32:07 GMT 52.301487 -1.647871 21,700 140 404 -2368
2020-02-19 09:32:04 GMT 52.305817 -1.653671 21,800 140 406 -2304
2020-02-19 09:32:01 GMT 52.308701 -1.657601 22,025 140 414 -1984
2020-02-19 09:31:58 GMT 52.314240 -1.664963 22,025 140 409 -2240
2020-02-19 09:31:55 GMT 52.317902 -1.669846 22,675 140 417 -1856
2020-02-19 09:31:52 GMT 52.322296 -1.675807 22,325 140 412 -2048
2020-02-19 09:31:49 GMT 52.327240 -1.682510 22,375 140 414 -1984
2020-02-19 09:31:46 GMT 52.330490 -1.686935 25,000 140 451 -2496
2020-02-19 09:31:43 GMT 52.334793 -1.692657 22,500 140 418 -1792
2020-02-19 09:31:40 GMT 52.339565 -1.699114 22,625 140 418 -1792
2020-02-19 09:31:37 GMT 52.343895 -1.704921 22,775 140 423 -1728
2020-02-19 09:31:34 GMT 52.348549 -1.711199 23,050 140 424 -1664
2020-02-19 09:31:31 GMT 52.353207 -1.717477 22,950 140 424 -1664
2020-02-19 09:31:28 GMT 52.364044 -1.732025 23,050 140 429 -1792
2020-02-19 09:31:25 GMT 52.364044 -1.732025 23,125 140 430 -1792
2020-02-19 09:31:22 GMT 52.367889 -1.737137 23,175 140 433 -2176
2020-02-19 09:31:19 GMT 52.371872 -1.742589 23,300 140 433 -2176
2020-02-19 09:31:16 GMT 52.376015 -1.748160 23,525 140 433 -2368
2020-02-19 09:31:13 GMT 52.381416 -1.755458 23,500 140 434 -2432
2020-02-19 09:31:10 GMT 52.386063 -1.761780 23,500 140 434 -2560
2020-02-19 09:31:07 GMT 52.394775 -1.773507 23,775 140 441 -2816
2020-02-19 09:31:04 GMT 52.394775 -1.773507 24,250 140 438 -2624
2020-02-19 09:31:01 GMT 52.399750 -1.780243 24,100 140 440 -2752
2020-02-19 09:30:58 GMT 52.405838 -1.788483 25,000 140 440 -2752
2020-02-19 09:30:55 GMT 52.409302 -1.793204 24,525 140 441 -2816
2020-02-19 09:30:52 GMT 52.419357 -1.806780 24,500 140 443 -2816
2020-02-19 09:30:49 GMT 52.419357 -1.806780 24,800 140 443 -2816
2020-02-19 09:30:46 GMT 52.423874 -1.812980 24,675 140 443 -2816
2020-02-19 09:30:43 GMT 52.427856 -1.818390 24,900 140 444 -2816
2020-02-19 09:30:40 GMT 52.434448 -1.827393 25,000 140 444 -2752
2020-02-19 09:30:37 GMT 52.439049 -1.833618 25,075 140 445 -2752
2020-02-19 09:30:33 GMT 52.449520 -1.847822 25,375 140 448 -2688
2020-02-19 09:30:29 GMT 52.449520 -1.847822 26,050 140 454 -2176
2020-02-19 09:30:26 GMT 52.456226 -1.856925 25,625 140 450 -2560
2020-02-19 09:30:23 GMT 52.465851 -1.870041 26,100 140 453 -2368
2020-02-19 09:30:20 GMT 52.465851 -1.870041 26,025 140 455 -1984
2020-02-19 09:30:17 GMT 52.470062 -1.875763 26,025 140 455 -2048
2020-02-19 09:30:14 GMT 52.474548 -1.881943 26,325 140 458 -1984
2020-02-19 09:30:11 GMT 52.480385 -1.889884 26,150 140 457 -1856
2020-02-19 09:30:08 GMT 52.485580 -1.896973 26,275 140 458 -1984
2020-02-19 09:30:05 GMT 52.490162 -1.903224 26,325 140 458 -1984
2020-02-19 09:30:02 GMT 52.493885 -1.908325 26,825 140 461 -2048
2020-02-19 09:29:58 GMT 52.500774 -1.917664 26,550 140 460 -2112
2020-02-19 09:29:55 GMT 52.511673 -1.932602 26,750 140 461 -2112
2020-02-19 09:29:52 GMT 52.511673 -1.932602 26,825 140 461 -2112
2020-02-19 09:29:49 GMT 52.516605 -1.939322 26,900 140 461 -2048
2020-02-19 09:29:46 GMT 52.519684 -1.943588 27,125 140 481 -960
2020-02-19 09:29:43 GMT 52.532478 -1.961138 27,225 140 462 -1984
2020-02-19 09:29:40 GMT 52.532478 -1.961138 27,450 139 463 -1984
2020-02-19 09:29:37 GMT 52.534760 -1.964277 27,275 139 463 -1984
2020-02-19 09:29:34 GMT 52.540531 -1.972203 27,425 140 464 -2048
2020-02-19 09:29:31 GMT 52.544952 -1.978245 27,475 140 465 -2176
2020-02-19 09:29:27 GMT 52.551704 -1.987505 27,750 140 466 -2112
2020-02-19 09:29:24 GMT 52.556992 -1.994705 28,100 140 470 -1856
2020-02-19 09:29:21 GMT 52.561432 -2.000809 27,975 140 466 -2112
2020-02-19 09:29:18 GMT 52.567932 -2.009659 28,000 140 472 -1792
2020-02-19 09:29:15 GMT 52.575726 -2.020307 28,375 140 477 -1792
2020-02-19 09:29:09 GMT 52.582443 -2.029343 28,600 140 475 -1664
2020-02-19 09:29:06 GMT 52.586975 -2.035522 28,350 140 472 -1792
2020-02-19 09:29:03 GMT 52.592010 -2.042389 28,425 140 473 -1728
2020-02-19 09:29:00 GMT 52.595535 -2.047195 28,500 140 475 -1664
2020-02-19 09:28:57 GMT 52.600800 -2.054291 28,675 140 476 -1728
2020-02-19 09:28:54 GMT 52.606064 -2.061386 28,825 140 476 -1728
2020-02-19 09:28:51 GMT 52.611107 -2.068333 28,725 140 476 -1728
2020-02-19 09:28:48 GMT 52.621624 -2.082694 28,900 140 478 -1856
2020-02-19 09:28:45 GMT 52.621624 -2.082694 29,025 140 479 -1728
2020-02-19 09:28:42 GMT 52.627583 -2.090777 29,050 140 479 -1792
2020-02-19 09:28:39 GMT 52.633347 -2.098694 29,225 140 479 -1728
2020-02-19 09:28:36 GMT 52.635727 -2.101974 29,175 140 479 -1728
2020-02-19 09:28:33 GMT 52.641830 -2.110395 29,275 140 480 -1472
2020-02-19 09:28:30 GMT 52.648487 -2.119420 29,375 140 480 -1280
2020-02-19 09:28:27 GMT 52.653580 -2.126465 29,425 140 480 -1216
2020-02-19 09:28:24 GMT 52.659378 -2.134408 29,475 140 480 -1088
2020-02-19 09:28:21 GMT 52.668270 -2.146572 29,575 140 481 -1024
2020-02-19 09:28:18 GMT 52.668270 -2.146572 29,600 140 481 -896
2020-02-19 09:28:15 GMT 52.677673 -2.159441 29,675 140 482 -832
2020-02-19 09:28:12 GMT 52.677673 -2.159441 29,700 140 483 -832
2020-02-19 09:28:09 GMT 52.684525 -2.168808 29,725 140 484 -832
2020-02-19 09:28:06 GMT 52.687454 -2.172775 29,800 140 485 -832
2020-02-19 09:28:03 GMT 52.694386 -2.182199 29,850 140 486 -832
2020-02-19 09:28:00 GMT 52.699905 -2.189713 29,900 140 486 -832
2020-02-19 09:27:57 GMT 52.704395 -2.195853 29,900 140 488 -832
2020-02-19 09:27:54 GMT 52.709469 -2.202680 29,925 140 490 -832
2020-02-19 09:27:51 GMT 52.713985 -2.208880 30,000 140 493 -960
2020-02-19 09:27:48 GMT 52.720177 -2.217198 30,025 140 493 -1088
2020-02-19 09:27:45 GMT 52.726322 -2.225516 30,100 140 497 -1024
2020-02-19 09:27:42 GMT 52.729156 -2.229385 30,125 140 500 -576
2020-02-19 09:27:39 GMT 52.736435 -2.239151 30,200 140 508 -384
2020-02-19 09:27:36 GMT 52.740707 -2.244978 30,200 140 498 -832
2020-02-19 09:27:33 GMT 52.746048 -2.252197 30,250 140 504 -384
2020-02-19 09:27:30 GMT 52.756485 -2.266388 30,275 140 506 -384
2020-02-19 09:27:27 GMT 52.756485 -2.266388 30,300 140 508 -448
2020-02-19 09:27:24 GMT 52.763580 -2.275848 30,300 141 510 -448
2020-02-19 09:27:21 GMT 52.768158 -2.281952 30,325 141 512 -512
2020-02-19 09:27:18 GMT 52.774178 -2.289551 30,350 144 521 -640
2020-02-19 09:27:15 GMT 52.778595 -2.294846 30,375 144 519 -512
2020-02-19 09:27:12 GMT 52.785397 -2.302813 30,400 144 523 -1024
2020-02-19 09:27:09 GMT 52.790680 -2.308960 30,425 144 522 -896
2020-02-19 09:27:06 GMT 52.797592 -2.316938 30,725 144 520 -2496
2020-02-19 09:27:03 GMT 52.801132 -2.321097 30,500 144 524 -1600
2020-02-19 09:27:00 GMT 52.808258 -2.329407 30,675 144 525 -1792
2020-02-19 09:26:57 GMT 52.815002 -2.337184 30,625 144 525 -1856
2020-02-19 09:26:54 GMT 52.821148 -2.344325 30,825 144 523 -2304
2020-02-19 09:26:51 GMT 52.828087 -2.352408 31,025 144 523 -2304
2020-02-19 09:26:48 GMT 52.833984 -2.359390 30,975 144 523 -2304
2020-02-19 09:26:45 GMT 52.838699 -2.364886 31,525 144 521 -2240
2020-02-19 09:26:42 GMT 52.844425 -2.371556 31,250 144 521 -2240
2020-02-19 09:26:39 GMT 52.850327 -2.378464 31,275 144 521 -2240
2020-02-19 09:26:36 GMT 52.857784 -2.387172 31,400 144 521 -2240
2020-02-19 09:26:33 GMT 52.869190 -2.400356 31,600 144 520 -2496
2020-02-19 09:26:27 GMT 52.878780 -2.411577 31,850 144 517 -2880
2020-02-19 09:26:21 GMT 52.886581 -2.420654 32,175 145 515 -2176
2020-02-19 09:26:18 GMT 52.892838 -2.427900 32,300 145 516 -2304
2020-02-19 09:26:15 GMT 52.898518 -2.434413 32,350 145 515 -2048
2020-02-19 09:26:12 GMT 52.902615 -2.439043 32,400 149 505 -2688
2020-02-19 09:26:09 GMT 52.909790 -2.446899 32,575 148 514 -2432
2020-02-19 09:26:06 GMT 52.916840 -2.454147 32,675 148 513 -2624
2020-02-19 09:26:03 GMT 52.921284 -2.458583 32,950 149 510 -2752
2020-02-19 09:26:00 GMT 52.927567 -2.464783 32,950 149 509 -2752
2020-02-19 09:25:57 GMT 52.934235 -2.471313 33,050 149 505 -2688
2020-02-19 09:25:54 GMT 52.940647 -2.477652 33,200 149 505 -2688
2020-02-19 09:25:51 GMT 52.945450 -2.482376 33,275 149 505 -2688
2020-02-19 09:25:48 GMT 52.953075 -2.489816 33,475 149 504 -2624
2020-02-19 09:25:45 GMT 52.957077 -2.493744 33,825 149 503 -2624
2020-02-19 09:25:42 GMT 52.964298 -2.500802 33,825 149 499 -1856
2020-02-19 09:25:39 GMT 52.968658 -2.505112 34,000 149 503 -2560
2020-02-19 09:25:36 GMT 52.975842 -2.512181 33,975 149 501 -2560
2020-02-19 09:25:33 GMT 52.980637 -2.516811 34,075 149 501 -2560
2020-02-19 09:25:30 GMT 52.993393 -2.529210 34,325 149 499 -1984
2020-02-19 09:25:27 GMT 52.993393 -2.529210 34,325 149 500 -2432
2020-02-19 09:25:24 GMT 52.999954 -2.535566 34,500 149 499 -2048
2020-02-19 09:25:21 GMT 53.008148 -2.543413 34,625 149 500 -1856
2020-02-19 09:25:18 GMT 53.010956 -2.546082 34,650 149 499 -1856
2020-02-19 09:25:15 GMT 53.017914 -2.552872 34,800 148 501 -1984
2020-02-19 09:25:12 GMT 53.022675 -2.557539 34,850 148 501 -1984
2020-02-19 09:25:09 GMT 53.027802 -2.562790 34,925 147 501 -2048
2020-02-19 09:25:06 GMT 53.037060 -2.572998 35,100 144 502 -2240
2020-02-19 09:25:03 GMT 53.041016 -2.577785 35,150 142 503 -2240
2020-02-19 09:25:00 GMT 53.053299 -2.594223 35,400 139 503 -2176
2020-02-19 09:24:56 GMT 53.053299 -2.594223 35,425 135 504 -2176
2020-02-19 09:24:53 GMT 53.059776 -2.604231 35,525 132 504 -1920
2020-02-19 09:24:50 GMT 53.062893 -2.609331 35,800 135 504 -2176
2020-02-19 09:24:47 GMT 53.068405 -2.618790 35,750 132 504 -1920
2020-02-19 09:24:44 GMT 53.073578 -2.628250 35,900 131 504 -1664
2020-02-19 09:24:41 GMT 53.077324 -2.635149 36,175 131 506 -1472
2020-02-19 09:24:38 GMT 53.081223 -2.642365 36,000 131 505 -1344
2020-02-19 09:24:35 GMT 53.087082 -2.653351 36,100 131 506 -1088
2020-02-19 09:24:32 GMT 53.091751 -2.661972 36,100 132 505 -1664
2020-02-19 09:24:29 GMT 53.095528 -2.668951 36,150 131 507 -1344
2020-02-19 09:24:26 GMT 53.100975 -2.679129 36,250 131 507 -1472
2020-02-19 09:24:23 GMT 53.105488 -2.687531 36,350 132 506 -1600
2020-02-19 09:24:20 GMT 53.108917 -2.693848 36,450 132 505 -1664
2020-02-19 09:24:17 GMT 53.114868 -2.704756 36,475 132 504 0
2020-02-19 09:24:14 GMT 53.119720 -2.713623 36,675 132 504 -1408
2020-02-19 09:24:11 GMT 53.125648 -2.724529 36,625 132 504 -1408
2020-02-19 09:24:08 GMT 53.135330 -2.742220 36,725 132 503 -1088
2020-02-19 09:24:04 GMT 53.135330 -2.742220 36,950 132 504 0
2020-02-19 09:24:00 GMT 53.142975 -2.756234 36,875 132 503 -768
2020-02-19 09:23:57 GMT 53.146736 -2.763142 36,925 132 503 -640
2020-02-19 09:23:54 GMT 53.150299 -2.769732 36,950 132 504 -192
2020-02-19 09:23:51 GMT 53.161194 -2.789743 36,950 132 504 0
2020-02-19 09:23:48 GMT 53.161194 -2.789743 36,950 132 504 -64
2020-02-19 09:23:42 GMT 53.170258 -2.806379 36,950 132 504 0
2020-02-19 09:23:39 GMT 53.174015 -2.813308 36,950 132 504 0
2020-02-19 09:23:36 GMT 53.179962 -2.824193 36,950 132 504 0
2020-02-19 09:23:33 GMT 53.182755 -2.829372 36,950 132 504 0
2020-02-19 09:23:30 GMT 53.194290 -2.850638 36,975 132 504 0
2020-02-19 09:23:27 GMT 53.194290 -2.850638 36,950 132 504 0
2020-02-19 09:23:24 GMT 53.198036 -2.857495 36,950 132 504 0
2020-02-19 09:23:21 GMT 53.203354 -2.867275 36,950 132 504 0
2020-02-19 09:23:18 GMT 53.213352 -2.885688 36,950 132 505 0
2020-02-19 09:23:15 GMT 53.216656 -2.891747 36,950 132 504 0
2020-02-19 09:23:12 GMT 53.216656 -2.891747 36,950 132 504 0
2020-02-19 09:23:09 GMT 53.221985 -2.901489 36,950 132 505 0
2020-02-19 09:23:06 GMT 53.226334 -2.909572 36,950 132 504 0
2020-02-19 09:23:03 GMT 53.230545 -2.917341 36,950 132 505 0
2020-02-19 09:23:00 GMT 53.240845 -2.936410 36,950 132 506 0
2020-02-19 09:22:57 GMT 53.243980 -2.942236 36,950 132 506 0
2020-02-19 09:22:51 GMT 53.249428 -2.952333 36,950 132 506 0
2020-02-19 09:22:48 GMT 53.254623 -2.961836 36,950 132 506 0
2020-02-19 09:22:45 GMT 53.259155 -2.970232 36,950 131 508 -64
2020-02-19 09:22:41 GMT 53.265244 -2.981533 36,950 131 507 0
2020-02-19 09:22:38 GMT 53.269913 -2.990220 36,950 131 507 0
2020-02-19 09:22:35 GMT 53.275078 -2.999833 36,950 131 507 0
2020-02-19 09:22:32 GMT 53.278851 -3.006780 36,950 131 507 0
2020-02-19 09:22:29 GMT 53.283367 -3.015262 36,950 131 507 0
2020-02-19 09:22:26 GMT 53.287125 -3.022260 36,950 131 507 0
2020-02-19 09:22:23 GMT 53.293373 -3.033923 36,950 131 509 -64
2020-02-19 09:22:20 GMT 53.299099 -3.044829 36,950 131 509 -64
2020-02-19 09:22:17 GMT 53.303787 -3.053571 36,950 131 508 -64
2020-02-19 09:22:14 GMT 53.308319 -3.062125 36,950 131 509 0
2020-02-19 09:22:11 GMT 53.316559 -3.077707 36,950 131 510 0
2020-02-19 09:22:08 GMT 53.316559 -3.077707 36,950 131 510 0
2020-02-19 09:22:05 GMT 53.320889 -3.086027 36,950 131 510 -64
2020-02-19 09:22:02 GMT 53.325077 -3.093944 36,950 131 510 0
2020-02-19 09:21:59 GMT 53.329594 -3.102507 36,950 131 510 -64
2020-02-19 09:21:56 GMT 53.334248 -3.111393 36,950 131 510 -64
2020-02-19 09:21:53 GMT 53.338902 -3.120279 36,975 131 511 0
2020-02-19 09:21:50 GMT 53.344955 -3.131831 36,950 131 510 0
2020-02-19 09:21:47 GMT 53.349655 -3.140677 36,975 131 510 -64
2020-02-19 09:21:44 GMT 53.353546 -3.148054 36,975 131 510 -64
2020-02-19 09:21:41 GMT 53.357571 -3.155742 36,975 131 510 -64
2020-02-19 09:21:38 GMT 53.362885 -3.165789 36,975 131 510 -64
2020-02-19 09:21:35 GMT 53.372955 -3.185015 36,975 131 510 0
2020-02-19 09:21:32 GMT 53.372955 -3.185015 36,975 131 511 0
2020-02-19 09:21:29 GMT 53.377762 -3.194275 36,975 131 511 0
2020-02-19 09:21:26 GMT 53.382568 -3.203456 36,975 131 511 0
2020-02-19 09:21:23 GMT 53.385689 -3.209462 36,975 131 511 0
2020-02-19 09:21:20 GMT 53.389709 -3.217189 36,975 131 511 0
2020-02-19 09:21:17 GMT 53.395882 -3.229092 36,975 130 512 0
2020-02-19 09:21:14 GMT 53.399792 -3.236605 36,975 130 512 0
2020-02-19 09:21:11 GMT 53.404449 -3.245571 36,975 130 512 0
2020-02-19 09:21:08 GMT 53.410492 -3.257211 36,975 130 512 0
2020-02-19 09:21:05 GMT 53.413570 -3.263182 36,975 130 512 0
2020-02-19 09:21:02 GMT 53.418087 -3.271825 36,975 130 513 0
2020-02-19 09:20:59 GMT 53.428482 -3.291896 36,975 130 513 0
2020-02-19 09:20:56 GMT 53.428482 -3.291896 36,975 130 513 0
2020-02-19 09:20:52 GMT 53.435165 -3.304766 36,975 130 513 0
2020-02-19 09:20:49 GMT 53.439697 -3.313477 36,975 131 514 0
2020-02-19 09:20:46 GMT 53.444344 -3.322476 36,975 131 513 0
2020-02-19 09:20:43 GMT 53.448257 -3.329956 36,975 131 514 0
2020-02-19 09:20:40 GMT 53.453705 -3.340393 36,975 131 514 0
2020-02-19 09:20:37 GMT 53.458076 -3.348811 36,975 131 515 64
2020-02-19 09:20:34 GMT 53.462963 -3.358100 36,975 131 515 64
2020-02-19 09:20:31 GMT 53.471237 -3.374058 36,950 130 517 0
2020-02-19 09:20:28 GMT 53.471237 -3.374058 36,950 130 516 0
2020-02-19 09:20:25 GMT 53.476089 -3.383397 36,950 130 516 0
2020-02-19 09:20:22 GMT 53.481258 -3.393321 36,950 130 516 0
2020-02-19 09:20:19 GMT 53.485291 -3.401132 36,950 130 517 0
2020-02-19 09:20:16 GMT 53.489361 -3.408993 36,950 130 516 0
2020-02-19 09:20:13 GMT 53.499645 -3.429027 36,950 130 517 0
2020-02-19 09:20:10 GMT 53.505138 -3.439609 36,950 130 517 0
2020-02-19 09:20:07 GMT 53.505138 -3.439609 36,950 130 517 0
2020-02-19 09:20:04 GMT 53.509190 -3.447526 36,950 130 517 0
2020-02-19 09:20:01 GMT 53.513855 -3.456613 36,950 130 517 0
2020-02-19 09:19:58 GMT 53.518707 -3.466030 36,950 130 517 0
2020-02-19 09:19:55 GMT 53.522598 -3.473563 36,950 130 517 0
2020-02-19 09:19:51 GMT 53.529488 -3.486947 36,950 130 517 0
2020-02-19 09:19:48 GMT 53.533859 -3.495379 36,950 130 517 -64
2020-02-19 09:19:45 GMT 53.537914 -3.503265 36,950 130 517 -64
2020-02-19 09:19:42 GMT 53.543079 -3.513282 36,975 130 516 -64
2020-02-19 09:19:39 GMT 53.548233 -3.523237 36,975 131 517 -64
2020-02-19 09:19:36 GMT 53.551693 -3.529843 36,975 130 517 0
2020-02-19 09:19:33 GMT 53.557343 -3.540737 36,975 131 516 0
2020-02-19 09:19:30 GMT 53.561749 -3.549149 36,975 131 517 64
2020-02-19 09:19:27 GMT 53.568054 -3.561218 36,975 131 517 64
2020-02-19 09:19:24 GMT 53.571198 -3.567245 36,975 131 517 128
2020-02-19 09:19:21 GMT 53.581577 -3.587117 36,950 131 516 64
2020-02-19 09:19:18 GMT 53.581577 -3.587117 36,950 130 517 64
2020-02-19 09:19:15 GMT 53.585449 -3.594727 36,950 129 518 -64
2020-02-19 09:19:12 GMT 53.591263 -3.606498 36,950 127 518 -128
2020-02-19 09:19:09 GMT 53.595638 -3.616037 36,950 126 518 -64
2020-02-19 09:19:06 GMT 53.600189 -3.626351 36,975 125 518 0
2020-02-19 09:19:02 GMT 53.605042 -3.637809 36,975 125 518 0
2020-02-19 09:18:59 GMT 53.610023 -3.649723 36,975 125 518 0
2020-02-19 09:18:56 GMT 53.612492 -3.655620 36,975 125 518 0
2020-02-19 09:18:53 GMT 53.620216 -3.674038 36,975 125 518 0
2020-02-19 09:18:47 GMT 53.625340 -3.686236 36,975 125 518 0
2020-02-19 09:18:44 GMT 53.628937 -3.694781 36,975 125 518 0
2020-02-19 09:18:41 GMT 53.635300 -3.709905 36,950 125 520 0
2020-02-19 09:18:38 GMT 53.637497 -3.715184 36,950 125 520 0
2020-02-19 09:18:35 GMT 53.646194 -3.735979 36,950 125 520 0
2020-02-19 09:18:32 GMT 53.646194 -3.735979 36,950 125 520 0
2020-02-19 09:18:29 GMT 53.649776 -3.744561 36,950 125 521 0
2020-02-19 09:18:26 GMT 53.655899 -3.759129 36,950 125 521 0
2020-02-19 09:18:23 GMT 53.658371 -3.765015 36,950 125 521 0
2020-02-19 09:18:20 GMT 53.666817 -3.785275 36,950 125 521 0
2020-02-19 09:18:17 GMT 53.666817 -3.785275 36,950 125 521 0
2020-02-19 09:18:14 GMT 53.671101 -3.795534 36,950 125 521 0
2020-02-19 09:18:11 GMT 53.676918 -3.809428 36,950 125 521 64
2020-02-19 09:18:08 GMT 53.679565 -3.815709 36,950 125 521 64
2020-02-19 09:18:05 GMT 53.684418 -3.827323 36,950 125 521 64
2020-02-19 09:18:02 GMT 53.687439 -3.834632 36,950 125 522 0
2020-02-19 09:17:59 GMT 53.691605 -3.844587 36,950 125 522 0
2020-02-19 09:17:56 GMT 53.697399 -3.858625 36,950 125 522 0
2020-02-19 09:17:53 GMT 53.700714 -3.866560 36,950 125 522 -64
2020-02-19 09:17:50 GMT 53.705734 -3.878578 36,950 125 522 -64
2020-02-19 09:17:47 GMT 53.710018 -3.888918 36,950 125 522 0
2020-02-19 09:17:44 GMT 53.712204 -3.894249 36,950 125 522 0
2020-02-19 09:17:41 GMT 53.721497 -3.916548 36,950 124 523 0
2020-02-19 09:17:38 GMT 53.721497 -3.916548 36,950 124 524 0
2020-02-19 09:17:34 GMT 53.726452 -3.928582 36,950 124 524 0
2020-02-19 09:17:31 GMT 53.730499 -3.938195 36,950 124 523 0
2020-02-19 09:17:28 GMT 53.735901 -3.951281 36,950 124 523 0
2020-02-19 09:17:25 GMT 53.739902 -3.960894 36,950 124 523 0
2020-02-19 09:17:22 GMT 53.743908 -3.970588 36,950 124 524 0
2020-02-19 09:17:19 GMT 53.746948 -3.977992 36,950 124 524 -64
2020-02-19 09:17:16 GMT 53.752350 -3.991019 36,950 124 523 -64
2020-02-19 09:17:13 GMT 53.759640 -4.008798 36,950 124 524 -64
2020-02-19 09:17:10 GMT 53.764202 -4.019865 36,950 124 524 -64
2020-02-19 09:17:07 GMT 53.764202 -4.019865 36,950 124 524 0
2020-02-19 09:17:04 GMT 53.768208 -4.029559 36,950 124 523 0
2020-02-19 09:17:01 GMT 53.773178 -4.041635 36,950 124 523 0
2020-02-19 09:16:58 GMT 53.776726 -4.050401 36,950 124 523 0
2020-02-19 09:16:54 GMT 53.781693 -4.062430 36,975 124 523 -64
2020-02-19 09:16:51 GMT 53.785431 -4.071485 36,975 124 523 0
2020-02-19 09:16:48 GMT 53.789158 -4.080532 36,975 124 522 -64
2020-02-19 09:16:45 GMT 53.793438 -4.090872 36,975 124 522 -64
2020-02-19 09:16:42 GMT 53.797722 -4.101212 36,975 124 522 0
2020-02-19 09:16:39 GMT 53.806412 -4.122306 36,975 124 523 0
2020-02-19 09:16:36 GMT 53.806412 -4.122306 36,975 124 523 64
2020-02-19 09:16:33 GMT 53.811356 -4.134391 36,975 124 523 64
2020-02-19 09:16:30 GMT 53.815643 -4.144835 36,975 124 524 64
2020-02-19 09:16:27 GMT 53.818531 -4.151863 36,975 124 524 64
2020-02-19 09:16:24 GMT 53.823929 -4.164949 36,975 124 523 64
2020-02-19 09:16:21 GMT 53.827194 -4.173000 36,950 124 525 0
2020-02-19 09:16:15 GMT 53.834793 -4.191520 36,950 124 525 0
2020-02-19 09:16:12 GMT 53.839371 -4.202663 36,950 124 525 0
2020-02-19 09:16:09 GMT 53.844040 -4.214065 36,950 124 525 0
2020-02-19 09:16:06 GMT 53.846786 -4.220869 36,950 124 525 0
2020-02-19 09:16:03 GMT 53.851639 -4.232640 36,950 124 526 0
2020-02-19 09:16:00 GMT 53.855770 -4.242742 36,950 124 526 64
2020-02-19 09:15:57 GMT 53.861023 -4.255633 36,950 124 525 64
2020-02-19 09:15:54 GMT 53.864849 -4.265119 36,950 124 525 64
2020-02-19 09:15:51 GMT 53.868855 -4.274893 36,950 124 525 64
2020-02-19 09:15:48 GMT 53.873135 -4.285395 36,950 124 525 0
2020-02-19 09:15:45 GMT 53.876541 -4.293849 36,950 124 526 0
2020-02-19 09:15:42 GMT 53.880295 -4.302952 36,950 124 526 0
2020-02-19 09:15:39 GMT 53.884552 -4.313468 36,950 124 526 0
2020-02-19 09:15:36 GMT 53.888535 -4.323277 36,950 124 526 0
2020-02-19 09:15:33 GMT 53.893936 -4.336461 36,950 124 526 0
2020-02-19 09:15:30 GMT 53.897369 -4.344936 36,950 124 525 0
2020-02-19 09:15:27 GMT 53.901814 -4.355675 36,950 124 525 0
2020-02-19 09:15:24 GMT 53.905815 -4.365531 36,950 124 525 0
2020-02-19 09:15:21 GMT 53.910378 -4.376598 36,950 124 526 0
2020-02-19 09:15:18 GMT 53.914146 -4.385807 36,950 124 526 0
2020-02-19 09:15:15 GMT 53.918991 -4.397601 36,950 124 525 0
2020-02-19 09:15:12 GMT 53.922016 -4.405033 36,950 124 526 0
2020-02-19 09:15:09 GMT 53.926895 -4.416818 36,950 124 526 0
2020-02-19 09:15:06 GMT 53.931885 -4.429025 36,950 124 526 -64
2020-02-19 09:15:03 GMT 53.935471 -4.437830 36,950 124 526 0
2020-02-19 09:15:00 GMT 53.940311 -4.449705 36,950 124 526 -64
2020-02-19 09:14:57 GMT 53.943924 -4.458487 36,950 124 526 0
2020-02-19 09:14:54 GMT 53.947525 -4.467235 36,975 124 526 0
2020-02-19 09:14:51 GMT 53.952927 -4.480483 36,950 124 526 0
2020-02-19 09:14:48 GMT 53.955688 -4.487287 36,950 124 526 0
2020-02-19 09:14:45 GMT 53.960220 -4.498431 36,975 124 526 -64
2020-02-19 09:14:42 GMT 53.963448 -4.506172 36,975 124 526 0
2020-02-19 09:14:39 GMT 53.967316 -4.515695 36,975 124 526 0
2020-02-19 09:14:36 GMT 53.972168 -4.527544 36,975 124 526 -64
2020-02-19 09:14:33 GMT 53.976574 -4.538404 36,975 124 526 0
2020-02-19 09:14:30 GMT 53.980019 -4.546886 36,975 124 526 0
2020-02-19 09:14:27 GMT 53.984985 -4.559012 36,975 124 526 64
2020-02-19 09:14:23 GMT 53.990261 -4.571928 36,975 124 526 64
2020-02-19 09:14:20 GMT 53.993984 -4.581056 36,975 124 526 64
2020-02-19 09:14:17 GMT 53.998123 -4.591265 36,975 124 526 64
2020-02-19 09:14:14 GMT 54.003754 -4.605155 36,975 124 526 0
2020-02-19 09:14:11 GMT 54.007507 -4.614258 36,975 124 526 0
2020-02-19 09:14:08 GMT 54.010651 -4.622094 36,975 124 526 0
2020-02-19 09:14:05 GMT 54.014786 -4.632228 36,975 124 525 0
2020-02-19 09:14:02 GMT 54.018658 -4.641724 36,975 124 525 0
2020-02-19 09:13:59 GMT 54.027328 -4.663068 36,975 124 524 -64
2020-02-19 09:13:56 GMT 54.033089 -4.677268 36,975 124 524 -64
2020-02-19 09:13:53 GMT 54.033089 -4.677268 36,975 124 524 -64
2020-02-19 09:13:50 GMT 54.035156 -4.682373 36,975 124 524 -64
2020-02-19 09:13:47 GMT 54.039841 -4.693909 36,975 124 524 -64
2020-02-19 09:13:44 GMT 54.043396 -4.702698 36,975 124 524 0
2020-02-19 09:13:41 GMT 54.046829 -4.711173 36,975 124 524 0
2020-02-19 09:13:38 GMT 54.053192 -4.726789 36,975 124 524 0
2020-02-19 09:13:35 GMT 54.055939 -4.733538 36,975 124 524 0
2020-02-19 09:13:32 GMT 54.060883 -4.745690 36,975 124 524 0
2020-02-19 09:13:29 GMT 54.064560 -4.754899 36,975 124 524 0
2020-02-19 09:13:26 GMT 54.067722 -4.762654 36,975 124 524 0
2020-02-19 09:13:23 GMT 54.071960 -4.773156 36,975 124 524 0
2020-02-19 09:13:20 GMT 54.076103 -4.783334 36,975 124 523 0
2020-02-19 09:13:17 GMT 54.081024 -4.795532 36,975 124 523 0
2020-02-19 09:13:14 GMT 54.085087 -4.805711 36,975 124 523 0
2020-02-19 09:13:11 GMT 54.088531 -4.814193 36,975 124 522 0
2020-02-19 09:13:08 GMT 54.094120 -4.828087 36,975 124 523 0
2020-02-19 09:13:05 GMT 54.096958 -4.835196 36,975 124 523 0
2020-02-19 09:13:02 GMT 54.102264 -4.848364 36,975 124 523 0
2020-02-19 09:12:59 GMT 54.109772 -4.867022 36,975 124 523 0
2020-02-19 09:12:56 GMT 54.109772 -4.867022 36,975 124 523 0
2020-02-19 09:12:50 GMT 54.118973 -4.890093 36,975 124 521 0
2020-02-19 09:12:47 GMT 54.121033 -4.895115 36,975 124 521 0
2020-02-19 09:12:44 GMT 54.125931 -4.907357 36,975 124 522 0
2020-02-19 09:12:41 GMT 54.129730 -4.916867 36,975 124 522 0
2020-02-19 09:12:38 GMT 54.133923 -4.927368 36,975 124 522 0
2020-02-19 09:12:35 GMT 54.138840 -4.939532 36,975 124 522 0
2020-02-19 09:12:32 GMT 54.142117 -4.947644 36,975 124 522 0
2020-02-19 09:12:28 GMT 54.147141 -4.960166 36,975 124 522 0
2020-02-19 09:12:25 GMT 54.151890 -4.972041 36,975 124 521 0
2020-02-19 09:12:19 GMT 54.164658 -5.003880 36,975 124 521 0
2020-02-19 09:12:16 GMT 54.164658 -5.003880 36,975 124 521 0
2020-02-19 09:12:13 GMT 54.167633 -5.011335 36,975 124 521 0
2020-02-19 09:12:10 GMT 54.171295 -5.020517 36,975 124 521 0
2020-02-19 09:12:07 GMT 54.176750 -5.034000 36,975 124 521 0
2020-02-19 09:12:04 GMT 54.179993 -5.042175 36,975 124 521 0
2020-02-19 09:12:01 GMT 54.183498 -5.050964 36,975 124 521 0
2020-02-19 09:11:58 GMT 54.187592 -5.061166 36,975 124 521 0
2020-02-19 09:11:55 GMT 54.192066 -5.072291 36,975 124 520 0
2020-02-19 09:11:52 GMT 54.196793 -5.084159 36,975 124 520 0
2020-02-19 09:11:49 GMT 54.200272 -5.092948 36,975 124 520 0
2020-02-19 09:11:46 GMT 54.204758 -5.104170 36,975 124 520 0
2020-02-19 09:11:43 GMT 54.208923 -5.114607 36,975 124 520 0
2020-02-19 09:11:40 GMT 54.212860 -5.124416 36,975 124 520 0
2020-02-19 09:11:37 GMT 54.216877 -5.134574 36,975 124 520 0
2020-02-19 09:11:34 GMT 54.221741 -5.146781 36,975 124 520 0
2020-02-19 09:11:31 GMT 54.224049 -5.152588 36,975 124 519 0
2020-02-19 09:11:28 GMT 54.228928 -5.164751 36,975 124 519 0
2020-02-19 09:11:25 GMT 54.233368 -5.175895 36,975 124 519 0
2020-02-19 09:11:22 GMT 54.236435 -5.183742 36,975 124 519 0
2020-02-19 09:11:19 GMT 54.239960 -5.192531 36,975 124 519 0
2020-02-19 09:11:16 GMT 54.245880 -5.207439 36,975 124 519 0
2020-02-19 09:11:13 GMT 54.248840 -5.214896 36,975 124 519 0
2020-02-19 09:11:10 GMT 54.254059 -5.228080 36,975 124 519 0
2020-02-19 09:11:07 GMT 54.257446 -5.236555 36,975 124 517 0
2020-02-19 09:11:04 GMT 54.261333 -5.246376 36,975 124 519 0
2020-02-19 09:11:01 GMT 54.264919 -5.255504 36,975 124 519 0
2020-02-19 09:10:58 GMT 54.273239 -5.276498 36,975 124 518 0
2020-02-19 09:10:55 GMT 54.273239 -5.276498 36,975 124 518 0
2020-02-19 09:10:52 GMT 54.277405 -5.287013 36,975 124 518 0
2020-02-19 09:10:49 GMT 54.281166 -5.296492 36,975 124 517 0
2020-02-19 09:10:46 GMT 54.286659 -5.310392 36,975 124 517 0
2020-02-19 09:10:43 GMT 54.289219 -5.316800 36,975 124 518 0
2020-02-19 09:10:40 GMT 54.298157 -5.339439 36,975 124 517 0
2020-02-19 09:10:37 GMT 54.298157 -5.339439 36,975 124 517 -64
2020-02-19 09:10:34 GMT 54.301117 -5.346868 36,975 124 517 0
2020-02-19 09:10:31 GMT 54.305008 -5.356724 36,975 124 517 0
2020-02-19 09:10:28 GMT 54.309128 -5.367225 36,975 124 517 0
2020-02-19 09:10:25 GMT 54.313156 -5.377323 36,975 124 516 0
2020-02-19 09:10:19 GMT 54.321442 -5.398326 36,975 124 516 0
2020-02-19 09:10:16 GMT 54.325436 -5.408436 36,975 124 516 0
2020-02-19 09:10:13 GMT 54.329453 -5.418602 36,975 124 516 64
2020-02-19 09:10:10 GMT 54.334351 -5.431124 36,975 124 516 0
2020-02-19 09:10:06 GMT 54.338882 -5.442595 36,975 123 516 0
2020-02-19 09:10:03 GMT 54.342335 -5.451383 36,975 123 515 0
2020-02-19 09:10:00 GMT 54.346760 -5.462536 36,975 123 516 0
2020-02-19 09:09:57 GMT 54.350601 -5.472403 36,975 123 516 0
2020-02-19 09:09:54 GMT 54.355511 -5.484924 36,975 123 516 0
2020-02-19 09:09:51 GMT 54.359467 -5.495078 36,975 123 515 0
2020-02-19 09:09:42 GMT 54.370468 -5.523134 36,975 123 515 64
2020-02-19 09:09:39 GMT 54.374458 -5.533281 36,975 123 515 64
2020-02-19 09:09:36 GMT 54.377335 -5.540664 36,975 123 514 64
2020-02-19 09:09:33 GMT 54.382507 -5.553912 36,975 123 514 0
2020-02-19 09:09:30 GMT 54.387131 -5.565706 36,975 123 514 0
2020-02-19 09:09:24 GMT 54.394409 -5.584286 36,975 123 514 0
2020-02-19 09:09:21 GMT 54.397312 -5.591791 36,975 123 514 0
2020-02-19 09:09:18 GMT 54.401829 -5.603277 36,975 123 514 0
2020-02-19 09:09:15 GMT 54.406311 -5.614741 36,975 123 514 0
2020-02-19 09:09:12 GMT 54.410934 -5.626616 36,975 123 514 0
2020-02-19 09:09:09 GMT 54.413956 -5.634371 36,975 123 514 0
2020-02-19 09:09:06 GMT 54.419357 -5.648265 36,975 123 514 0
2020-02-19 09:09:03 GMT 54.423340 -5.658444 36,975 123 514 0
2020-02-19 09:09:00 GMT 54.426224 -5.665866 36,975 123 514 0
2020-02-19 09:08:57 GMT 54.430710 -5.677347 36,975 123 514 0
2020-02-19 09:08:54 GMT 54.438095 -5.696328 36,950 123 514 0
2020-02-19 09:08:51 GMT 54.438095 -5.696328 36,950 123 514 0
2020-02-19 09:08:48 GMT 54.442337 -5.707155 36,950 123 514 0
2020-02-19 09:08:44 GMT 54.447868 -5.721380 36,950 123 514 0
2020-02-19 09:08:41 GMT 54.451126 -5.729855 36,950 123 514 0
2020-02-19 09:08:38 GMT 54.454292 -5.738026 36,950 123 514 64
2020-02-19 09:08:35 GMT 54.458771 -5.749485 36,950 123 514 64
2020-02-19 09:08:32 GMT 54.463512 -5.761746 36,950 123 514 0
2020-02-19 09:08:29 GMT 54.466782 -5.770165 36,950 123 514 0
2020-02-19 09:08:26 GMT 54.470352 -5.779374 36,950 123 514 0
2020-02-19 09:08:23 GMT 54.478638 -5.800700 36,950 123 514 0
2020-02-19 09:08:17 GMT 54.482830 -5.811518 36,950 123 514 -64
2020-02-19 09:08:14 GMT 54.487160 -5.822754 36,950 123 514 -64
2020-02-19 09:08:11 GMT 54.490448 -5.831236 36,950 123 513 -64
2020-02-19 09:08:05 GMT 54.498985 -5.853299 36,950 123 513 0
2020-02-19 09:08:02 GMT 54.502380 -5.862122 36,950 123 513 0
2020-02-19 09:07:59 GMT 54.505920 -5.871277 36,950 123 513 0
2020-02-19 09:07:56 GMT 54.509857 -5.881482 36,950 123 513 0
2020-02-19 09:07:53 GMT 54.514938 -5.894650 36,950 123 513 0
2020-02-19 09:07:50 GMT 54.518627 -5.904153 36,950 123 513 0
2020-02-19 09:07:47 GMT 54.521622 -5.912018 36,950 123 513 0
2020-02-19 09:07:44 GMT 54.525696 -5.922519 36,950 123 513 0
2020-02-19 09:07:41 GMT 54.530273 -5.934394 36,950 123 513 -64
2020-02-19 09:07:38 GMT 54.533573 -5.942938 36,950 123 513 -64
2020-02-19 09:07:35 GMT 54.538010 -5.954428 36,975 123 513 -64
2020-02-19 09:07:32 GMT 54.541809 -5.964284 36,975 123 513 -64
2020-02-19 09:07:29 GMT 54.545723 -5.974482 36,975 123 513 -64
2020-02-19 09:07:26 GMT 54.549500 -5.984398 36,950 123 511 -64
2020-02-19 09:07:23 GMT 54.556988 -6.003695 36,975 123 513 0
2020-02-19 09:07:17 GMT 54.560349 -6.012591 36,975 123 513 0
2020-02-19 09:07:14 GMT 54.565601 -6.026167 36,975 123 513 0
2020-02-19 09:07:11 GMT 54.568588 -6.033998 36,975 123 513 0
2020-02-19 09:07:08 GMT 54.573795 -6.047557 36,975 123 513 64
2020-02-19 09:07:04 GMT 54.578869 -6.060791 36,975 123 513 64
2020-02-19 09:07:01 GMT 54.586853 -6.081579 36,975 123 512 64
2020-02-19 09:06:58 GMT 54.586853 -6.081579 36,950 123 512 64
2020-02-19 09:06:55 GMT 54.589966 -6.089738 36,975 123 512 0
2020-02-19 09:06:52 GMT 54.593624 -6.099243 36,950 123 511 0
2020-02-19 09:06:49 GMT 54.597244 -6.108722 36,950 123 511 0
2020-02-19 09:06:46 GMT 54.600655 -6.117554 36,950 123 511 0
2020-02-19 09:06:43 GMT 54.605217 -6.129456 36,975 123 511 -64
2020-02-19 09:06:40 GMT 54.613266 -6.150486 36,975 123 512 -64
2020-02-19 09:06:37 GMT 54.613266 -6.150486 36,975 123 511 -64
2020-02-19 09:06:34 GMT 54.617134 -6.160667 36,975 123 511 -64
2020-02-19 09:06:30 GMT 54.623016 -6.175932 36,975 123 511 0
2020-02-19 09:06:27 GMT 54.627136 -6.186838 36,975 123 511 0
2020-02-19 09:06:24 GMT 54.630543 -6.195623 36,975 123 511 0
2020-02-19 09:06:21 GMT 54.634171 -6.205195 36,975 123 511 0
2020-02-19 09:06:18 GMT 54.641434 -6.224171 36,975 123 510 64
2020-02-19 09:06:12 GMT 54.650345 -6.247586 36,975 123 510 0
2020-02-19 09:06:09 GMT 54.650345 -6.247586 36,975 123 510 0
2020-02-19 09:06:05 GMT 54.654236 -6.257713 36,975 123 509 0
2020-02-19 09:06:02 GMT 54.658768 -6.269639 36,975 123 510 0
2020-02-19 09:05:59 GMT 54.665955 -6.288623 36,975 123 509 0
2020-02-19 09:05:53 GMT 54.670341 -6.300160 36,975 123 509 0
2020-02-19 09:05:50 GMT 54.674057 -6.309949 36,975 123 509 0
2020-02-19 09:05:47 GMT 54.679375 -6.323880 36,975 123 509 0
2020-02-19 09:05:44 GMT 54.682846 -6.333053 36,975 123 509 0
2020-02-19 09:05:41 GMT 54.685547 -6.340161 36,975 123 509 0
2020-02-19 09:05:38 GMT 54.688732 -6.348600 36,975 123 509 0
2020-02-19 09:05:35 GMT 54.696579 -6.369243 36,975 123 508 0
2020-02-19 09:05:32 GMT 54.696579 -6.369243 36,975 123 508 -64
2020-02-19 09:05:29 GMT 54.701859 -6.383140 36,975 123 508 -64
2020-02-19 09:05:26 GMT 54.708656 -6.401117 36,975 123 508 0
2020-02-19 09:05:23 GMT 54.712379 -6.410939 36,975 123 508 0
2020-02-19 09:05:20 GMT 54.717773 -6.425225 36,975 123 508 0
2020-02-19 09:05:17 GMT 54.717773 -6.425225 36,975 123 508 0
2020-02-19 09:05:14 GMT 54.719559 -6.429991 36,975 123 508 0
2020-02-19 09:05:11 GMT 54.724274 -6.442512 36,975 123 506 0
2020-02-19 09:05:08 GMT 54.727753 -6.451640 36,975 123 508 0
2020-02-19 09:05:05 GMT 54.731838 -6.462541 36,975 123 507 0
2020-02-19 09:05:01 GMT 54.738235 -6.479510 36,975 123 507 0
2020-02-19 09:04:58 GMT 54.741440 -6.487911 36,975 123 507 0
2020-02-19 09:04:55 GMT 54.745102 -6.497767 36,975 123 507 0
2020-02-19 09:04:52 GMT 54.753021 -6.518804 36,975 123 506 0
2020-02-19 09:04:49 GMT 54.756363 -6.527656 36,975 123 506 0
2020-02-19 09:04:46 GMT 54.756363 -6.527656 36,975 123 506 0
2020-02-19 09:04:43 GMT 54.760143 -6.537781 36,975 123 506 0
2020-02-19 09:04:40 GMT 54.763588 -6.546936 36,975 123 506 0
2020-02-19 09:04:36 GMT 54.770336 -6.564914 36,975 123 506 0
2020-02-19 09:04:33 GMT 54.773781 -6.574069 36,975 123 506 64
2020-02-19 09:04:30 GMT 54.777458 -6.583973 36,975 123 506 64
2020-02-19 09:04:27 GMT 54.780670 -6.592443 36,975 123 506 0
2020-02-19 09:04:24 GMT 54.783829 -6.600925 36,950 123 506 0
2020-02-19 09:04:21 GMT 54.791611 -6.621593 36,950 123 506 0
2020-02-19 09:04:15 GMT 54.795662 -6.632413 36,975 122 506 -64
2020-02-19 09:04:12 GMT 54.799255 -6.641962 36,975 122 506 -64
2020-02-19 09:04:09 GMT 54.803192 -6.652464 36,975 122 506 0
2020-02-19 09:04:06 GMT 54.807129 -6.662966 36,975 122 506 0
2020-02-19 09:04:03 GMT 54.810791 -6.672821 36,975 122 506 0
2020-02-19 09:04:00 GMT 54.815865 -6.686346 36,975 122 506 64
2020-02-19 09:03:54 GMT 54.823593 -6.707070 36,950 122 506 64
2020-02-19 09:03:51 GMT 54.825623 -6.712485 36,950 122 506 64
2020-02-19 09:03:48 GMT 54.829926 -6.724049 36,950 122 506 64
2020-02-19 09:03:45 GMT 54.833092 -6.732538 36,950 122 506 0
2020-02-19 09:03:42 GMT 54.837662 -6.744798 36,950 122 506 0
2020-02-19 09:03:39 GMT 54.845398 -6.765478 36,950 122 506 0
2020-02-19 09:03:36 GMT 54.845398 -6.765478 36,950 122 505 0
2020-02-19 09:03:33 GMT 54.848557 -6.774041 36,950 122 506 0
2020-02-19 09:03:30 GMT 54.853851 -6.788302 36,950 122 506 0
2020-02-19 09:03:27 GMT 54.856506 -6.795460 36,950 122 506 0
2020-02-19 09:03:24 GMT 54.860088 -6.804948 36,950 122 506 0
2020-02-19 09:03:21 GMT 54.863342 -6.813785 36,950 122 505 0
2020-02-19 09:03:18 GMT 54.871353 -6.835161 36,950 122 505 0
2020-02-19 09:03:15 GMT 54.871353 -6.835161 36,950 122 505 0
2020-02-19 09:03:12 GMT 54.876160 -6.848118 36,950 122 505 -64
2020-02-19 09:03:09 GMT 54.879044 -6.855953 36,950 122 505 -64
2020-02-19 09:03:06 GMT 54.882706 -6.865809 36,950 122 505 -64
2020-02-19 09:03:03 GMT 54.887650 -6.879057 36,975 122 505 0
2020-02-19 09:03:00 GMT 54.890163 -6.885848 36,975 122 505 0
2020-02-19 09:02:57 GMT 54.893829 -6.895779 36,950 122 505 0
2020-02-19 09:02:54 GMT 54.897766 -6.906281 36,950 122 505 64
2020-02-19 09:02:51 GMT 54.901932 -6.917509 36,950 122 505 64
2020-02-19 09:02:48 GMT 54.905731 -6.927768 36,950 122 505 64
2020-02-19 09:02:45 GMT 54.909992 -6.939281 36,950 122 505 64
2020-02-19 09:02:41 GMT 54.914417 -6.951266 36,950 122 505 0
2020-02-19 09:02:38 GMT 54.917679 -6.960081 36,950 122 505 0
2020-02-19 09:02:35 GMT 54.923492 -6.975736 36,950 122 505 0
2020-02-19 09:02:32 GMT 54.926891 -6.984974 36,950 122 505 0
2020-02-19 09:02:29 GMT 54.930012 -6.993464 36,950 122 505 0
2020-02-19 09:02:26 GMT 54.933792 -7.003703 36,950 122 505 0
2020-02-19 09:02:23 GMT 54.936714 -7.011525 36,950 122 505 0
2020-02-19 09:02:20 GMT 54.940113 -7.020763 36,950 122 505 0
2020-02-19 09:02:17 GMT 54.944870 -7.033673 36,950 122 505 0
2020-02-19 09:02:14 GMT 54.948914 -7.044567 36,950 122 504 0
2020-02-19 09:02:11 GMT 54.952309 -7.053805 36,950 122 504 0
2020-02-19 09:02:08 GMT 54.955799 -7.063377 36,950 122 504 0
2020-02-19 09:02:05 GMT 54.958965 -7.071866 36,950 122 504 0
2020-02-19 09:02:02 GMT 54.962952 -7.082789 36,950 122 504 0
2020-02-19 09:01:59 GMT 54.967987 -7.096360 36,950 122 504 0
2020-02-19 09:01:56 GMT 54.971741 -7.106619 36,950 122 504 0
2020-02-19 09:01:53 GMT 54.976284 -7.118891 36,950 122 504 0
2020-02-19 09:01:50 GMT 54.978146 -7.123968 36,950 122 504 0
2020-02-19 09:01:47 GMT 54.986946 -7.147855 36,950 122 504 0
2020-02-19 09:01:43 GMT 54.986946 -7.147855 36,950 122 504 0
2020-02-19 09:01:40 GMT 54.990810 -7.158425 36,950 122 504 0
2020-02-19 09:01:37 GMT 54.998817 -7.180231 36,950 122 504 0
2020-02-19 09:01:34 GMT 55.002678 -7.190801 36,950 122 504 0
2020-02-19 09:01:31 GMT 55.002678 -7.190801 36,950 122 504 0
2020-02-19 09:01:28 GMT 55.007446 -7.203800 36,950 122 504 0
2020-02-19 09:01:25 GMT 55.010452 -7.212025 36,950 122 504 -64
2020-02-19 09:01:22 GMT 55.014828 -7.223927 36,950 122 504 -64
2020-02-19 09:01:18 GMT 55.018616 -7.234174 36,950 122 505 -64
2020-02-19 09:01:15 GMT 55.022835 -7.245816 36,950 122 505 0
2020-02-19 09:01:12 GMT 55.025631 -7.253307 36,950 122 505 0
2020-02-19 09:01:09 GMT 55.029144 -7.262932 36,950 122 505 0
2020-02-19 09:01:06 GMT 55.033405 -7.274531 36,950 122 505 0
2020-02-19 09:01:03 GMT 55.037888 -7.286844 36,950 122 505 0
2020-02-19 09:01:00 GMT 55.042282 -7.298880 36,950 122 505 0
2020-02-19 09:00:57 GMT 55.045040 -7.306408 36,975 122 505 0
2020-02-19 09:00:54 GMT 55.048534 -7.315979 36,975 122 505 0
2020-02-19 09:00:51 GMT 55.052765 -7.327639 36,950 122 505 0
2020-02-19 09:00:45 GMT 55.064034 -7.358593 36,950 122 506 0
2020-02-19 09:00:42 GMT 55.064034 -7.358593 36,950 122 506 0
2020-02-19 09:00:39 GMT 55.070389 -7.376108 36,950 122 506 64
2020-02-19 09:00:33 GMT 55.075241 -7.389517 36,950 122 506 0
2020-02-19 09:00:30 GMT 55.078903 -7.399454 36,950 122 506 0
2020-02-19 09:00:27 GMT 55.082520 -7.409471 36,950 122 506 0
2020-02-19 09:00:24 GMT 55.086411 -7.420134 36,950 122 506 0
2020-02-19 09:00:21 GMT 55.091034 -7.432897 36,950 122 507 0
2020-02-19 09:00:18 GMT 55.093502 -7.439742 36,950 122 507 0
2020-02-19 09:00:15 GMT 55.096901 -7.449063 36,950 122 507 0
2020-02-19 09:00:12 GMT 55.104397 -7.469788 36,950 122 511 0
2020-02-19 09:00:09 GMT 55.104397 -7.469788 36,950 122 508 64
2020-02-19 09:00:06 GMT 55.109390 -7.483628 36,950 122 508 0
2020-02-19 09:00:02 GMT 55.113892 -7.496088 36,950 122 509 0
2020-02-19 08:59:59 GMT 55.117619 -7.506492 36,950 122 509 0
2020-02-19 08:59:55 GMT 55.122025 -7.518607 36,950 122 509 0
2020-02-19 08:59:51 GMT 55.127766 -7.534624 36,950 122 511 0
2020-02-19 08:59:48 GMT 55.131443 -7.544694 36,950 122 511 0
2020-02-19 08:59:45 GMT 55.135208 -7.555201 36,950 122 511 0
2020-02-19 08:59:42 GMT 55.139099 -7.565945 36,950 122 511 0
2020-02-19 08:59:39 GMT 55.142532 -7.575396 36,950 122 514 0
2020-02-19 08:59:36 GMT 55.150345 -7.597129 36,950 122 514 0
2020-02-19 08:59:33 GMT 55.150345 -7.597129 36,950 122 515 0
2020-02-19 08:59:29 GMT 55.156586 -7.614333 36,950 122 517 0
2020-02-19 08:59:26 GMT 55.159882 -7.623542 36,950 122 518 0
2020-02-19 08:59:23 GMT 55.162449 -7.630587 36,950 122 519 -64
2020-02-19 08:59:20 GMT 55.166637 -7.642323 36,950 122 521 -128
2020-02-19 08:59:17 GMT 55.170826 -7.654058 36,950 122 522 -128
2020-02-19 08:59:14 GMT 55.174316 -7.663713 36,950 122 523 -128
2020-02-19 08:59:10 GMT 55.179428 -7.677989 36,950 122 525 -64
2020-02-19 08:59:07 GMT 55.182907 -7.687683 36,975 122 525 -64
2020-02-19 08:59:04 GMT 55.186615 -7.698104 36,975 122 526 -64
2020-02-19 08:59:01 GMT 55.191010 -7.710302 36,975 122 526 -64
2020-02-19 08:58:57 GMT 55.197083 -7.727217 36,975 122 527 -64
2020-02-19 08:58:54 GMT 55.200340 -7.736289 36,975 122 527 -64
2020-02-19 08:58:48 GMT 55.207306 -7.755701 36,975 122 527 -64
2020-02-19 08:58:45 GMT 55.211792 -7.768384 36,975 122 527 -64
2020-02-19 08:58:42 GMT 55.220219 -7.791804 36,975 121 526 128
2020-02-19 08:58:38 GMT 55.220219 -7.791804 36,975 122 527 64
2020-02-19 08:58:35 GMT 55.230507 -7.820601 36,975 121 526 128
2020-02-19 08:58:31 GMT 55.230507 -7.820601 36,975 121 526 128
2020-02-19 08:58:28 GMT 55.234509 -7.831837 36,950 121 526 64
2020-02-19 08:58:25 GMT 55.238747 -7.843739 36,950 121 527 64
2020-02-19 08:58:22 GMT 55.242096 -7.853124 36,950 122 528 -448
2020-02-19 08:58:19 GMT 55.246353 -7.865080 36,975 121 527 -256
2020-02-19 08:58:16 GMT 55.249081 -7.872703 36,975 122 528 -448
2020-02-19 08:58:09 GMT 55.258343 -7.898671 37,050 122 527 -768
2020-02-19 08:58:06 GMT 55.261044 -7.906244 37,075 121 526 -896
2020-02-19 08:58:03 GMT 55.271576 -7.935845 37,175 121 526 -1408
2020-02-19 08:57:59 GMT 55.271576 -7.935845 37,250 121 525 -1600
2020-02-19 08:57:56 GMT 55.275146 -7.945862 37,375 121 523 -1728
2020-02-19 08:57:49 GMT 55.282925 -7.967834 37,575 121 523 -1344
2020-02-19 08:57:46 GMT 55.291023 -7.990806 37,650 121 522 -1152
2020-02-19 08:57:40 GMT 55.296387 -8.005883 37,725 121 522 -1088
2020-02-19 08:57:36 GMT 55.300552 -8.017758 37,825 121 522 -960
2020-02-19 08:57:33 GMT 55.303871 -8.027094 37,825 121 522 -960
2020-02-19 08:57:29 GMT 55.308807 -8.041077 37,925 121 523 -896
2020-02-19 08:57:26 GMT 55.314159 -8.056141 37,925 121 523 -896
2020-02-19 08:57:23 GMT 55.316620 -8.062995 37,975 121 523 -896
2020-02-19 08:57:20 GMT 55.323891 -8.083441 38,050 122 525 -704
2020-02-19 08:57:17 GMT 55.323891 -8.083441 38,050 121 524 -768
2020-02-19 08:57:13 GMT 55.328918 -8.097506 38,075 122 525 -704
2020-02-19 08:57:10 GMT 55.332642 -8.107910 38,125 122 525 -704
2020-02-19 08:57:07 GMT 55.337036 -8.120189 38,175 121 527 -960
2020-02-19 08:57:04 GMT 55.341393 -8.132546 38,200 121 527 -704
2020-02-19 08:57:01 GMT 55.348190 -8.151772 38,300 121 528 -1152
2020-02-19 08:56:55 GMT 55.352657 -8.164506 38,375 121 528 -1408
2020-02-19 08:56:52 GMT 55.361710 -8.190388 38,500 121 527 -1344
2020-02-19 08:56:49 GMT 55.361710 -8.190388 38,550 121 527 -1280
2020-02-19 08:56:45 GMT 55.365276 -8.200628 38,625 121 527 -1024
2020-02-19 08:56:42 GMT 55.369080 -8.211472 38,625 121 527 -1024
2020-02-19 08:56:38 GMT 55.374298 -8.226417 38,725 121 527 -960
2020-02-19 08:56:35 GMT 55.378914 -8.239496 38,750 121 529 -576
2020-02-19 08:56:31 GMT 55.382492 -8.249682 38,825 121 527 -960
2020-02-19 08:56:28 GMT 55.390915 -8.273755 38,900 121 529 -384
2020-02-19 08:56:25 GMT 55.390915 -8.273755 38,975 121 532 -64
2020-02-19 08:56:22 GMT 55.395535 -8.286854 38,925 121 530 -320
2020-02-19 08:56:18 GMT 55.399887 -8.299363 38,950 121 531 -128
2020-02-19 08:56:14 GMT 55.405029 -8.313987 38,950 121 532 -64
2020-02-19 08:56:11 GMT 55.408356 -8.323517 38,950 121 532 0
2020-02-19 08:56:08 GMT 55.417603 -8.350013 38,950 121 532 0
2020-02-19 08:56:05 GMT 55.417603 -8.350013 38,950 121 532 0
2020-02-19 08:56:01 GMT 55.421696 -8.361761 38,950 121 532 0
2020-02-19 08:55:58 GMT 55.425934 -8.373912 38,950 121 532 0
2020-02-19 08:55:54 GMT 55.435043 -8.400098 38,975 121 531 0
2020-02-19 08:55:50 GMT 55.435043 -8.400098 38,950 121 532 -64
2020-02-19 08:55:47 GMT 55.439430 -8.412614 38,975 121 532 -64
2020-02-19 08:55:44 GMT 55.444931 -8.428428 38,975 121 532 0
2020-02-19 08:55:40 GMT 55.448135 -8.437583 38,975 121 531 0
2020-02-19 08:55:37 GMT 55.452621 -8.450484 38,950 121 532 0
2020-02-19 08:55:31 GMT 55.461090 -8.474787 38,950 121 531 0
2020-02-19 08:55:27 GMT 55.465302 -8.486938 38,950 121 532 0
2020-02-19 08:55:23 GMT 55.470795 -8.502835 38,950 121 531 0
2020-02-19 08:55:20 GMT 55.478989 -8.526473 38,975 121 532 -64
2020-02-19 08:55:16 GMT 55.478989 -8.526473 38,950 121 531 0
2020-02-19 08:55:13 GMT 55.483330 -8.538952 38,950 121 532 0
2020-02-19 08:55:10 GMT 55.487289 -8.550453 38,975 121 532 0
2020-02-19 08:55:07 GMT 55.491756 -8.563328 38,975 121 532 64
2020-02-19 08:55:02 GMT 55.498672 -8.583319 38,950 121 532 64
2020-02-19 08:54:59 GMT 55.501328 -8.591059 38,950 121 531 64
2020-02-19 08:54:54 GMT 55.507599 -8.609120 38,950 121 531 -64
2020-02-19 08:54:51 GMT 55.511581 -8.620605 38,950 121 531 -64
2020-02-19 08:54:48 GMT 55.514381 -8.628645 38,950 121 531 -64
2020-02-19 08:54:45 GMT 55.518494 -8.640497 38,950 121 531 -64
2020-02-19 08:54:41 GMT 55.523598 -8.655252 38,950 121 531 64
2020-02-19 08:54:38 GMT 55.528069 -8.668213 38,950 121 531 -64
2020-02-19 08:54:35 GMT 55.531235 -8.677397 38,950 121 531 0
2020-02-19 08:54:31 GMT 55.537704 -8.696280 38,950 121 531 0
2020-02-19 08:54:28 GMT 55.540638 -8.704777 38,950 121 531 64
2020-02-19 08:54:24 GMT 55.546646 -8.722063 38,950 121 532 64
2020-02-19 08:54:21 GMT 55.549343 -8.729839 38,950 121 532 0
2020-02-19 08:54:18 GMT 55.553650 -8.742454 38,950 121 532 0
2020-02-19 08:54:15 GMT 55.558235 -8.755760 38,950 121 531 0
2020-02-19 08:54:11 GMT 55.567017 -8.781322 38,950 121 531 0
2020-02-19 08:54:08 GMT 55.567017 -8.781322 38,950 121 531 0
2020-02-19 08:54:03 GMT 55.572327 -8.796886 38,950 121 531 0
2020-02-19 08:53:59 GMT 55.577412 -8.811722 38,950 121 531 0
2020-02-19 08:53:56 GMT 55.580578 -8.820906 38,950 121 531 0
2020-02-19 08:53:52 GMT 55.585648 -8.835754 38,950 121 531 -64
2020-02-19 08:53:49 GMT 55.590363 -8.849487 38,950 121 531 -64
2020-02-19 08:53:46 GMT 55.593613 -8.859100 38,975 121 531 0
2020-02-19 08:53:42 GMT 55.599472 -8.876121 38,950 121 530 64
2020-02-19 08:53:37 GMT 55.605904 -8.895063 38,950 121 530 64
2020-02-19 08:53:32 GMT 55.612373 -8.913946 38,950 121 530 64
2020-02-19 08:53:29 GMT 55.615818 -8.923903 38,950 121 530 0
2020-02-19 08:53:26 GMT 55.618835 -8.932800 38,950 121 531 0
2020-02-19 08:53:23 GMT 55.631508 -8.969908 38,950 121 531 0
2020-02-19 08:53:17 GMT 55.631508 -8.969908 38,950 121 531 0
2020-02-19 08:53:13 GMT 55.635269 -8.980990 38,950 120 531 0
2020-02-19 08:53:09 GMT 55.644215 -9.007416 38,950 120 531 0
2020-02-19 08:53:06 GMT 55.644215 -9.007416 38,950 120 531 0
2020-02-19 08:53:02 GMT 55.649151 -9.021921 38,950 120 530 0
2020-02-19 08:52:58 GMT 55.653900 -9.036005 38,950 120 530 0
2020-02-19 08:52:55 GMT 55.657948 -9.047842 38,950 120 530 0
2020-02-19 08:52:52 GMT 55.670288 -9.084278 38,950 120 530 0
2020-02-19 08:52:46 GMT 55.670288 -9.084278 38,975 121 529 0
2020-02-19 08:52:43 GMT 55.672897 -9.092019 38,975 121 529 0
2020-02-19 08:52:39 GMT 55.683598 -9.123545 38,975 121 529 0
2020-02-19 08:52:35 GMT 55.683598 -9.123545 38,975 121 529 0
2020-02-19 08:52:32 GMT 55.687866 -9.136131 38,975 121 529 0
2020-02-19 08:52:29 GMT 55.690395 -9.143543 38,950 121 529 0
2020-02-19 08:52:26 GMT 55.695419 -9.158436 38,950 121 529 0
2020-02-19 08:52:22 GMT 55.699940 -9.171782 38,950 120 529 0
2020-02-19 08:52:18 GMT 55.704967 -9.186544 38,975 120 529 0
2020-02-19 08:52:13 GMT 55.710831 -9.204054 38,975 120 528 0
2020-02-19 08:52:10 GMT 55.715103 -9.216614 38,975 120 528 0
2020-02-19 08:52:05 GMT 55.722237 -9.237785 38,975 120 529 0
2020-02-19 08:52:02 GMT 55.724487 -9.244496 38,975 120 529 0
2020-02-19 08:51:59 GMT 55.728149 -9.255209 38,975 120 529 0
2020-02-19 08:51:55 GMT 55.733131 -9.270058 38,975 120 529 0
2020-02-19 08:51:52 GMT 55.741276 -9.294176 38,950 120 528 0
2020-02-19 08:51:46 GMT 55.745140 -9.305677 38,950 120 528 0
2020-02-19 08:51:42 GMT 55.749798 -9.319410 38,950 120 528 0
2020-02-19 08:51:39 GMT 55.753510 -9.330472 38,950 120 528 0
2020-02-19 08:51:34 GMT 55.761246 -9.353527 38,950 120 527 0
2020-02-19 08:51:31 GMT 55.763123 -9.359103 38,950 120 527 0
2020-02-19 08:51:26 GMT 55.770218 -9.380243 38,950 120 527 0
2020-02-19 08:51:21 GMT 55.776169 -9.398055 38,950 120 526 0
2020-02-19 08:51:17 GMT 55.781021 -9.412537 38,975 120 526 0
2020-02-19 08:51:13 GMT 55.791183 -9.442915 38,975 120 526 0
2020-02-19 08:51:05 GMT 55.801098 -9.472618 38,950 120 526 0
2020-02-19 08:51:01 GMT 55.801098 -9.472618 38,950 120 526 0
2020-02-19 08:50:57 GMT 55.805660 -9.486265 38,950 120 525 0
2020-02-19 08:50:52 GMT 55.813480 -9.509611 38,950 120 525 0
2020-02-19 08:50:45 GMT 55.820648 -9.531069 38,950 120 525 0
2020-02-19 08:50:40 GMT 55.827072 -9.550295 38,950 120 525 0
2020-02-19 08:50:36 GMT 55.831238 -9.562933 38,950 120 524 0
2020-02-19 08:50:33 GMT 55.836662 -9.579220 38,975 120 524 0
2020-02-19 08:50:29 GMT 55.840622 -9.591064 38,975 120 524 0
2020-02-19 08:50:25 GMT 55.845276 -9.605141 38,950 120 524 0
2020-02-19 08:50:20 GMT 55.851189 -9.622822 38,975 120 524 0
2020-02-19 08:50:15 GMT 55.858078 -9.643507 38,950 120 523 0
2020-02-19 08:50:11 GMT 55.863739 -9.660561 38,950 120 523 0
2020-02-19 08:50:07 GMT 55.867767 -9.672796 38,950 120 523 -64
2020-02-19 08:49:59 GMT 55.876556 -9.699469 38,975 120 523 -64
2020-02-19 08:49:56 GMT 55.884247 -9.722734 38,975 120 522 0
2020-02-19 08:49:50 GMT 55.889008 -9.737133 38,975 120 521 0
2020-02-19 08:49:46 GMT 55.892532 -9.747786 38,975 120 521 64
2020-02-19 08:49:43 GMT 55.896156 -9.758863 38,975 120 521 64
2020-02-19 08:49:39 GMT 55.901779 -9.775918 38,975 120 521 0
2020-02-19 08:49:36 GMT 55.909657 -9.799891 38,975 120 521 0
2020-02-19 08:49:28 GMT 55.919571 -9.830189 38,975 120 520 0
2020-02-19 08:49:24 GMT 55.919571 -9.830189 38,975 120 520 0
2020-02-19 08:49:19 GMT 55.929245 -9.859730 38,975 120 520 0
2020-02-19 08:49:16 GMT 55.932838 -9.870872 38,975 119 520 0
2020-02-19 08:49:06 GMT 55.946384 -9.912672 38,950 120 519 64
2020-02-19 08:48:55 GMT 55.955605 -9.941168 38,950 120 519 64
2020-02-19 08:48:48 GMT 55.964081 -9.967346 38,950 120 518 0
2020-02-19 08:48:44 GMT 55.967697 -9.978499 38,950 120 518 0
2020-02-19 08:48:37 GMT 55.976395 -10.005465 38,950 119 519 0
2020-02-19 08:48:33 GMT 55.981247 -10.020696 38,950 119 518 0
2020-02-19 08:48:26 GMT 55.992985 -10.057812 38,950 119 518 0
2020-02-19 08:48:17 GMT 56.000793 -10.082786 38,950 119 517 0
2020-02-19 08:48:14 GMT 56.003597 -10.091629 38,950 119 517 0
2020-02-19 08:48:09 GMT 56.009445 -10.110252 38,950 118 517 -64
2020-02-19 08:48:05 GMT 56.013607 -10.123730 38,950 118 517 -64
2020-02-19 08:47:57 GMT 56.023224 -10.155113 38,975 118 517 0
2020-02-19 08:47:53 GMT 56.026611 -10.166349 38,975 118 517 0
2020-02-19 08:47:47 GMT 56.033581 -10.189648 38,975 118 517 0
2020-02-19 08:47:44 GMT 56.038185 -10.205183 38,975 117 517 0
2020-02-19 08:47:33 GMT 56.049179 -10.243003 38,975 116 518 0
2020-02-19 08:47:27 GMT 56.055542 -10.265558 38,950 116 519 0
2020-02-19 08:47:24 GMT 56.059662 -10.280457 38,950 115 519 0
2020-02-19 08:47:12 GMT 56.071243 -10.324235 38,950 114 519 64
2020-02-19 08:47:04 GMT 56.079575 -10.357444 38,950 113 519 0
2020-02-19 08:46:56 GMT 56.086601 -10.387058 38,950 111 520 0
2020-02-19 08:46:52 GMT 56.090233 -10.403023 38,950 112 520 0
2020-02-19 08:46:49 GMT 56.093079 -10.415788 38,950 111 520 0
2020-02-19 08:46:42 GMT 56.098984 -10.442591 38,950 111 520 0
2020-02-19 08:46:33 GMT 56.107784 -10.482073 38,950 111 520 0
2020-02-19 08:46:22 GMT 56.117046 -10.524044 38,975 111 520 -64
2020-02-19 08:46:14 GMT 56.123981 -10.555630 38,975 111 519 0
2020-02-19 08:46:11 GMT 56.126541 -10.567183 38,975 111 519 0
2020-02-19 08:46:02 GMT 56.135296 -10.607128 38,950 111 519 64
2020-02-19 08:45:51 GMT 56.144279 -10.648327 38,950 111 520 64
2020-02-19 08:45:44 GMT 56.150253 -10.675964 38,950 111 519 0
2020-02-19 08:45:40 GMT 56.153366 -10.690363 38,950 111 519 0
2020-02-19 08:45:34 GMT 56.159042 -10.716331 38,950 111 519 0
2020-02-19 08:45:30 GMT 56.162621 -10.732698 38,950 111 519 0
2020-02-19 08:45:23 GMT 56.167969 -10.757030 38,950 111 519 0
2020-02-19 08:45:20 GMT 56.171219 -10.771845 38,950 111 519 0
2020-02-19 08:45:13 GMT 56.178123 -10.803337 38,950 111 518 -64
2020-02-19 08:45:09 GMT 56.180878 -10.816123 38,950 111 518 0
2020-02-19 08:45:03 GMT 56.185593 -10.837680 38,950 111 518 0
2020-02-19 08:45:00 GMT 56.189301 -10.854908 38,950 111 518 0
2020-02-19 08:44:52 GMT 56.195343 -10.882874 38,950 111 518 0
2020-02-19 08:44:49 GMT 56.197998 -10.895275 38,950 111 517 0
2020-02-19 08:44:42 GMT 56.204052 -10.923328 38,950 111 518 0
2020-02-19 08:44:38 GMT 56.207520 -10.939303 38,950 111 518 64
2020-02-19 08:44:33 GMT 56.212013 -10.960064 38,950 111 517 0
2020-02-19 08:44:29 GMT 56.216263 -10.979670 38,950 111 518 0
2020-02-19 08:44:22 GMT 56.220997 -11.001692 38,950 111 518 0
2020-02-19 08:44:17 GMT 56.225189 -11.021347 38,950 111 518 64
2020-02-19 08:44:11 GMT 56.230865 -11.047783 38,950 111 518 0
2020-02-19 08:44:08 GMT 56.233795 -11.061401 38,950 111 518 -64
2020-02-19 08:44:03 GMT 56.237869 -11.080211 38,950 111 518 -64
2020-02-19 08:43:57 GMT 56.242737 -11.103058 38,950 111 518 0
2020-02-19 08:43:50 GMT 56.248417 -11.129494 38,950 111 518 64
2020-02-19 08:43:46 GMT 56.251770 -11.145115 38,950 110 519 0
2020-02-19 08:43:41 GMT 56.256889 -11.169233 38,950 110 519 0
2020-02-19 08:43:37 GMT 56.260666 -11.186912 38,950 111 518 0
2020-02-19 08:43:30 GMT 56.265690 -11.210604 38,950 110 519 0
2020-02-19 08:43:26 GMT 56.269272 -11.227445 38,950 110 519 0
2020-02-19 08:43:22 GMT 56.272293 -11.241511 38,950 110 519 0
2020-02-19 08:43:15 GMT 56.278885 -11.272472 38,950 110 519 0
2020-02-19 08:43:10 GMT 56.282547 -11.289784 38,950 110 519 0
2020-02-19 08:43:06 GMT 56.287170 -11.311507 38,950 110 520 0
2020-02-19 08:43:01 GMT 56.290649 -11.327986 38,950 110 520 -64
2020-02-19 08:42:54 GMT 56.296505 -11.355743 38,950 110 520 -64
2020-02-19 08:42:50 GMT 56.299763 -11.371107 38,950 110 520 -64
2020-02-19 08:42:44 GMT 56.304794 -11.394820 38,950 110 519 0
2020-02-19 08:42:40 GMT 56.308456 -11.412215 38,950 110 520 0
2020-02-19 08:42:35 GMT 56.313728 -11.437197 38,950 110 520 64
2020-02-19 08:42:30 GMT 56.317200 -11.453746 38,950 110 520 64
2020-02-19 08:42:24 GMT 56.322296 -11.477966 38,950 110 520 0
2020-02-19 08:42:20 GMT 56.325806 -11.494529 38,950 110 520 0
2020-02-19 08:42:13 GMT 56.334549 -11.536144 38,950 110 520 0
2020-02-19 08:42:09 GMT 56.334549 -11.536144 38,950 110 520 0
2020-02-19 08:42:03 GMT 56.339520 -11.559935 38,950 110 520 -64
2020-02-19 08:41:59 GMT 56.343246 -11.577759 38,950 110 521 -64
2020-02-19 08:41:52 GMT 56.348923 -11.604910 38,950 110 521 0
2020-02-19 08:41:48 GMT 56.352448 -11.621954 38,950 110 521 64
2020-02-19 08:41:42 GMT 56.357769 -11.647482 38,950 110 521 0
2020-02-19 08:41:38 GMT 56.361145 -11.663652 38,950 110 521 0
2020-02-19 08:41:33 GMT 56.365860 -11.686374 38,950 110 521 0
2020-02-19 08:41:27 GMT 56.369778 -11.705074 38,950 110 521 0
2020-02-19 08:41:19 GMT 56.376575 -11.737862 38,950 110 522 -64
2020-02-19 08:41:11 GMT 56.383438 -11.770769 38,950 110 522 -64
2020-02-19 08:41:02 GMT 56.392033 -11.812191 38,950 110 521 0
2020-02-19 08:40:57 GMT 56.395798 -11.830528 38,950 110 521 0
2020-02-19 08:40:51 GMT 56.400558 -11.853665 38,950 110 521 0
2020-02-19 08:40:46 GMT 56.404694 -11.873560 38,950 110 521 0
2020-02-19 08:40:40 GMT 56.409988 -11.899192 38,950 110 521 0
2020-02-19 08:40:36 GMT 56.412842 -11.913042 38,950 110 521 0
2020-02-19 08:40:31 GMT 56.418274 -11.939475 38,950 110 522 0
2020-02-19 08:40:25 GMT 56.422012 -11.957846 38,950 110 522 0
2020-02-19 08:40:20 GMT 56.426880 -11.981423 38,950 110 522 0
2020-02-19 08:40:14 GMT 56.431046 -12.001814 38,950 110 522 0
2020-02-19 08:40:10 GMT 56.435837 -12.025051 38,950 110 522 0
2020-02-19 08:40:04 GMT 56.439789 -12.044178 38,950 110 522 0
2020-02-19 08:39:58 GMT 56.444687 -12.068315 38,950 110 522 0
2020-02-19 08:39:49 GMT 56.452686 -12.107534 38,950 110 522 0
2020-02-19 08:39:39 GMT 56.461395 -12.150380 38,950 110 522 0
2020-02-19 08:39:28 GMT 56.470192 -12.193794 38,950 110 522 0
2020-02-19 08:39:17 GMT 56.479176 -12.238426 38,950 110 522 0
2020-02-19 08:39:08 GMT 56.487091 -12.277222 38,950 110 522 0
2020-02-19 08:39:01 GMT 56.491791 -12.300609 38,950 110 522 0
We lost coverage of the aircraft here for a total of 228 minutes
2020-02-19 04:51:30 GMT 46.881176 -65.124908 34,950 50 546 0
2020-02-19 04:51:25 GMT 46.873489 -65.138557 34,950 50 547 -64
2020-02-19 04:49:57 GMT 46.732498 -65.388214 34,975 50 546 0
2020-02-19 04:46:32 GMT 46.400059 -65.967819 34,975 50 551 0
2020-02-19 04:46:23 GMT 46.385487 -65.992950 34,975 50 551 0
2020-02-19 04:46:16 GMT 46.372238 -66.015839 34,975 50 551 0
2020-02-19 04:46:04 GMT 46.354248 -66.046860 34,975 49 551 0
2020-02-19 04:45:25 GMT 46.289730 -66.157539 34,950 49 552 0
2020-02-19 04:45:22 GMT 46.284981 -66.165710 34,950 49 552 0
2020-02-19 04:45:13 GMT 46.269196 -66.192764 34,950 49 552 -64
2020-02-19 04:45:03 GMT 46.253403 -66.219757 34,950 49 553 0
2020-02-19 04:44:52 GMT 46.235596 -66.250168 34,950 49 553 64
2020-02-19 04:44:49 GMT 46.230980 -66.258064 34,950 49 553 0
2020-02-19 04:44:43 GMT 46.219574 -66.277504 34,950 49 554 0
2020-02-19 04:44:37 GMT 46.211617 -66.290955 34,950 49 554 0
2020-02-19 04:44:28 GMT 46.196411 -66.316895 34,950 49 554 -64
2020-02-19 04:44:19 GMT 46.179382 -66.345970 34,950 49 555 0
2020-02-19 04:44:07 GMT 46.160980 -66.377182 34,950 49 555 -64
2020-02-19 04:43:57 GMT 46.144867 -66.404518 34,950 49 555 0
2020-02-19 04:43:48 GMT 46.128113 -66.432983 34,950 49 556 64
2020-02-19 04:43:40 GMT 46.114834 -66.455612 34,950 49 556 64
2020-02-19 04:43:36 GMT 46.110672 -66.462662 34,950 49 556 64
2020-02-19 04:43:27 GMT 46.092674 -66.493103 34,950 49 556 -64
2020-02-19 04:43:16 GMT 46.076195 -66.520981 34,975 49 557 -64
2020-02-19 04:43:05 GMT 46.058350 -66.551155 34,975 49 557 0
2020-02-19 04:42:55 GMT 46.040497 -66.581299 34,975 49 556 -64
2020-02-19 04:42:45 GMT 46.024151 -66.608871 34,975 49 556 0
2020-02-19 04:42:35 GMT 46.006969 -66.637779 34,975 49 556 64
2020-02-19 04:42:24 GMT 45.989456 -66.667252 34,950 49 556 0
2020-02-19 04:42:14 GMT 45.972290 -66.696121 34,950 49 556 0
2020-02-19 04:42:04 GMT 45.954556 -66.725876 34,950 49 556 0
2020-02-19 04:42:00 GMT 45.949711 -66.733978 34,950 49 556 0
2020-02-19 04:41:53 GMT 45.937546 -66.754471 34,950 49 556 0
2020-02-19 04:41:46 GMT 45.927322 -66.771538 34,975 49 556 0
2020-02-19 04:41:43 GMT 45.915436 -66.791451 34,950 49 557 0
2020-02-19 04:41:32 GMT 45.898178 -66.820320 34,950 49 557 0
2020-02-19 04:41:22 GMT 45.885269 -66.841827 34,950 49 558 64
2020-02-19 04:41:18 GMT 45.879883 -66.850845 34,950 49 558 64
2020-02-19 04:41:12 GMT 45.868011 -66.870697 34,950 49 558 -64
2020-02-19 04:41:09 GMT 45.863964 -66.877487 34,950 49 558 -64
2020-02-19 04:40:58 GMT 45.846321 -66.906876 34,975 49 558 -64
2020-02-19 04:40:51 GMT 45.832718 -66.929512 34,975 49 558 0
2020-02-19 04:40:48 GMT 45.829193 -66.935410 34,975 49 558 0
2020-02-19 04:40:40 GMT 45.815781 -66.957855 34,975 49 558 64
2020-02-19 04:40:34 GMT 45.805023 -66.975807 34,950 49 558 64
2020-02-19 04:40:30 GMT 45.797813 -66.987831 34,950 49 558 0
2020-02-19 04:40:20 GMT 45.780121 -67.017220 34,950 49 558 0
2020-02-19 04:40:09 GMT 45.744873 -67.075623 34,975 49 558 0
2020-02-19 04:39:59 GMT 45.744873 -67.075623 34,975 49 558 0
2020-02-19 04:39:48 GMT 45.727844 -67.103821 34,975 49 558 0
2020-02-19 04:39:35 GMT 45.706429 -67.139168 34,975 49 558 0
2020-02-19 04:39:28 GMT 45.692650 -67.162033 34,975 49 557 0
2020-02-19 04:39:17 GMT 45.675430 -67.190437 34,975 49 557 0
2020-02-19 04:39:06 GMT 45.657085 -67.220741 34,975 49 557 -64
2020-02-19 04:39:02 GMT 45.650150 -67.232140 34,975 49 557 -64
2020-02-19 04:38:56 GMT 45.640228 -67.248520 34,975 49 557 -64
2020-02-19 04:38:50 GMT 45.630783 -67.264069 34,975 49 556 -64
2020-02-19 04:38:44 GMT 45.619656 -67.282333 34,975 49 556 -64
2020-02-19 04:38:36 GMT 45.605038 -67.306366 34,975 49 555 0
2020-02-19 04:38:28 GMT 45.592758 -67.326561 34,975 49 555 64
2020-02-19 04:38:23 GMT 45.585209 -67.338982 34,975 49 555 64
2020-02-19 04:38:18 GMT 45.574951 -67.355835 34,975 49 554 0
2020-02-19 04:38:14 GMT 45.561172 -67.378410 34,975 49 555 -64
2020-02-19 04:38:06 GMT 45.556320 -67.386452 34,975 49 555 -64
2020-02-19 04:38:02 GMT 45.549595 -67.397415 34,975 49 555 -64
2020-02-19 04:37:57 GMT 45.540192 -67.412849 34,975 48 554 0
2020-02-19 04:37:53 GMT 45.535305 -67.420815 34,975 48 554 0
2020-02-19 04:37:47 GMT 45.522720 -67.441475 34,975 48 554 64
2020-02-19 04:37:44 GMT 45.517822 -67.449387 34,950 48 554 64
2020-02-19 04:37:33 GMT 45.500717 -67.477425 34,950 48 554 0
2020-02-19 04:37:30 GMT 45.495502 -67.485931 34,950 48 554 0
2020-02-19 04:37:25 GMT 45.485916 -67.501572 34,950 48 553 0
2020-02-19 04:37:21 GMT 45.480377 -67.510597 34,975 48 552 0
2020-02-19 04:37:10 GMT 45.462753 -67.539368 34,975 48 553 0
2020-02-19 04:37:00 GMT 45.445084 -67.568138 34,975 48 552 -64
2020-02-19 04:36:52 GMT 45.430115 -67.592400 34,975 48 552 -64
2020-02-19 04:36:49 GMT 45.427780 -67.596260 34,975 48 552 -64
2020-02-19 04:36:44 GMT 45.417984 -67.612022 34,975 48 552 0
2020-02-19 04:36:39 GMT 45.410080 -67.624802 34,975 48 552 0
2020-02-19 04:36:28 GMT 45.392387 -67.653343 34,975 48 551 64
2020-02-19 04:36:21 GMT 45.378067 -67.676369 34,950 48 551 0
2020-02-19 04:36:18 GMT 45.374496 -67.682060 34,950 48 551 0
2020-02-19 04:36:13 GMT 45.364830 -67.697418 34,950 48 551 -64
2020-02-19 04:36:08 GMT 45.357197 -67.709541 34,950 48 550 -64
2020-02-19 04:35:58 GMT 45.340439 -67.735619 34,975 47 549 0
2020-02-19 04:35:47 GMT 45.321808 -67.764061 34,975 46 548 0
2020-02-19 04:35:37 GMT 45.304596 -67.789833 34,975 45 546 0
2020-02-19 04:35:26 GMT 45.285736 -67.817162 34,975 45 545 0
2020-02-19 04:35:16 GMT 45.267197 -67.843910 34,975 45 545 0
2020-02-19 04:35:06 GMT 45.249390 -67.869675 34,975 45 545 0
2020-02-19 04:34:55 GMT 45.230854 -67.896378 34,975 45 545 0
2020-02-19 04:34:45 GMT 45.212128 -67.923302 34,975 45 544 0
2020-02-19 04:34:37 GMT 45.196823 -67.945351 34,975 45 544 0
2020-02-19 04:34:34 GMT 45.194168 -67.949165 34,975 45 543 0
2020-02-19 04:34:24 GMT 45.175968 -67.975227 34,975 45 543 0
2020-02-19 04:34:17 GMT 45.163303 -67.993378 34,975 45 543 0
2020-02-19 04:34:14 GMT 45.157860 -68.001221 34,975 45 543 0
2020-02-19 04:34:03 GMT 45.139526 -68.027542 34,975 45 543 0
2020-02-19 04:33:53 GMT 45.121593 -68.053200 34,975 45 542 0
2020-02-19 04:33:43 GMT 45.102787 -68.080200 34,975 45 541 0
2020-02-19 04:33:36 GMT 45.090824 -68.097282 34,975 45 540 0
2020-02-19 04:33:32 GMT 45.085003 -68.105522 34,975 45 541 0
2020-02-19 04:33:22 GMT 45.066376 -68.132103 34,975 45 540 64
2020-02-19 04:33:12 GMT 45.048321 -68.157906 34,975 45 540 0
2020-02-19 04:33:01 GMT 45.029888 -68.184166 34,975 45 540 0
2020-02-19 04:32:51 GMT 45.011993 -68.209663 34,975 45 539 -64
2020-02-19 04:32:45 GMT 45.000931 -68.225365 34,975 45 538 0
2020-02-19 04:32:40 GMT 44.993763 -68.235550 34,975 45 538 0
2020-02-19 04:32:30 GMT 44.975327 -68.261673 34,975 45 538 64
2020-02-19 04:32:23 GMT 44.960266 -68.283035 34,975 45 538 0
2020-02-19 04:32:20 GMT 44.957638 -68.286797 34,975 45 538 0
2020-02-19 04:32:09 GMT 44.938599 -68.313927 34,975 45 537 -64
2020-02-19 04:32:03 GMT 44.927216 -68.329994 34,975 45 535 0
2020-02-19 04:31:59 GMT 44.921127 -68.338692 34,975 45 537 0
2020-02-19 04:31:49 GMT 44.903458 -68.363670 34,975 45 535 64
2020-02-19 04:31:42 GMT 44.892242 -68.379494 34,950 45 535 0
2020-02-19 04:31:38 GMT 44.884552 -68.390350 34,950 45 535 0
2020-02-19 04:31:33 GMT 44.875473 -68.403160 34,975 45 535 0
2020-02-19 04:31:28 GMT 44.866928 -68.415268 34,950 45 535 0
2020-02-19 04:31:17 GMT 44.848206 -68.441551 34,950 45 535 0
2020-02-19 04:31:11 GMT 44.834930 -68.460320 34,950 45 535 0
2020-02-19 04:31:07 GMT 44.830582 -68.466469 34,950 45 535 0
2020-02-19 04:31:01 GMT 44.819565 -68.482002 34,950 45 535 0
2020-02-19 04:30:57 GMT 44.812443 -68.492119 34,950 45 535 0
2020-02-19 04:30:49 GMT 44.799500 -68.510338 34,950 45 535 0
2020-02-19 04:30:46 GMT 44.794426 -68.517441 34,950 45 535 0
2020-02-19 04:30:41 GMT 44.783207 -68.533180 34,975 45 535 0
2020-02-19 04:30:36 GMT 44.775898 -68.543503 34,950 45 535 0
2020-02-19 04:30:29 GMT 44.762211 -68.562660 34,975 45 535 0
2020-02-19 04:30:26 GMT 44.757835 -68.568825 34,975 45 535 0
2020-02-19 04:30:15 GMT 44.739304 -68.594841 34,975 45 535 0
2020-02-19 04:30:05 GMT 44.721432 -68.619934 34,975 45 536 0
2020-02-19 04:29:58 GMT 44.707603 -68.639366 34,975 45 535 -64
2020-02-19 04:29:49 GMT 44.693268 -68.659462 34,975 44 535 -64
2020-02-19 04:29:44 GMT 44.685352 -68.670509 34,975 44 535 0
2020-02-19 04:29:38 GMT 44.675034 -68.684952 34,975 44 534 -64
2020-02-19 04:29:34 GMT 44.667339 -68.695702 34,975 44 534 -64
2020-02-19 04:29:29 GMT 44.657318 -68.709610 34,975 44 534 0
2020-02-19 04:29:24 GMT 44.649277 -68.720825 34,975 45 534 64
2020-02-19 04:29:18 GMT 44.639126 -68.735023 34,975 45 534 64
2020-02-19 04:29:13 GMT 44.630905 -68.746490 34,975 44 534 0
2020-02-19 04:29:08 GMT 44.621292 -68.759964 34,975 44 535 64
2020-02-19 04:29:03 GMT 44.612732 -68.771935 34,950 44 535 0
2020-02-19 04:28:57 GMT 44.603096 -68.785332 34,950 44 534 0
2020-02-19 04:28:52 GMT 44.594513 -68.797302 34,950 44 534 0
2020-02-19 04:28:47 GMT 44.585449 -68.809990 34,950 44 534 0
2020-02-19 04:28:42 GMT 44.576523 -68.822411 34,950 44 534 0
2020-02-19 04:28:37 GMT 44.567413 -68.835098 34,975 44 534 0
2020-02-19 04:28:31 GMT 44.558121 -68.847984 34,975 44 533 0
2020-02-19 04:28:28 GMT 44.552166 -68.856209 34,975 44 533 0
2020-02-19 04:28:24 GMT 44.543564 -68.868126 34,975 44 533 0
2020-02-19 04:28:21 GMT 44.540085 -68.872963 34,975 44 533 0
2020-02-19 04:28:17 GMT 44.531296 -68.885124 34,950 44 533 64
2020-02-19 04:28:13 GMT 44.523956 -68.895332 34,950 44 533 0
2020-02-19 04:28:10 GMT 44.521317 -68.898994 34,950 44 533 64
2020-02-19 04:28:06 GMT 44.512573 -68.911156 34,950 44 533 64
2020-02-19 04:28:00 GMT 44.503475 -68.923798 34,950 44 534 0
2020-02-19 04:27:55 GMT 44.494171 -68.936661 34,950 44 534 0
2020-02-19 04:27:50 GMT 44.485245 -68.949081 34,950 44 533 0
2020-02-19 04:27:47 GMT 44.478756 -68.958031 34,950 44 533 0
2020-02-19 04:27:44 GMT 44.475449 -68.962685 34,950 44 533 0
2020-02-19 04:27:39 GMT 44.466660 -68.974785 34,950 44 534 0
2020-02-19 04:27:35 GMT 44.458595 -68.985970 34,950 44 534 0
2020-02-19 04:27:32 GMT 44.452454 -68.994476 34,950 44 534 0
2020-02-19 04:27:27 GMT 44.444000 -69.006111 34,950 44 534 0
2020-02-19 04:27:24 GMT 44.438232 -69.014153 34,950 44 534 0
2020-02-19 04:27:19 GMT 44.431046 -69.024094 34,950 44 534 64
2020-02-19 04:27:16 GMT 44.424706 -69.032791 34,950 44 535 0
2020-02-19 04:27:10 GMT 44.407993 -69.055840 34,950 44 535 0
2020-02-19 04:27:06 GMT 44.407993 -69.055840 34,950 44 535 0
2020-02-19 04:27:01 GMT 44.397427 -69.070374 34,950 44 535 0
2020-02-19 04:26:58 GMT 44.394058 -69.074966 34,950 44 535 0
2020-02-19 04:26:55 GMT 44.389297 -69.081505 34,950 44 535 0
2020-02-19 04:26:50 GMT 44.379456 -69.095047 34,950 44 535 0
2020-02-19 04:26:46 GMT 44.371536 -69.105965 34,950 44 535 0
2020-02-19 04:26:41 GMT 44.364285 -69.115860 34,950 44 535 -64
2020-02-19 04:26:38 GMT 44.357941 -69.124603 34,950 44 535 -64
2020-02-19 04:26:35 GMT 44.352692 -69.131874 34,950 44 535 -64
2020-02-19 04:26:32 GMT 44.345802 -69.141319 34,950 44 535 -64
2020-02-19 04:26:27 GMT 44.339283 -69.150291 34,950 44 535 0
2020-02-19 04:26:24 GMT 44.333836 -69.157799 34,950 44 535 0
2020-02-19 04:26:20 GMT 44.325737 -69.168915 34,950 44 535 0
2020-02-19 04:26:17 GMT 44.321365 -69.175026 34,950 44 535 0
2020-02-19 04:26:12 GMT 44.313774 -69.185394 34,950 44 535 0
2020-02-19 04:26:09 GMT 44.307629 -69.193901 34,950 44 535 0
2020-02-19 04:26:04 GMT 44.298798 -69.205956 34,950 44 535 0
2020-02-19 04:26:00 GMT 44.291061 -69.216614 34,950 44 535 0
2020-02-19 04:25:56 GMT 44.284679 -69.225319 34,950 44 536 0
2020-02-19 04:25:53 GMT 44.277649 -69.234993 34,950 44 535 0
2020-02-19 04:25:49 GMT 44.262634 -69.255592 34,950 44 536 0
2020-02-19 04:25:43 GMT 44.257027 -69.263306 34,950 44 536 0
2020-02-19 04:25:37 GMT 44.251534 -69.270805 34,950 44 536 0
2020-02-19 04:25:34 GMT 44.234402 -69.294189 34,950 44 536 0
2020-02-19 04:25:28 GMT 44.234402 -69.294189 34,950 44 536 0
2020-02-19 04:25:25 GMT 44.229980 -69.300285 34,950 44 536 0
2020-02-19 04:25:22 GMT 44.225510 -69.306267 34,950 44 536 0
2020-02-19 04:25:18 GMT 44.216850 -69.318100 34,950 44 536 0
2020-02-19 04:25:12 GMT 44.207310 -69.331169 34,950 44 536 0
2020-02-19 04:25:06 GMT 44.195808 -69.346840 34,950 44 536 0
2020-02-19 04:25:03 GMT 44.189430 -69.355515 34,975 44 536 -64
2020-02-19 04:24:57 GMT 44.180077 -69.368332 34,975 44 536 0
2020-02-19 04:24:53 GMT 44.173691 -69.376999 34,975 44 536 0
2020-02-19 04:24:50 GMT 44.167877 -69.384918 34,975 44 536 0
2020-02-19 04:24:47 GMT 44.162197 -69.392654 34,975 44 536 0
2020-02-19 04:24:41 GMT 44.150517 -69.408485 34,975 44 536 0
2020-02-19 04:24:37 GMT 44.143440 -69.418098 34,975 44 536 0
2020-02-19 04:24:33 GMT 44.138130 -69.425354 34,950 44 536 0
2020-02-19 04:24:30 GMT 44.132126 -69.433533 34,975 44 536 0
2020-02-19 04:24:26 GMT 44.125748 -69.442162 34,975 44 536 0
2020-02-19 04:24:20 GMT 44.114437 -69.457527 34,975 44 535 0
2020-02-19 04:24:16 GMT 44.107681 -69.466682 34,975 44 535 0
2020-02-19 04:24:10 GMT 44.094772 -69.484184 34,975 44 535 0
2020-02-19 04:24:05 GMT 44.088913 -69.492104 34,975 44 535 0
2020-02-19 04:24:02 GMT 44.082733 -69.500534 34,975 44 535 0
2020-02-19 04:23:59 GMT 44.077614 -69.507492 34,975 44 535 0
2020-02-19 04:23:56 GMT 44.065418 -69.524033 34,975 44 535 0
2020-02-19 04:23:53 GMT 44.062042 -69.528572 34,975 44 535 0
2020-02-19 04:23:50 GMT 44.051422 -69.542946 34,975 44 535 0
2020-02-19 04:23:44 GMT 44.051422 -69.542946 34,975 44 535 0
2020-02-19 04:23:41 GMT 44.045929 -69.550423 34,975 44 535 0
2020-02-19 04:23:38 GMT 44.040482 -69.557831 34,975 44 535 0
2020-02-19 04:23:34 GMT 44.031620 -69.569809 34,975 44 535 0
2020-02-19 04:23:31 GMT 44.027710 -69.575073 34,975 44 534 0
2020-02-19 04:23:27 GMT 44.020679 -69.584656 34,950 44 534 0
2020-02-19 04:23:23 GMT 44.013611 -69.594238 34,975 44 535 0
2020-02-19 04:23:20 GMT 44.009323 -69.599960 34,950 44 535 0
2020-02-19 04:23:17 GMT 44.001205 -69.610970 34,975 44 535 0
2020-02-19 04:23:13 GMT 43.995712 -69.618378 34,975 44 535 0
2020-02-19 04:23:08 GMT 43.988480 -69.628220 34,975 44 534 0
2020-02-19 04:23:05 GMT 43.982986 -69.635628 34,975 44 534 -64
2020-02-19 04:23:01 GMT 43.975388 -69.645912 34,975 44 534 -64
2020-02-19 04:22:57 GMT 43.967098 -69.657112 34,975 44 534 -64
2020-02-19 04:22:54 GMT 43.960163 -69.666397 34,975 44 533 0
2020-02-19 04:22:51 GMT 43.956486 -69.671432 34,975 44 533 0
2020-02-19 04:22:47 GMT 43.947826 -69.683075 34,975 44 533 0
2020-02-19 04:22:40 GMT 43.937214 -69.697395 34,975 44 533 64
2020-02-19 04:22:37 GMT 43.932606 -69.703606 34,975 44 533 64
2020-02-19 04:22:33 GMT 43.925354 -69.713364 34,975 44 533 64
2020-02-19 04:22:30 GMT 43.921104 -69.719040 34,975 44 533 0
2020-02-19 04:22:26 GMT 43.911747 -69.731667 34,950 44 533 0
2020-02-19 04:22:23 GMT 43.905556 -69.740036 34,950 44 533 0
2020-02-19 04:22:19 GMT 43.900108 -69.747360 34,975 44 533 0
2020-02-19 04:22:16 GMT 43.896194 -69.752647 34,975 44 533 0
2020-02-19 04:22:12 GMT 43.886658 -69.765472 34,975 44 533 0
2020-02-19 04:22:07 GMT 43.878929 -69.775932 34,975 44 533 0
2020-02-19 04:22:04 GMT 43.869370 -69.788734 34,975 44 532 0
2020-02-19 04:21:55 GMT 43.856277 -69.806297 34,975 44 532 0
2020-02-19 04:21:52 GMT 43.852768 -69.811050 34,975 44 532 0
2020-02-19 04:21:49 GMT 43.845879 -69.820274 34,975 44 532 0
2020-02-19 04:21:45 GMT 43.841309 -69.826416 34,975 44 532 0
2020-02-19 04:21:42 GMT 43.834240 -69.835899 34,975 44 532 0
2020-02-19 04:21:39 GMT 43.830002 -69.841621 34,975 44 532 0
2020-02-19 04:21:35 GMT 43.822926 -69.851074 34,975 44 531 0
2020-02-19 04:21:32 GMT 43.818176 -69.857414 34,975 44 531 -64
2020-02-19 04:21:28 GMT 43.809334 -69.869255 34,975 44 531 0
2020-02-19 04:21:25 GMT 43.805096 -69.874878 34,975 44 531 0
2020-02-19 04:21:21 GMT 43.797695 -69.884819 34,975 44 531 0
2020-02-19 04:21:14 GMT 43.786430 -69.899925 34,975 44 530 0
2020-02-19 04:21:11 GMT 43.773720 -69.916862 34,975 44 530 64
2020-02-19 04:21:07 GMT 43.768066 -69.924400 34,975 44 530 64
2020-02-19 04:21:04 GMT 43.768066 -69.924400 34,975 44 530 64
2020-02-19 04:21:00 GMT 43.759827 -69.935455 34,975 44 530 64
2020-02-19 04:20:53 GMT 43.748016 -69.951164 34,975 44 529 0
2020-02-19 04:20:48 GMT 43.738853 -69.963356 34,975 44 529 0
2020-02-19 04:20:43 GMT 43.732178 -69.972244 34,975 44 528 0
2020-02-19 04:20:38 GMT 43.723755 -69.983482 34,975 44 528 0
2020-02-19 04:20:34 GMT 43.713902 -69.996643 34,975 44 528 0
2020-02-19 04:20:28 GMT 43.705799 -70.007370 34,975 44 528 0
2020-02-19 04:20:22 GMT 43.694908 -70.021889 34,975 44 528 0
2020-02-19 04:20:19 GMT 43.687546 -70.031708 34,975 44 528 -64
2020-02-19 04:20:12 GMT 43.676846 -70.045952 34,975 43 527 0
2020-02-19 04:20:08 GMT 43.666168 -70.060135 34,975 44 526 0
2020-02-19 04:20:02 GMT 43.652313 -70.078514 34,975 44 526 64
2020-02-19 04:19:58 GMT 43.652313 -70.078514 34,975 44 526 64
2020-02-19 04:19:55 GMT 43.648087 -70.084152 34,975 44 526 64
2020-02-19 04:19:51 GMT 43.641464 -70.092972 34,975 44 526 64
2020-02-19 04:19:48 GMT 43.635864 -70.100441 34,975 44 526 64
2020-02-19 04:19:45 GMT 43.628311 -70.110405 34,950 43 526 0
2020-02-19 04:19:41 GMT 43.623775 -70.116447 34,950 43 526 0
2020-02-19 04:19:37 GMT 43.610825 -70.133652 34,975 43 525 -64
2020-02-19 04:19:31 GMT 43.605061 -70.141296 34,975 43 525 0
2020-02-19 04:19:27 GMT 43.592789 -70.157539 34,975 43 524 0
2020-02-19 04:19:24 GMT 43.592789 -70.157539 34,975 43 525 0
2020-02-19 04:19:21 GMT 43.587234 -70.164970 34,975 43 524 0
2020-02-19 04:19:16 GMT 43.577271 -70.178177 34,975 43 524 0
2020-02-19 04:19:13 GMT 43.569031 -70.189034 34,975 43 524 0
2020-02-19 04:19:10 GMT 43.569031 -70.189034 34,975 43 524 0
2020-02-19 04:19:06 GMT 43.559582 -70.201523 34,975 43 524 0
2020-02-19 04:19:02 GMT 43.550690 -70.213295 34,975 43 524 0
2020-02-19 04:18:55 GMT 43.542309 -70.224350 34,975 43 524 0
2020-02-19 04:18:50 GMT 43.533005 -70.236557 34,975 43 524 0
2020-02-19 04:18:45 GMT 43.523758 -70.248817 34,975 43 524 0
2020-02-19 04:18:39 GMT 43.512749 -70.263321 34,975 43 524 0
2020-02-19 04:18:35 GMT 43.504395 -70.274368 34,975 43 524 0
2020-02-19 04:18:29 GMT 43.497391 -70.283630 34,975 43 523 0
2020-02-19 04:18:26 GMT 43.483608 -70.301773 34,975 43 523 64
2020-02-19 04:18:19 GMT 43.479263 -70.307518 34,975 43 522 0
2020-02-19 04:18:15 GMT 43.467407 -70.323158 34,975 43 522 0
2020-02-19 04:18:12 GMT 43.467407 -70.323158 34,975 43 522 0
2020-02-19 04:18:08 GMT 43.460938 -70.331657 34,975 43 522 0
2020-02-19 04:18:05 GMT 43.447018 -70.349968 34,975 43 521 0
2020-02-19 04:17:58 GMT 43.443512 -70.354591 34,975 43 521 0
2020-02-19 04:17:53 GMT 43.432865 -70.368546 34,975 43 521 0
2020-02-19 04:17:48 GMT 43.425568 -70.378098 34,975 43 521 0
2020-02-19 04:17:45 GMT 43.415314 -70.391624 34,975 43 521 0
2020-02-19 04:17:37 GMT 43.407124 -70.402351 34,975 43 520 0
2020-02-19 04:17:33 GMT 43.400185 -70.411446 34,975 43 520 0
2020-02-19 04:17:30 GMT 43.394943 -70.418274 34,975 43 519 0
2020-02-19 04:17:27 GMT 43.388718 -70.426514 34,975 43 519 0
2020-02-19 04:17:24 GMT 43.383316 -70.433540 34,975 43 519 0
2020-02-19 04:17:21 GMT 43.376358 -70.442673 34,975 43 519 64
2020-02-19 04:17:17 GMT 43.372021 -70.448326 34,975 43 519 64
2020-02-19 04:17:14 GMT 43.364548 -70.458130 34,950 43 519 0
2020-02-19 04:17:10 GMT 43.359329 -70.464966 34,950 43 519 0
2020-02-19 04:17:06 GMT 43.350632 -70.476334 34,950 43 519 0
2020-02-19 04:17:02 GMT 43.345814 -70.482658 34,950 43 519 0
2020-02-19 04:16:59 GMT 43.341293 -70.488602 34,950 43 519 0
2020-02-19 04:16:56 GMT 43.335892 -70.495628 34,950 43 519 0
2020-02-19 04:16:53 GMT 43.329117 -70.504501 34,950 43 519 0
2020-02-19 04:16:48 GMT 43.319744 -70.516792 34,950 43 519 0
2020-02-19 04:16:44 GMT 43.315041 -70.522873 34,950 43 519 0
2020-02-19 04:16:40 GMT 43.307419 -70.532928 34,950 43 519 -64
2020-02-19 04:16:36 GMT 43.299728 -70.542892 34,950 43 519 0
2020-02-19 04:16:33 GMT 43.293686 -70.550812 34,975 43 519 0
2020-02-19 04:16:28 GMT 43.287048 -70.559441 34,975 43 519 0
2020-02-19 04:16:25 GMT 43.276108 -70.573746 34,975 43 519 0
2020-02-19 04:16:22 GMT 43.276108 -70.573746 34,975 43 519 0
2020-02-19 04:16:19 GMT 43.263611 -70.590096 34,975 43 519 0
2020-02-19 04:16:15 GMT 43.263611 -70.590096 34,975 43 519 0
2020-02-19 04:16:12 GMT 43.258392 -70.596931 34,975 43 519 0
2020-02-19 04:16:08 GMT 43.251080 -70.606384 34,975 43 519 0
2020-02-19 04:16:04 GMT 43.242561 -70.617500 34,975 43 519 0
2020-02-19 04:16:01 GMT 43.239952 -70.620903 34,950 43 519 0
2020-02-19 04:15:58 GMT 43.234726 -70.627716 34,950 43 519 0
2020-02-19 04:15:55 GMT 43.229691 -70.634232 34,950 43 519 0
2020-02-19 04:15:52 GMT 43.222229 -70.644005 34,975 43 519 0
2020-02-19 04:15:49 GMT 43.216461 -70.651413 34,975 43 518 0
2020-02-19 04:15:46 GMT 43.212479 -70.656586 34,975 43 518 0
2020-02-19 04:15:43 GMT 43.208313 -70.662018 34,950 43 518 64
2020-02-19 04:15:40 GMT 43.200989 -70.671539 34,950 43 519 0
2020-02-19 04:15:37 GMT 43.197876 -70.675621 34,950 43 519 64
2020-02-19 04:15:33 GMT 43.190552 -70.685074 34,950 43 519 64
2020-02-19 04:15:30 GMT 43.186047 -70.691002 34,950 43 519 0
2020-02-19 04:15:26 GMT 43.179623 -70.699379 34,950 43 519 0
2020-02-19 04:15:22 GMT 43.166401 -70.716576 34,950 43 519 0
2020-02-19 04:15:19 GMT 43.166401 -70.716576 34,950 43 519 0
2020-02-19 04:15:15 GMT 43.158554 -70.726723 34,950 43 519 0
2020-02-19 04:15:09 GMT 43.148117 -70.740265 34,950 43 519 0
2020-02-19 04:15:06 GMT 43.143776 -70.745872 34,950 43 519 0
2020-02-19 04:15:02 GMT 43.130539 -70.763000 34,950 43 519 0
2020-02-19 04:14:59 GMT 43.130539 -70.763000 34,950 43 519 0
2020-02-19 04:14:54 GMT 43.122501 -70.773399 34,950 43 519 0
2020-02-19 04:14:48 GMT 43.112724 -70.786026 34,950 43 519 0
2020-02-19 04:14:44 GMT 43.098106 -70.804985 34,950 43 519 0
2020-02-19 04:14:41 GMT 43.094284 -70.809952 34,950 43 519 0
2020-02-19 04:14:38 GMT 43.094284 -70.809952 34,950 43 519 0
2020-02-19 04:14:35 GMT 43.087326 -70.818954 34,950 43 519 0
2020-02-19 04:14:32 GMT 43.082428 -70.825279 34,950 43 519 0
2020-02-19 04:14:29 GMT 43.079132 -70.829559 34,950 43 519 0
2020-02-19 04:14:26 GMT 43.072311 -70.838371 34,950 43 519 0
2020-02-19 04:14:22 GMT 43.066956 -70.845337 34,950 43 519 0
2020-02-19 04:14:19 GMT 43.060822 -70.853256 34,950 43 519 -64
2020-02-19 04:14:16 GMT 43.056473 -70.858879 34,950 43 519 -64
2020-02-19 04:14:13 GMT 43.043243 -70.875999 34,975 43 519 -64
2020-02-19 04:14:09 GMT 43.043243 -70.875999 34,975 43 519 -64
2020-02-19 04:14:06 GMT 43.038849 -70.881615 34,975 43 519 -64
2020-02-19 04:14:03 GMT 43.032936 -70.889214 34,975 43 519 0
2020-02-19 04:13:59 GMT 43.025391 -70.898926 34,975 43 519 0
2020-02-19 04:13:56 GMT 43.020878 -70.904716 34,975 43 520 -64
2020-02-19 04:13:51 GMT 43.013012 -70.914848 34,975 43 519 0
2020-02-19 04:13:48 GMT 43.006214 -70.923615 34,975 43 519 64
2020-02-19 04:13:44 GMT 43.001312 -70.929909 34,975 43 519 64
2020-02-19 04:13:40 GMT 42.987640 -70.947487 34,950 43 519 64
2020-02-19 04:13:37 GMT 42.987640 -70.947487 34,950 43 520 0
2020-02-19 04:13:32 GMT 42.978561 -70.959160 34,950 43 520 0
2020-02-19 04:13:29 GMT 42.974697 -70.964157 34,950 43 520 -64
2020-02-19 04:13:26 GMT 42.968765 -70.971741 34,975 43 520 -64
2020-02-19 04:13:23 GMT 42.956863 -70.987076 34,975 43 520 0
2020-02-19 04:13:20 GMT 42.956863 -70.987076 34,975 43 520 0
2020-02-19 04:13:16 GMT 42.952469 -70.992691 34,975 43 520 0
2020-02-19 04:13:13 GMT 42.945465 -71.001633 34,975 43 520 0
2020-02-19 04:13:09 GMT 42.936859 -71.012688 34,950 43 520 64
2020-02-19 04:13:06 GMT 42.933174 -71.017387 34,950 43 520 64
2020-02-19 04:13:02 GMT 42.921799 -71.031975 34,950 43 521 64
2020-02-19 04:12:59 GMT 42.921799 -71.031975 34,950 43 521 64
2020-02-19 04:12:56 GMT 42.916672 -71.038490 34,950 43 521 0
2020-02-19 04:12:52 GMT 42.908779 -71.048584 34,950 43 522 0
2020-02-19 04:12:49 GMT 42.902802 -71.056252 34,950 43 522 0
2020-02-19 04:12:46 GMT 42.898453 -71.061867 34,950 43 522 0
2020-02-19 04:12:43 GMT 42.894024 -71.067551 34,950 43 522 0
2020-02-19 04:12:39 GMT 42.886139 -71.077644 34,950 43 522 0
2020-02-19 04:12:36 GMT 42.880848 -71.084419 34,950 43 522 0
2020-02-19 04:12:33 GMT 42.875587 -71.091156 34,950 43 522 0
2020-02-19 04:12:30 GMT 42.869614 -71.098854 34,950 43 524 0
2020-02-19 04:12:26 GMT 42.862564 -71.107796 34,950 43 522 0
2020-02-19 04:12:23 GMT 42.857437 -71.114372 34,950 43 522 0
2020-02-19 04:12:20 GMT 42.852173 -71.121109 34,950 43 523 0
2020-02-19 04:12:17 GMT 42.846909 -71.127853 34,950 43 523 0
2020-02-19 04:12:14 GMT 42.836151 -71.141647 34,950 43 523 0
2020-02-19 04:12:11 GMT 42.836151 -71.141647 34,950 43 523 0
2020-02-19 04:12:08 GMT 42.830658 -71.148613 34,950 43 524 0
2020-02-19 04:12:05 GMT 42.826263 -71.154228 34,950 43 524 0
2020-02-19 04:12:02 GMT 42.821136 -71.160744 34,950 43 524 -64
2020-02-19 04:11:58 GMT 42.814419 -71.169365 34,950 43 524 -64
2020-02-19 04:11:55 GMT 42.807903 -71.177673 34,950 43 524 -64
2020-02-19 04:11:50 GMT 42.799755 -71.188019 34,975 43 524 0
2020-02-19 04:11:47 GMT 42.794262 -71.194984 34,975 43 524 64
2020-02-19 04:11:44 GMT 42.789841 -71.200668 34,950 43 524 64
2020-02-19 04:11:41 GMT 42.784378 -71.207634 34,950 43 525 64
2020-02-19 04:11:36 GMT 42.775360 -71.219193 34,950 43 525 64
2020-02-19 04:11:33 GMT 42.765976 -71.231171 34,950 43 525 0
2020-02-19 04:11:27 GMT 42.758881 -71.240204 34,950 43 525 -64
2020-02-19 04:11:24 GMT 42.753937 -71.246460 34,950 43 525 -64
2020-02-19 04:11:21 GMT 42.747894 -71.254128 34,950 43 526 0
2020-02-19 04:11:18 GMT 42.742584 -71.260948 34,950 43 526 0
2020-02-19 04:11:15 GMT 42.736538 -71.268631 34,950 43 527 0
2020-02-19 04:11:12 GMT 42.732998 -71.273163 34,950 43 527 0
2020-02-19 04:11:08 GMT 42.724110 -71.284470 34,950 43 527 0
2020-02-19 04:11:02 GMT 42.711136 -71.300957 34,950 43 527 -64
2020-02-19 04:10:59 GMT 42.711136 -71.300957 34,950 43 527 -64
2020-02-19 04:10:56 GMT 42.703857 -71.310196 34,950 43 527 -64
2020-02-19 04:10:53 GMT 42.699947 -71.315132 34,975 43 527 0
2020-02-19 04:10:50 GMT 42.692459 -71.324615 34,975 43 527 0
2020-02-19 04:10:47 GMT 42.687286 -71.331169 34,975 43 527 0
2020-02-19 04:10:43 GMT 42.680008 -71.340408 34,975 43 527 -64
2020-02-19 04:10:39 GMT 42.674297 -71.347641 34,975 43 527 0
2020-02-19 04:10:35 GMT 42.667175 -71.356651 34,975 43 527 0
2020-02-19 04:10:32 GMT 42.662193 -71.362968 34,975 43 527 64
2020-02-19 04:10:29 GMT 42.648087 -71.380791 34,975 43 527 64
2020-02-19 04:10:25 GMT 42.648087 -71.380791 34,975 43 527 0
2020-02-19 04:10:22 GMT 42.643620 -71.386414 34,975 43 527 0
2020-02-19 04:10:19 GMT 42.637054 -71.394783 34,950 43 527 64
2020-02-19 04:10:14 GMT 42.629745 -71.404045 34,975 43 527 64
2020-02-19 04:10:11 GMT 42.625278 -71.409660 34,950 43 528 64
2020-02-19 04:10:08 GMT 42.619038 -71.417587 34,950 43 528 0
2020-02-19 04:10:05 GMT 42.607086 -71.432732 34,950 43 528 0
2020-02-19 04:10:02 GMT 42.607086 -71.432732 34,950 43 528 0
2020-02-19 04:09:58 GMT 42.601547 -71.439720 34,950 43 528 0
2020-02-19 04:09:55 GMT 42.596008 -71.446716 34,950 43 528 0
2020-02-19 04:09:52 GMT 42.582264 -71.464149 34,950 43 528 0
2020-02-19 04:09:49 GMT 42.582264 -71.464149 34,950 43 529 -64
2020-02-19 04:09:46 GMT 42.579239 -71.467979 34,950 43 529 0
2020-02-19 04:09:43 GMT 42.574768 -71.473618 34,950 43 529 0
2020-02-19 04:09:40 GMT 42.570282 -71.479233 34,950 43 529 -64
2020-02-19 04:09:37 GMT 42.563690 -71.487602 34,950 43 529 -64
2020-02-19 04:09:33 GMT 42.555264 -71.498260 34,950 43 529 0
2020-02-19 04:09:30 GMT 42.551147 -71.503456 34,975 43 529 0
2020-02-19 04:09:27 GMT 42.538273 -71.519653 34,975 42 528 0
2020-02-19 04:09:23 GMT 42.538273 -71.519653 34,975 43 529 0
2020-02-19 04:09:20 GMT 42.532883 -71.526428 34,975 42 528 0
2020-02-19 04:09:15 GMT 42.523933 -71.537666 34,975 43 529 0
2020-02-19 04:09:12 GMT 42.517319 -71.546028 34,975 43 529 0
2020-02-19 04:09:08 GMT 42.510899 -71.554146 34,975 43 529 0
2020-02-19 04:09:04 GMT 42.503170 -71.563858 34,975 43 529 0
2020-02-19 04:09:01 GMT 42.494934 -71.574181 34,975 42 529 0
2020-02-19 04:08:55 GMT 42.481339 -71.591286 34,975 42 529 0
2020-02-19 04:08:52 GMT 42.481339 -71.591286 34,975 42 528 0
2020-02-19 04:08:49 GMT 42.477009 -71.596626 34,975 42 528 0
2020-02-19 04:08:45 GMT 42.470901 -71.604263 34,975 43 528 64
2020-02-19 04:08:42 GMT 42.463760 -71.613258 34,975 42 528 0
2020-02-19 04:08:39 GMT 42.458588 -71.619812 34,975 42 528 0
2020-02-19 04:08:35 GMT 42.450165 -71.630363 34,975 43 529 64
2020-02-19 04:08:32 GMT 42.447647 -71.633545 34,975 43 529 64
2020-02-19 04:08:29 GMT 42.441910 -71.640694 34,975 43 529 0
2020-02-19 04:08:26 GMT 42.434784 -71.649712 34,975 43 528 0
2020-02-19 04:08:22 GMT 42.426910 -71.659637 34,975 43 528 64
2020-02-19 04:08:18 GMT 42.422077 -71.665733 34,975 43 529 0
2020-02-19 04:08:13 GMT 42.412441 -71.677872 34,975 42 528 0
2020-02-19 04:08:10 GMT 42.400772 -71.692467 34,975 42 528 64
2020-02-19 04:08:07 GMT 42.400772 -71.692467 34,975 42 528 64
2020-02-19 04:08:04 GMT 42.395729 -71.698692 34,975 42 529 0
2020-02-19 04:08:01 GMT 42.385895 -71.711075 34,975 43 529 0
2020-02-19 04:07:58 GMT 42.379623 -71.718941 34,975 42 529 -64
2020-02-19 04:07:55 GMT 42.379623 -71.718941 34,975 42 529 0
2020-02-19 04:07:52 GMT 42.373352 -71.726799 34,975 42 529 -64
2020-02-19 04:07:49 GMT 42.367935 -71.733505 34,975 42 528 -64
2020-02-19 04:07:46 GMT 42.364723 -71.737526 34,975 42 528 -64
2020-02-19 04:07:43 GMT 42.358978 -71.744720 34,975 42 529 0
2020-02-19 04:07:40 GMT 42.353970 -71.751007 34,975 42 529 0
2020-02-19 04:07:37 GMT 42.346756 -71.759949 34,975 42 528 64
2020-02-19 04:07:32 GMT 42.340851 -71.767319 34,975 42 529 0
2020-02-19 04:07:29 GMT 42.333847 -71.776054 34,975 42 529 0
2020-02-19 04:07:26 GMT 42.329533 -71.781471 34,975 42 529 0
2020-02-19 04:07:22 GMT 42.321625 -71.791283 34,975 42 529 0
2020-02-19 04:07:19 GMT 42.317333 -71.796677 34,950 42 529 0
2020-02-19 04:07:16 GMT 42.310677 -71.804977 34,975 42 528 0
2020-02-19 04:07:11 GMT 42.303135 -71.814369 34,950 42 529 0
2020-02-19 04:07:08 GMT 42.297729 -71.821060 34,950 42 529 0
2020-02-19 04:07:05 GMT 42.292336 -71.827782 34,975 42 529 0
2020-02-19 04:07:02 GMT 42.285187 -71.836731 34,975 42 529 0
2020-02-19 04:06:58 GMT 42.277817 -71.845840 34,950 42 528 0
2020-02-19 04:06:55 GMT 42.272964 -71.851898 34,975 42 528 -64
2020-02-19 04:06:52 GMT 42.269199 -71.856590 34,975 42 528 -64
2020-02-19 04:06:49 GMT 42.262169 -71.865280 34,975 42 528 -64
2020-02-19 04:06:46 GMT 42.250168 -71.880234 34,975 42 528 -64
2020-02-19 04:06:43 GMT 42.250168 -71.880234 34,975 42 528 0
2020-02-19 04:06:40 GMT 42.246574 -71.884697 34,975 42 528 0
2020-02-19 04:06:37 GMT 42.234558 -71.899712 34,975 42 528 64
2020-02-19 04:06:30 GMT 42.227371 -71.908638 34,975 42 528 64
2020-02-19 04:06:27 GMT 42.221809 -71.915543 34,950 42 528 64
2020-02-19 04:06:24 GMT 42.212677 -71.926926 34,950 42 528 64
2020-02-19 04:06:21 GMT 42.206772 -71.934326 34,950 42 528 0
2020-02-19 04:06:18 GMT 42.206772 -71.934326 34,950 42 529 0
2020-02-19 04:06:15 GMT 42.201557 -71.940773 34,950 42 529 0
2020-02-19 04:06:12 GMT 42.194901 -71.949013 34,950 42 529 0
2020-02-19 04:06:09 GMT 42.190388 -71.954575 34,950 42 528 0
2020-02-19 04:06:06 GMT 42.178711 -71.969063 34,950 42 529 0
2020-02-19 04:06:03 GMT 42.178711 -71.969063 34,950 42 529 0
2020-02-19 04:05:59 GMT 42.170834 -71.978912 34,950 42 529 0
2020-02-19 04:05:56 GMT 42.166321 -71.984467 34,950 42 529 0
2020-02-19 04:05:53 GMT 42.161106 -71.990913 34,950 42 529 0
2020-02-19 04:05:50 GMT 42.157707 -71.995132 34,950 42 529 0
2020-02-19 04:05:47 GMT 42.150513 -72.004082 34,950 42 529 0
2020-02-19 04:05:44 GMT 42.145695 -72.010139 34,950 42 529 0
2020-02-19 04:05:41 GMT 42.132019 -72.027115 34,950 42 530 0
2020-02-19 04:05:37 GMT 42.132019 -72.027115 34,950 42 529 0
2020-02-19 04:05:34 GMT 42.126068 -72.034485 34,950 42 530 0
2020-02-19 04:05:31 GMT 42.122818 -72.038475 34,950 42 529 0
2020-02-19 04:05:28 GMT 42.111649 -72.052269 34,950 42 529 0
2020-02-19 04:05:25 GMT 42.111649 -72.052269 34,950 42 529 0
2020-02-19 04:05:22 GMT 42.105148 -72.060204 34,950 42 529 0
2020-02-19 04:05:19 GMT 42.100075 -72.066414 34,950 42 529 0
2020-02-19 04:05:16 GMT 42.095169 -72.072372 34,950 42 529 0
2020-02-19 04:05:13 GMT 42.090115 -72.078613 34,950 42 529 -64
2020-02-19 04:05:10 GMT 42.083267 -72.086983 34,950 42 528 -64
2020-02-19 04:05:07 GMT 42.078735 -72.092537 34,950 42 528 -64
2020-02-19 04:05:04 GMT 42.073471 -72.098900 34,975 42 528 0
2020-02-19 04:05:01 GMT 42.066605 -72.107330 34,975 42 528 0
2020-02-19 04:04:58 GMT 42.061020 -72.114197 34,975 42 528 0
2020-02-19 04:04:55 GMT 42.057201 -72.118858 34,975 42 529 0
2020-02-19 04:04:52 GMT 42.053059 -72.123901 34,975 42 529 0
2020-02-19 04:04:48 GMT 42.042389 -72.136978 34,975 42 529 0
2020-02-19 04:04:45 GMT 42.039696 -72.140259 34,975 42 530 0
2020-02-19 04:04:42 GMT 42.034065 -72.147156 34,975 42 528 0
2020-02-19 04:04:38 GMT 42.027191 -72.155518 34,975 42 528 0
2020-02-19 04:04:35 GMT 42.019958 -72.164337 34,975 42 529 -64
2020-02-19 04:04:31 GMT 42.013824 -72.171875 34,975 42 529 0
2020-02-19 04:04:27 GMT 42.004784 -72.182922 34,975 42 529 0
2020-02-19 04:04:24 GMT 42.001190 -72.187355 34,975 42 529 0
2020-02-19 04:04:21 GMT 41.995750 -72.193970 34,950 42 529 0
2020-02-19 04:04:18 GMT 41.990677 -72.200165 34,950 42 529 0
2020-02-19 04:04:14 GMT 41.982716 -72.209877 34,950 42 530 0
2020-02-19 04:04:11 GMT 41.976196 -72.217819 34,950 42 530 0
2020-02-19 04:04:07 GMT 41.963837 -72.232857 34,950 42 530 0
2020-02-19 04:04:04 GMT 41.963837 -72.232857 34,950 42 530 -64
2020-02-19 04:04:01 GMT 41.960232 -72.237282 34,950 42 530 0
2020-02-19 04:03:58 GMT 41.949371 -72.250587 34,975 42 530 0
2020-02-19 04:03:52 GMT 41.944637 -72.256317 34,975 42 530 0
2020-02-19 04:03:49 GMT 41.938305 -72.264046 34,975 42 530 0
2020-02-19 04:03:46 GMT 41.932480 -72.271126 34,975 42 530 0
2020-02-19 04:03:43 GMT 41.926849 -72.277931 34,975 42 530 0
2020-02-19 04:03:40 GMT 41.920532 -72.285667 34,975 42 530 0
2020-02-19 04:03:37 GMT 41.915077 -72.292274 34,975 42 530 0
2020-02-19 04:03:33 GMT 41.908699 -72.300003 34,975 42 529 -64
2020-02-19 04:03:30 GMT 41.903996 -72.305756 34,975 42 530 0
2020-02-19 04:03:27 GMT 41.896591 -72.314819 34,975 42 530 64
2020-02-19 04:03:23 GMT 41.890778 -72.321877 34,975 42 530 64
2020-02-19 04:03:20 GMT 41.885147 -72.328674 34,975 42 530 0
2020-02-19 04:03:17 GMT 41.879517 -72.335548 34,950 42 530 0
2020-02-19 04:03:14 GMT 41.866989 -72.350716 34,975 42 530 -64
2020-02-19 04:03:11 GMT 41.866989 -72.350716 34,975 42 530 -64
2020-02-19 04:03:07 GMT 41.861893 -72.356895 34,975 42 529 0
2020-02-19 04:03:04 GMT 41.855350 -72.364769 34,975 42 529 0
2020-02-19 04:03:01 GMT 41.850647 -72.370453 34,975 42 529 0
2020-02-19 04:02:58 GMT 41.845387 -72.376846 34,975 42 529 64
2020-02-19 04:02:54 GMT 41.837009 -72.386932 34,975 42 529 64
2020-02-19 04:02:51 GMT 41.831051 -72.394218 34,975 42 529 64
2020-02-19 04:02:48 GMT 41.827240 -72.398842 34,950 42 529 0
2020-02-19 04:02:43 GMT 41.818153 -72.409805 34,975 42 529 64
2020-02-19 04:02:40 GMT 41.812363 -72.416878 34,950 42 528 0
2020-02-19 04:02:37 GMT 41.805447 -72.425194 34,950 42 528 0
2020-02-19 04:02:34 GMT 41.800930 -72.430687 34,950 42 529 64
2020-02-19 04:02:31 GMT 41.794598 -72.438416 34,950 42 529 0
2020-02-19 04:02:25 GMT 41.783707 -72.451576 34,950 42 528 64
2020-02-19 04:02:21 GMT 41.778816 -72.457520 34,950 42 528 0
2020-02-19 04:02:18 GMT 41.771576 -72.466255 34,950 42 528 0
2020-02-19 04:02:15 GMT 41.766853 -72.471954 34,950 42 528 0
2020-02-19 04:02:12 GMT 41.761780 -72.478081 34,950 42 529 0
2020-02-19 04:02:09 GMT 41.749443 -72.492966 34,950 42 528 0
2020-02-19 04:02:06 GMT 41.744019 -72.499527 34,950 42 528 0
2020-02-19 04:02:03 GMT 41.744019 -72.499527 34,950 42 528 0
2020-02-19 04:02:00 GMT 41.740540 -72.503708 34,950 42 528 0
2020-02-19 04:01:57 GMT 41.733662 -72.512001 34,950 42 528 0
2020-02-19 04:01:54 GMT 41.728226 -72.518570 34,950 42 528 -64
2020-02-19 04:01:51 GMT 41.722954 -72.524902 34,950 42 528 -64
2020-02-19 04:01:48 GMT 41.717323 -72.531677 34,950 42 528 0
2020-02-19 04:01:42 GMT 41.700096 -72.552429 34,950 42 528 -64
2020-02-19 04:01:39 GMT 41.700096 -72.552429 34,950 42 528 -64
2020-02-19 04:01:36 GMT 41.690880 -72.563614 34,975 42 528 0
2020-02-19 04:01:33 GMT 41.682358 -72.573875 34,975 42 528 0
2020-02-19 04:01:29 GMT 41.682358 -72.573875 34,975 42 528 0
2020-02-19 04:01:26 GMT 41.679615 -72.577156 34,975 42 528 0
2020-02-19 04:01:23 GMT 41.674030 -72.583923 34,950 41 524 0
2020-02-19 04:01:20 GMT 41.666580 -72.592865 34,975 41 528 0
2020-02-19 04:01:16 GMT 41.660065 -72.600716 34,975 41 528 0
2020-02-19 04:01:13 GMT 41.649353 -72.613571 34,950 41 528 0
2020-02-19 04:01:10 GMT 41.642979 -72.621223 34,950 41 528 0
2020-02-19 04:01:02 GMT 41.634842 -72.630989 34,950 42 528 64
2020-02-19 04:00:58 GMT 41.626511 -72.641037 34,950 42 527 0
2020-02-19 04:00:55 GMT 41.622169 -72.646263 34,950 42 527 0
2020-02-19 04:00:52 GMT 41.617794 -72.651505 34,950 42 527 0
2020-02-19 04:00:49 GMT 41.610718 -72.659935 34,950 41 527 -64
2020-02-19 04:00:45 GMT 41.603642 -72.668427 34,950 42 527 0
2020-02-19 04:00:42 GMT 41.597122 -72.676247 34,950 42 527 0
2020-02-19 04:00:37 GMT 41.587860 -72.687271 34,950 42 527 64
2020-02-19 04:00:34 GMT 41.582611 -72.693596 34,950 42 527 0
2020-02-19 04:00:31 GMT 41.578968 -72.697937 34,950 42 527 0
2020-02-19 04:00:28 GMT 41.574455 -72.703369 34,950 41 526 0
2020-02-19 04:00:25 GMT 41.567051 -72.712250 34,950 41 526 0
2020-02-19 04:00:21 GMT 41.560135 -72.720505 34,950 41 526 0
2020-02-19 04:00:18 GMT 41.547089 -72.736107 34,950 41 526 0
2020-02-19 04:00:14 GMT 41.547089 -72.736107 34,950 41 526 0
2020-02-19 04:00:11 GMT 41.534775 -72.750839 34,950 41 526 0
2020-02-19 04:00:06 GMT 41.534775 -72.750839 34,950 41 526 0
2020-02-19 04:00:03 GMT 41.522827 -72.765076 34,950 41 526 0
2020-02-19 04:00:00 GMT 41.516098 -72.773064 34,950 41 526 0
2020-02-19 03:59:53 GMT 41.509418 -72.781036 34,950 41 526 0
2020-02-19 03:59:50 GMT 41.503967 -72.787544 34,950 41 526 0
2020-02-19 03:59:45 GMT 41.494171 -72.799217 34,950 41 526 0
2020-02-19 03:59:41 GMT 41.487488 -72.807205 34,950 41 526 0
2020-02-19 03:59:35 GMT 41.477345 -72.819298 34,950 41 526 0
2020-02-19 03:59:32 GMT 41.471714 -72.826004 34,950 41 526 -64
2020-02-19 03:59:29 GMT 41.466824 -72.831818 34,950 41 526 -64
2020-02-19 03:59:25 GMT 41.458511 -72.841728 34,950 41 525 -64
2020-02-19 03:59:22 GMT 41.453045 -72.848167 34,950 41 526 -64
2020-02-19 03:59:19 GMT 41.449081 -72.852898 34,975 41 525 0
2020-02-19 03:59:16 GMT 41.444000 -72.858955 34,975 41 525 0
2020-02-19 03:59:13 GMT 41.438416 -72.865639 34,975 41 525 0
2020-02-19 03:59:10 GMT 41.431538 -72.873787 34,975 41 525 0
2020-02-19 03:59:07 GMT 41.425903 -72.880424 34,975 41 525 0
2020-02-19 03:59:03 GMT 41.419201 -72.888412 34,975 41 524 64
2020-02-19 03:59:00 GMT 41.414520 -72.893974 34,975 41 524 64
2020-02-19 03:58:57 GMT 41.406914 -72.902977 34,950 41 524 64
2020-02-19 03:58:54 GMT 41.401840 -72.909019 34,950 41 525 0
2020-02-19 03:58:51 GMT 41.397137 -72.914597 34,950 41 525 0
2020-02-19 03:58:48 GMT 41.392639 -72.920006 34,950 41 525 0
2020-02-19 03:58:45 GMT 41.385590 -72.928406 34,950 41 524 0
2020-02-19 03:58:42 GMT 41.381790 -72.932922 34,950 41 524 -64
2020-02-19 03:58:39 GMT 41.374557 -72.941544 34,950 41 524 -64
2020-02-19 03:58:36 GMT 41.368973 -72.948219 34,975 41 524 0
2020-02-19 03:58:33 GMT 41.365387 -72.952530 34,975 41 524 0
2020-02-19 03:58:30 GMT 41.360126 -72.958771 34,975 41 524 0
2020-02-19 03:58:27 GMT 41.354736 -72.965210 34,975 41 524 0
2020-02-19 03:58:24 GMT 41.348740 -72.972290 34,950 41 524 0
2020-02-19 03:58:21 GMT 41.342625 -72.979553 34,950 41 524 0
2020-02-19 03:58:17 GMT 41.336472 -72.986877 34,950 41 524 0
2020-02-19 03:58:12 GMT 41.325943 -72.999268 34,950 41 524 -64
2020-02-19 03:58:06 GMT 41.310059 -73.018127 34,975 41 524 0
2020-02-19 03:58:03 GMT 41.310059 -73.018127 34,975 41 524 0
2020-02-19 03:58:00 GMT 41.306454 -73.022377 34,975 41 524 0
2020-02-19 03:57:57 GMT 41.299210 -73.030945 34,975 41 523 0
2020-02-19 03:57:54 GMT 41.293991 -73.037109 34,975 41 523 0
2020-02-19 03:57:50 GMT 41.286762 -73.045662 34,975 41 523 0
2020-02-19 03:57:47 GMT 41.282227 -73.051025 34,975 41 523 0
2020-02-19 03:57:44 GMT 41.277008 -73.057251 34,975 41 523 0
2020-02-19 03:57:41 GMT 41.269768 -73.065758 34,975 41 523 0
2020-02-19 03:57:38 GMT 41.265106 -73.071350 34,975 41 523 0
2020-02-19 03:57:35 GMT 41.261307 -73.075806 34,975 41 523 0
2020-02-19 03:57:31 GMT 41.251942 -73.086922 34,975 41 523 0
2020-02-19 03:57:28 GMT 41.247051 -73.092728 34,975 41 522 0
2020-02-19 03:57:25 GMT 41.242535 -73.098038 34,975 41 522 0
2020-02-19 03:57:22 GMT 41.236626 -73.105087 34,975 41 523 0
2020-02-19 03:57:19 GMT 41.225235 -73.118530 34,950 41 522 64
2020-02-19 03:57:16 GMT 41.225235 -73.118530 34,950 41 523 64
2020-02-19 03:57:12 GMT 41.212646 -73.133545 34,950 41 523 -64
2020-02-19 03:57:09 GMT 41.208344 -73.138672 34,975 41 523 -64
2020-02-19 03:57:03 GMT 41.202549 -73.145538 34,950 41 522 0
2020-02-19 03:57:00 GMT 41.196075 -73.153198 34,950 41 522 64
2020-02-19 03:56:56 GMT 41.188908 -73.161766 34,950 41 522 0
2020-02-19 03:56:52 GMT 41.181152 -73.170959 34,950 42 522 0
2020-02-19 03:56:49 GMT 41.177410 -73.175438 34,975 42 522 -64
2020-02-19 03:56:46 GMT 41.170944 -73.183167 34,950 42 522 0
2020-02-19 03:56:43 GMT 41.165539 -73.189606 34,975 50 528 0
2020-02-19 03:56:40 GMT 41.160370 -73.195847 34,975 50 528 0
2020-02-19 03:56:37 GMT 41.154282 -73.203186 34,975 42 522 -64
2020-02-19 03:56:34 GMT 41.150711 -73.207520 34,950 42 523 -64
2020-02-19 03:56:31 GMT 41.145008 -73.214386 34,975 42 522 0
2020-02-19 03:56:28 GMT 41.138580 -73.222107 34,975 42 522 0
2020-02-19 03:56:24 GMT 41.131088 -73.231178 34,975 42 522 0
2020-02-19 03:56:18 GMT 41.121277 -73.242981 34,975 42 522 0
2020-02-19 03:56:15 GMT 41.115417 -73.250183 34,975 42 522 -64
2020-02-19 03:56:12 GMT 41.112213 -73.254028 34,975 42 522 -64
2020-02-19 03:56:09 GMT 41.106556 -73.261017 34,975 42 522 -64
2020-02-19 03:56:06 GMT 41.099121 -73.270203 34,975 43 522 -64
2020-02-19 03:56:03 GMT 41.095413 -73.274780 34,975 43 522 0
2020-02-19 03:56:00 GMT 41.090309 -73.281120 34,975 43 522 0
2020-02-19 03:55:57 GMT 41.083282 -73.289856 34,975 43 522 0
2020-02-19 03:55:53 GMT 41.076809 -73.297974 34,975 43 522 64
2020-02-19 03:55:50 GMT 41.072388 -73.303467 34,975 43 522 64
2020-02-19 03:55:47 GMT 41.066620 -73.310730 34,975 43 523 64
2020-02-19 03:55:44 GMT 41.060898 -73.317993 34,975 43 523 64
2020-02-19 03:55:41 GMT 41.057739 -73.322021 34,975 43 522 0
2020-02-19 03:55:38 GMT 41.051487 -73.329994 34,975 44 524 -64
2020-02-19 03:55:32 GMT 41.041809 -73.342529 34,975 44 523 -64
2020-02-19 03:55:29 GMT 41.033749 -73.353157 34,975 47 525 64
2020-02-19 03:55:26 GMT 41.031376 -73.356339 34,975 45 523 0
2020-02-19 03:55:23 GMT 41.019974 -73.371643 34,975 45 524 64
2020-02-19 03:55:20 GMT 41.019974 -73.371643 34,975 45 524 64
2020-02-19 03:55:17 GMT 41.014244 -73.379494 34,975 46 525 64
2020-02-19 03:55:14 GMT 41.009583 -73.385986 34,975 46 524 64
2020-02-19 03:55:11 GMT 41.005920 -73.391113 34,975 46 525 64
2020-02-19 03:55:08 GMT 41.000107 -73.399353 34,950 47 526 0
2020-02-19 03:55:05 GMT 40.990906 -73.412659 34,950 49 527 0
2020-02-19 03:55:02 GMT 40.990906 -73.412659 34,950 48 527 0
2020-02-19 03:54:59 GMT 40.984776 -73.421822 34,950 48 527 0
2020-02-19 03:54:55 GMT 40.979237 -73.430305 34,950 50 526 0
2020-02-19 03:54:52 GMT 40.973557 -73.439171 34,950 49 528 0
2020-02-19 03:54:48 GMT 40.968994 -73.446350 34,975 50 528 0
2020-02-19 03:54:45 GMT 40.962898 -73.455963 34,975 50 528 0
2020-02-19 03:54:41 GMT 40.956940 -73.465393 34,950 50 527 0
2020-02-19 03:54:35 GMT 40.946594 -73.481689 34,950 50 527 0
2020-02-19 03:54:32 GMT 40.944443 -73.485107 34,950 50 527 0
2020-02-19 03:54:29 GMT 40.937851 -73.495476 34,950 50 527 0
2020-02-19 03:54:26 GMT 40.934734 -73.500404 34,950 50 526 0
2020-02-19 03:54:23 GMT 40.929611 -73.508583 34,950 50 526 0
2020-02-19 03:54:20 GMT 40.923840 -73.517700 34,950 50 526 0
2020-02-19 03:54:17 GMT 40.920532 -73.522881 34,950 50 526 0
2020-02-19 03:54:14 GMT 40.914482 -73.532494 34,950 50 526 -64
2020-02-19 03:54:10 GMT 40.908104 -73.542603 34,950 50 525 0
2020-02-19 03:54:07 GMT 40.903107 -73.550476 34,975 50 525 0
2020-02-19 03:54:04 GMT 40.899818 -73.555649 34,975 50 525 -64
2020-02-19 03:54:01 GMT 40.894226 -73.564453 34,975 50 525 -64
2020-02-19 03:53:58 GMT 40.889694 -73.571594 34,975 50 525 -64
2020-02-19 03:53:55 GMT 40.884876 -73.579247 34,975 50 524 -64
2020-02-19 03:53:49 GMT 40.875240 -73.594475 34,975 50 524 0
2020-02-19 03:53:46 GMT 40.870880 -73.601318 34,975 50 523 0
2020-02-19 03:53:43 GMT 40.867767 -73.606201 34,975 50 523 64
2020-02-19 03:53:40 GMT 40.862484 -73.614517 34,975 49 522 0
2020-02-19 03:53:37 GMT 40.858295 -73.621132 34,975 50 523 64
2020-02-19 03:53:34 GMT 40.851917 -73.631180 34,975 49 523 64
2020-02-19 03:53:31 GMT 40.847355 -73.638237 34,975 50 523 -64
2020-02-19 03:53:27 GMT 40.841301 -73.647789 34,975 50 523 -64
2020-02-19 03:53:24 GMT 40.837143 -73.654358 34,975 50 523 -64
2020-02-19 03:53:18 GMT 40.826889 -73.670471 34,975 49 522 0
2020-02-19 03:53:15 GMT 40.822216 -73.677750 34,975 49 521 0
2020-02-19 03:53:12 GMT 40.819096 -73.682617 34,975 49 521 0
2020-02-19 03:53:09 GMT 40.814758 -73.689453 34,975 49 521 0
2020-02-19 03:53:06 GMT 40.809952 -73.696960 34,975 49 520 0
2020-02-19 03:53:03 GMT 40.804386 -73.705711 34,975 49 520 64
2020-02-19 03:53:00 GMT 40.799267 -73.713707 34,975 49 520 0
2020-02-19 03:52:57 GMT 40.795853 -73.719055 34,975 49 520 0
2020-02-19 03:52:54 GMT 40.785347 -73.735550 34,975 50 520 64
2020-02-19 03:52:48 GMT 40.781662 -73.741333 34,975 49 519 64
2020-02-19 03:52:45 GMT 40.777176 -73.748413 34,950 49 519 64
2020-02-19 03:52:42 GMT 40.771568 -73.757088 34,950 49 520 0
2020-02-19 03:52:39 GMT 40.766647 -73.764832 34,950 49 519 0
2020-02-19 03:52:36 GMT 40.763374 -73.769943 34,950 49 519 -64
2020-02-19 03:52:33 GMT 40.759232 -73.776436 34,950 49 519 0
2020-02-19 03:52:30 GMT 40.748886 -73.792664 34,950 50 518 -64
2020-02-19 03:52:24 GMT 40.744892 -73.798973 34,950 50 518 0
2020-02-19 03:52:21 GMT 40.739494 -73.807404 34,950 50 518 0
2020-02-19 03:52:17 GMT 40.733963 -73.816162 34,950 49 517 0
2020-02-19 03:52:14 GMT 40.727966 -73.825562 34,975 50 518 -64
2020-02-19 03:52:11 GMT 40.723160 -73.833069 34,975 50 518 -64
2020-02-19 03:52:08 GMT 40.720093 -73.837891 34,975 50 518 0
2020-02-19 03:52:05 GMT 40.716728 -73.843170 34,975 49 516 0
2020-02-19 03:52:02 GMT 40.709930 -73.853760 34,975 49 517 0
2020-02-19 03:51:59 GMT 40.705765 -73.860229 34,975 49 516 -64
2020-02-19 03:51:55 GMT 40.699768 -73.869568 34,975 49 516 -64
2020-02-19 03:51:52 GMT 40.695419 -73.876282 34,975 49 515 -64
2020-02-19 03:51:49 GMT 40.690338 -73.884155 34,975 49 515 0
2020-02-19 03:51:46 GMT 40.686657 -73.889923 34,975 49 515 0
2020-02-19 03:51:43 GMT 40.680931 -73.898727 34,975 49 515 0
2020-02-19 03:51:40 GMT 40.675873 -73.906677 34,975 49 515 64
2020-02-19 03:51:37 GMT 40.671066 -73.914062 34,975 49 515 64
2020-02-19 03:51:34 GMT 40.666946 -73.920532 34,975 49 515 64
2020-02-19 03:51:31 GMT 40.661983 -73.928123 34,975 49 515 64
2020-02-19 03:51:28 GMT 40.658295 -73.933899 34,950 49 515 64
2020-02-19 03:51:25 GMT 40.652950 -73.942291 34,950 49 515 64
2020-02-19 03:51:22 GMT 40.648636 -73.948975 34,950 49 515 64
2020-02-19 03:51:19 GMT 40.638474 -73.964783 34,950 49 515 64
2020-02-19 03:51:16 GMT 40.638474 -73.964783 34,950 49 515 64
2020-02-19 03:51:13 GMT 40.630646 -73.976990 34,950 49 515 64
2020-02-19 03:51:10 GMT 40.630646 -73.976990 34,950 49 515 0
2020-02-19 03:51:07 GMT 40.624969 -73.985840 34,950 49 515 0
2020-02-19 03:51:04 GMT 40.621250 -73.991547 34,950 49 515 0
2020-02-19 03:51:00 GMT 40.614315 -74.002342 34,950 49 515 0
2020-02-19 03:50:57 GMT 40.611103 -74.007339 34,950 49 515 0
2020-02-19 03:50:54 GMT 40.605095 -74.016640 34,950 49 515 0
2020-02-19 03:50:51 GMT 40.600800 -74.023376 34,950 49 515 0
2020-02-19 03:50:48 GMT 40.596176 -74.030518 34,950 49 515 0
2020-02-19 03:50:45 GMT 40.591736 -74.037415 34,950 49 514 0
2020-02-19 03:50:42 GMT 40.587082 -74.044609 34,950 49 515 0
2020-02-19 03:50:39 GMT 40.583862 -74.049622 34,950 49 515 0
2020-02-19 03:50:36 GMT 40.578003 -74.058655 34,950 49 514 0
2020-02-19 03:50:33 GMT 40.572929 -74.066513 34,950 49 514 128
2020-02-19 03:50:30 GMT 40.563385 -74.081245 34,950 49 514 128
2020-02-19 03:50:24 GMT 40.553970 -74.095764 34,950 49 514 0
2020-02-19 03:50:21 GMT 40.553970 -74.095764 34,950 49 515 -128
2020-02-19 03:50:18 GMT 40.549484 -74.102661 34,950 49 515 -64
2020-02-19 03:50:15 GMT 40.546692 -74.106995 34,950 49 515 -64
2020-02-19 03:50:12 GMT 40.540527 -74.116516 34,950 49 515 -64
2020-02-19 03:50:09 GMT 40.530052 -74.132683 34,950 49 514 -64
2020-02-19 03:50:05 GMT 40.530052 -74.132683 34,975 49 514 -128
2020-02-19 03:50:01 GMT 40.524490 -74.141235 34,975 49 514 -64
2020-02-19 03:49:58 GMT 40.519859 -74.148354 34,975 49 515 -64
2020-02-19 03:49:55 GMT 40.514786 -74.156219 34,950 49 515 0
2020-02-19 03:49:52 GMT 40.510315 -74.163086 34,950 49 515 64
2020-02-19 03:49:49 GMT 40.505520 -74.170448 34,950 49 515 0
2020-02-19 03:49:46 GMT 40.502609 -74.174988 34,950 49 515 0
2020-02-19 03:49:43 GMT 40.497654 -74.182617 34,950 49 515 0
2020-02-19 03:49:40 GMT 40.492447 -74.190735 34,950 49 515 0
2020-02-19 03:49:37 GMT 40.488602 -74.196655 34,950 49 515 0
2020-02-19 03:49:34 GMT 40.483337 -74.204712 34,950 49 515 64
2020-02-19 03:49:31 GMT 40.476986 -74.214455 34,950 49 515 0
2020-02-19 03:49:28 GMT 40.472031 -74.222107 34,950 49 515 0
2020-02-19 03:49:25 GMT 40.467907 -74.228500 34,950 49 515 0
2020-02-19 03:49:22 GMT 40.460178 -74.240425 34,950 49 515 0
2020-02-19 03:49:19 GMT 40.454128 -74.249725 34,950 49 515 0
2020-02-19 03:49:16 GMT 40.449829 -74.256348 34,975 49 515 0
2020-02-19 03:49:12 GMT 40.449829 -74.256348 34,950 49 515 0
2020-02-19 03:49:09 GMT 40.443279 -74.266327 34,950 49 515 0
2020-02-19 03:49:06 GMT 40.438812 -74.273193 34,975 49 515 64
2020-02-19 03:49:02 GMT 40.432758 -74.282433 34,950 49 515 64
2020-02-19 03:48:59 GMT 40.428268 -74.289307 34,950 49 516 64
2020-02-19 03:48:56 GMT 40.423637 -74.296478 34,950 49 516 0
2020-02-19 03:48:52 GMT 40.417583 -74.305717 34,950 49 516 0
2020-02-19 03:48:49 GMT 40.408272 -74.320015 34,950 49 516 0
2020-02-19 03:48:45 GMT 40.408272 -74.320015 34,950 49 517 0
2020-02-19 03:48:42 GMT 40.401615 -74.330254 34,950 49 517 0
2020-02-19 03:48:39 GMT 40.398056 -74.335693 34,950 49 517 64
2020-02-19 03:48:36 GMT 40.393749 -74.342361 34,950 49 517 0
2020-02-19 03:48:33 GMT 40.387695 -74.351662 34,950 49 517 0
2020-02-19 03:48:30 GMT 40.383835 -74.357651 34,950 49 517 0
2020-02-19 03:48:27 GMT 40.378876 -74.365295 34,950 49 517 0
2020-02-19 03:48:24 GMT 40.375763 -74.370056 34,950 49 517 -64
2020-02-19 03:48:21 GMT 40.369720 -74.379333 34,950 49 517 -64
2020-02-19 03:48:18 GMT 40.365234 -74.386292 34,950 49 518 -64
2020-02-19 03:48:15 GMT 40.361343 -74.392273 34,950 49 518 64
2020-02-19 03:48:12 GMT 40.356079 -74.400391 34,950 49 518 64
2020-02-19 03:48:09 GMT 40.350952 -74.408264 34,950 49 518 0
2020-02-19 03:48:03 GMT 40.335697 -74.431625 34,950 49 519 -64
2020-02-19 03:48:00 GMT 40.335697 -74.431625 34,950 49 519 -64
2020-02-19 03:47:57 GMT 40.331177 -74.438599 34,950 49 519 -64
2020-02-19 03:47:54 GMT 40.328064 -74.443359 34,975 49 519 0
2020-02-19 03:47:51 GMT 40.322758 -74.451477 34,975 49 519 -64
2020-02-19 03:47:47 GMT 40.317310 -74.459839 34,975 49 519 0
2020-02-19 03:47:44 GMT 40.312592 -74.466980 34,975 49 519 64
2020-02-19 03:47:41 GMT 40.306976 -74.475571 34,975 49 519 64
2020-02-19 03:47:38 GMT 40.302612 -74.482300 34,950 49 519 0
2020-02-19 03:47:35 GMT 40.296844 -74.491150 34,950 49 521 0
2020-02-19 03:47:30 GMT 40.290775 -74.500473 34,975 49 521 -64
2020-02-19 03:47:27 GMT 40.284897 -74.509644 34,950 49 521 -64
2020-02-19 03:47:24 GMT 40.282070 -74.513962 34,950 49 521 0
2020-02-19 03:47:21 GMT 40.276020 -74.523384 34,975 49 521 0
2020-02-19 03:47:17 GMT 40.269791 -74.533020 34,975 49 521 0
2020-02-19 03:47:14 GMT 40.266037 -74.538757 34,975 49 522 64
2020-02-19 03:47:10 GMT 40.258049 -74.550972 34,975 49 522 0
2020-02-19 03:47:06 GMT 40.253082 -74.558655 34,950 49 522 0
2020-02-19 03:47:03 GMT 40.247437 -74.567329 34,950 49 522 0
2020-02-19 03:47:00 GMT 40.239029 -74.580322 34,950 49 522 0
2020-02-19 03:46:57 GMT 40.239029 -74.580322 34,950 49 522 0
2020-02-19 03:46:54 GMT 40.233582 -74.588806 34,950 49 522 0
2020-02-19 03:46:50 GMT 40.222687 -74.605713 34,950 49 523 0
2020-02-19 03:46:47 GMT 40.222687 -74.605713 34,950 49 523 64
2020-02-19 03:46:44 GMT 40.218990 -74.611526 34,950 49 523 64
2020-02-19 03:46:41 GMT 40.215363 -74.617065 34,950 49 522 64
2020-02-19 03:46:38 GMT 40.208817 -74.627136 34,950 49 523 64
2020-02-19 03:46:35 GMT 40.205212 -74.632683 34,950 49 523 64
2020-02-19 03:46:31 GMT 40.197144 -74.645325 34,950 50 524 0
2020-02-19 03:46:27 GMT 40.190598 -74.655457 34,950 51 530 0
2020-02-19 03:46:24 GMT 40.187943 -74.659592 34,950 50 524 0
2020-02-19 03:46:21 GMT 40.183426 -74.666641 34,950 50 525 0
2020-02-19 03:46:18 GMT 40.173523 -74.682251 34,950 50 525 64
2020-02-19 03:46:15 GMT 40.169952 -74.687866 34,950 50 525 64
2020-02-19 03:46:12 GMT 40.169952 -74.687866 34,950 50 526 0
2020-02-19 03:46:09 GMT 40.163910 -74.697449 34,950 51 527 -64
2020-02-19 03:46:04 GMT 40.156193 -74.709717 34,950 50 526 0
2020-02-19 03:46:01 GMT 40.153400 -74.714149 34,950 50 527 0
2020-02-19 03:45:58 GMT 40.147396 -74.723763 34,950 50 528 0
2020-02-19 03:45:54 GMT 40.141716 -74.732872 34,950 51 527 -64
2020-02-19 03:45:51 GMT 40.137897 -74.739052 34,950 51 529 -64
2020-02-19 03:45:48 GMT 40.132217 -74.748291 34,950 51 529 -64
2020-02-19 03:45:44 GMT 40.126099 -74.758240 34,950 51 530 0
2020-02-19 03:45:41 GMT 40.120300 -74.767769 34,950 51 531 0
2020-02-19 03:45:37 GMT 40.116348 -74.774353 34,950 52 532 -64
2020-02-19 03:45:34 GMT 40.109207 -74.786255 34,950 52 534 -64
2020-02-19 03:45:28 GMT 40.100609 -74.800789 34,950 52 535 -64
2020-02-19 03:45:24 GMT 40.095200 -74.809998 34,975 52 536 0
2020-02-19 03:45:18 GMT 40.086506 -74.824944 34,975 53 538 -64
2020-02-19 03:45:15 GMT 40.081570 -74.833496 34,975 53 538 -64
2020-02-19 03:45:12 GMT 40.074635 -74.845734 34,975 54 538 -64
2020-02-19 03:45:09 GMT 40.074635 -74.845734 34,975 53 539 -64
2020-02-19 03:45:06 GMT 40.070118 -74.853912 34,975 55 540 0
2020-02-19 03:45:03 GMT 40.065556 -74.862465 34,950 58 541 256
2020-02-19 03:45:00 GMT 40.060715 -74.871948 34,975 56 541 -64
2020-02-19 03:44:57 GMT 40.055733 -74.882126 34,950 58 542 64
2020-02-19 03:44:53 GMT 40.051170 -74.891861 34,975 59 542 128
2020-02-19 03:44:49 GMT 40.044842 -74.905533 34,950 58 541 320
2020-02-19 03:44:45 GMT 40.041138 -74.913269 34,950 56 538 832
2020-02-19 03:44:42 GMT 40.037201 -74.921204 34,850 56 537 768
2020-02-19 03:44:39 GMT 40.028641 -74.937866 34,750 55 536 1088
2020-02-19 03:44:36 GMT 40.028641 -74.937866 34,800 55 535 1216
2020-02-19 03:44:32 GMT 40.023193 -74.947876 34,750 53 534 1536
2020-02-19 03:44:29 GMT 40.019424 -74.954659 34,600 52 533 1728
2020-02-19 03:44:26 GMT 40.013214 -74.965393 34,550 52 533 1792
2020-02-19 03:44:23 GMT 40.004471 -74.979736 34,425 50 531 1728
2020-02-19 03:44:17 GMT 39.999619 -74.987305 34,300 49 530 1408
2020-02-19 03:44:12 GMT 39.992386 -74.998169 34,200 48 528 1344
2020-02-19 03:44:09 GMT 39.981342 -75.013840 34,100 46 526 1472
2020-02-19 03:44:03 GMT 39.975952 -75.021118 33,925 44 523 1536
2020-02-19 03:44:00 GMT 39.970963 -75.027573 33,875 44 523 1536
2020-02-19 03:43:57 GMT 39.965790 -75.034180 33,825 43 521 1536
2020-02-19 03:43:54 GMT 39.962303 -75.038559 33,750 43 521 1536
2020-02-19 03:43:51 GMT 39.956017 -75.046295 33,650 42 520 1536
2020-02-19 03:43:48 GMT 39.951225 -75.051979 33,525 41 518 1536
2020-02-19 03:43:45 GMT 39.945099 -75.059021 33,475 39 514 1792
2020-02-19 03:43:42 GMT 39.939865 -75.064896 33,425 40 516 1792
2020-02-19 03:43:38 GMT 39.931824 -75.073608 33,000 36 512 2048
2020-02-19 03:43:34 GMT 39.925110 -75.080566 33,175 37 512 1920
2020-02-19 03:43:29 GMT 39.913971 -75.091553 32,900 36 511 2240
2020-02-19 03:43:25 GMT 39.908066 -75.097221 32,875 36 512 2304
2020-02-19 03:43:22 GMT 39.904266 -75.100929 32,725 36 513 2432
2020-02-19 03:43:19 GMT 39.898525 -75.106384 32,675 36 513 2432
2020-02-19 03:43:16 GMT 39.891823 -75.112793 32,475 36 514 2304
2020-02-19 03:43:12 GMT 39.873962 -75.129768 32,275 36 515 2368
2020-02-19 03:43:08 GMT 39.873962 -75.129768 31,825 36 518 2432
2020-02-19 03:43:05 GMT 39.868965 -75.134521 32,050 36 516 2496
2020-02-19 03:43:01 GMT 39.862015 -75.141113 31,825 36 517 2496
2020-02-19 03:42:58 GMT 39.847870 -75.154427 31,675 35 518 2432
2020-02-19 03:42:54 GMT 39.847870 -75.154427 30,050 34 529 320
2020-02-19 03:42:51 GMT 39.841221 -75.160583 31,450 35 519 2560
2020-02-19 03:42:48 GMT 39.831257 -75.169861 31,300 35 520 2688
2020-02-19 03:42:45 GMT 39.831257 -75.169861 31,225 35 521 2752
2020-02-19 03:42:39 GMT 39.818115 -75.182068 30,900 35 523 3008
2020-02-19 03:42:35 GMT 39.812592 -75.187134 30,550 35 524 3072
2020-02-19 03:42:32 GMT 39.801277 -75.197510 30,350 35 525 3072
2020-02-19 03:42:26 GMT 39.794666 -75.203491 30,225 35 527 2560
2020-02-19 03:42:23 GMT 39.787872 -75.209656 30,225 34 528 2240
2020-02-19 03:42:19 GMT 39.778885 -75.217834 30,025 34 529 896
2020-02-19 03:42:16 GMT 39.772614 -75.223450 30,000 34 529 576
2020-02-19 03:42:13 GMT 39.766617 -75.228882 29,975 34 529 384
2020-02-19 03:42:10 GMT 39.757149 -75.237427 29,975 34 528 192
2020-02-19 03:42:07 GMT 39.757149 -75.237427 29,975 34 528 64
2020-02-19 03:42:04 GMT 39.742901 -75.250244 29,975 34 528 64
2020-02-19 03:42:01 GMT 39.742901 -75.250244 29,975 34 527 0
2020-02-19 03:41:57 GMT 39.735081 -75.257324 29,975 36 518 2048
2020-02-19 03:41:54 GMT 39.728146 -75.263733 29,975 35 527 0
2020-02-19 03:41:51 GMT 39.718464 -75.272827 29,975 36 526 192
2020-02-19 03:41:48 GMT 39.718464 -75.272827 29,975 35 526 64
2020-02-19 03:41:45 GMT 39.710953 -75.279877 29,950 36 526 192
2020-02-19 03:41:42 GMT 39.707245 -75.283394 29,950 36 525 192
2020-02-19 03:41:39 GMT 39.700195 -75.290085 29,950 36 524 192
2020-02-19 03:41:35 GMT 39.691788 -75.298035 29,925 36 522 320
2020-02-19 03:41:32 GMT 39.687698 -75.301964 29,925 36 522 320
2020-02-19 03:41:29 GMT 39.680466 -75.308769 29,900 36 521 576
2020-02-19 03:41:25 GMT 39.673122 -75.315796 29,825 36 520 1152
2020-02-19 03:41:22 GMT 39.664948 -75.323517 29,700 36 518 1472
2020-02-19 03:41:19 GMT 39.660320 -75.327942 29,600 36 518 2048
2020-02-19 03:41:16 GMT 39.647144 -75.340393 29,450 36 518 2048
2020-02-19 03:41:12 GMT 39.647144 -75.340393 29,425 36 518 2048
2020-02-19 03:41:09 GMT 39.641327 -75.345886 29,350 36 518 2048
2020-02-19 03:41:06 GMT 39.635738 -75.351196 29,150 35 519 2240
2020-02-19 03:41:03 GMT 39.620361 -75.365555 29,025 35 519 2496
2020-02-19 03:40:59 GMT 39.620361 -75.365555 28,925 35 519 2560
2020-02-19 03:40:56 GMT 39.615303 -75.370300 27,125 34 523 2688
2020-02-19 03:40:53 GMT 39.611160 -75.374092 28,675 35 520 2752
2020-02-19 03:40:50 GMT 39.605118 -75.379707 28,575 35 521 2688
2020-02-19 03:40:47 GMT 39.599197 -75.385071 28,450 35 523 2688
2020-02-19 03:40:44 GMT 39.592896 -75.390869 28,175 35 523 2688
2020-02-19 03:40:40 GMT 39.583366 -75.399475 28,075 35 523 2688
2020-02-19 03:40:36 GMT 39.577835 -75.404488 28,025 34 523 2688
2020-02-19 03:40:33 GMT 39.569450 -75.411987 27,850 34 523 2496
2020-02-19 03:40:29 GMT 39.562046 -75.418579 27,650 34 523 1664
2020-02-19 03:40:26 GMT 39.557648 -75.422394 27,525 33 523 1856
2020-02-19 03:40:23 GMT 39.543518 -75.434631 27,425 33 522 1728
2020-02-19 03:40:20 GMT 39.543518 -75.434631 27,375 34 523 1664
2020-02-19 03:40:16 GMT 39.537964 -75.439590 27,275 35 523 1600
2020-02-19 03:40:13 GMT 39.531277 -75.445801 27,200 36 524 1600
2020-02-19 03:40:09 GMT 39.524323 -75.452667 27,000 39 526 1472
2020-02-19 03:40:06 GMT 39.516796 -75.460632 27,000 40 526 1408
2020-02-19 03:40:03 GMT 39.511120 -75.467102 26,950 42 526 1408
2020-02-19 03:40:00 GMT 39.507210 -75.471802 26,900 43 527 1408
2020-02-19 03:39:57 GMT 39.500015 -75.480850 26,825 44 527 1536
2020-02-19 03:39:54 GMT 39.495758 -75.486389 26,700 45 527 1664
2020-02-19 03:39:51 GMT 39.489944 -75.494049 26,575 45 525 1728
2020-02-19 03:39:48 GMT 39.485840 -75.499390 26,150 45 521 1280
2020-02-19 03:39:45 GMT 39.479691 -75.507423 26,475 45 526 1792
2020-02-19 03:39:40 GMT 39.471634 -75.517868 26,125 45 523 1344
2020-02-19 03:39:37 GMT 39.468384 -75.522110 26,250 45 523 1408
2020-02-19 03:39:34 GMT 39.462616 -75.529633 26,200 45 521 1280
2020-02-19 03:39:31 GMT 39.455303 -75.539124 26,150 45 521 1280
2020-02-19 03:39:28 GMT 39.452774 -75.542412 26,000 45 518 1216
2020-02-19 03:39:24 GMT 39.438404 -75.561035 25,925 45 515 1216
2020-02-19 03:39:20 GMT 39.438404 -75.561035 25,825 45 514 1216
2020-02-19 03:39:17 GMT 39.435059 -75.565399 25,825 45 514 1152
2020-02-19 03:39:14 GMT 39.430023 -75.571968 25,750 45 512 1088
2020-02-19 03:39:11 GMT 39.417503 -75.588135 25,650 45 506 1024
2020-02-19 03:39:07 GMT 39.417503 -75.588135 25,000 45 487 384
2020-02-19 03:39:04 GMT 39.411682 -75.595642 25,600 45 506 960
2020-02-19 03:39:01 GMT 39.406082 -75.602898 25,525 44 504 832
2020-02-19 03:38:57 GMT 39.400463 -75.610107 25,475 44 500 768
2020-02-19 03:38:54 GMT 39.395390 -75.616638 25,450 44 498 832
2020-02-19 03:38:51 GMT 39.390656 -75.622780 25,400 44 497 896
2020-02-19 03:38:48 GMT 39.381050 -75.635071 25,300 44 492 1280
2020-02-19 03:38:45 GMT 39.381050 -75.635071 25,225 44 492 1280
2020-02-19 03:38:40 GMT 39.373901 -75.644211 25,175 44 490 1280
2020-02-19 03:38:37 GMT 39.368912 -75.650604 25,175 44 490 1280
2020-02-19 03:38:34 GMT 39.361725 -75.659920 25,075 44 488 576
2020-02-19 03:38:30 GMT 39.355774 -75.667496 25,050 44 488 576
2020-02-19 03:38:26 GMT 39.345577 -75.680664 25,000 44 487 192
2020-02-19 03:38:22 GMT 39.345577 -75.680664 24,975 44 487 192
2020-02-19 03:38:19 GMT 39.339523 -75.688454 24,975 45 485 64
2020-02-19 03:38:16 GMT 39.335339 -75.693787 24,975 45 485 64
2020-02-19 03:38:13 GMT 39.328674 -75.702370 24,975 45 486 64
2020-02-19 03:38:08 GMT 39.322956 -75.709778 24,975 45 485 64
2020-02-19 03:38:05 GMT 39.317871 -75.716339 24,975 45 485 64
2020-02-19 03:38:01 GMT 39.311550 -75.724487 24,975 45 485 -128
2020-02-19 03:37:58 GMT 39.305031 -75.732910 24,975 45 484 0
2020-02-19 03:37:54 GMT 39.298096 -75.741898 24,975 45 484 0
2020-02-19 03:37:51 GMT 39.295536 -75.745178 24,975 45 485 0
2020-02-19 03:37:48 GMT 39.290367 -75.751953 24,975 45 484 0
2020-02-19 03:37:45 GMT 39.285141 -75.758736 24,975 45 484 0
2020-02-19 03:37:42 GMT 39.280289 -75.765121 24,975 45 484 64
2020-02-19 03:37:39 GMT 39.274681 -75.772522 24,975 45 484 -192
2020-02-19 03:37:35 GMT 39.269512 -75.779358 25,000 45 484 -128
2020-02-19 03:37:31 GMT 39.263462 -75.787476 25,000 46 483 0
2020-02-19 03:37:27 GMT 39.256760 -75.796349 25,000 45 483 0
2020-02-19 03:37:23 GMT 39.252090 -75.802498 24,975 44 482 0
2020-02-19 03:37:20 GMT 39.247375 -75.808647 24,975 44 482 0
2020-02-19 03:37:17 GMT 39.242020 -75.815514 24,975 45 482 -64
2020-02-19 03:37:14 GMT 39.237347 -75.821655 24,975 47 483 192
2020-02-19 03:37:11 GMT 39.230896 -75.830505 24,975 68 494 256
2020-02-19 03:37:07 GMT 39.226498 -75.837036 24,975 50 485 -128
2020-02-19 03:37:03 GMT 39.221333 -75.845398 24,975 52 486 128
2020-02-19 03:37:00 GMT 39.217049 -75.852844 24,975 54 487 -256
2020-02-19 03:36:57 GMT 39.212345 -75.861694 25,000 56 487 -256
2020-02-19 03:36:54 GMT 39.209087 -75.868347 25,000 59 489 64
2020-02-19 03:36:51 GMT 39.205673 -75.875877 25,000 59 489 0
2020-02-19 03:36:48 GMT 39.202198 -75.884094 25,000 62 491 64
2020-02-19 03:36:44 GMT 39.197571 -75.896126 24,975 65 492 64
2020-02-19 03:36:40 GMT 39.194183 -75.906036 24,975 67 493 128
2020-02-19 03:36:37 GMT 39.191631 -75.914246 24,975 69 495 256
2020-02-19 03:36:33 GMT 39.188931 -75.923950 24,975 72 496 -128
2020-02-19 03:36:29 GMT 39.186604 -75.933838 24,975 74 497 64
2020-02-19 03:36:26 GMT 39.182831 -75.955475 25,000 79 498 -384
2020-02-19 03:36:22 GMT 39.181549 -75.965683 24,975 81 498 -128
2020-02-19 03:36:19 GMT 39.181549 -75.965683 25,000 81 498 -128
2020-02-19 03:36:16 GMT 39.180954 -75.970993 25,000 81 494 128
2020-02-19 03:36:12 GMT 39.178364 -75.993835 25,000 81 497 -128
2020-02-19 03:36:09 GMT 39.178364 -75.993835 25,000 81 497 -128
2020-02-19 03:36:06 GMT 39.177429 -76.002281 25,000 81 495 64
2020-02-19 03:36:02 GMT 39.176147 -76.013626 25,000 81 495 128
2020-02-19 03:35:59 GMT 39.174866 -76.024971 24,950 81 492 512
2020-02-19 03:35:53 GMT 39.173012 -76.041443 24,925 81 489 960
2020-02-19 03:35:49 GMT 39.172165 -76.048920 24,850 81 488 1024
2020-02-19 03:35:46 GMT 39.170589 -76.062683 24,775 81 485 960
2020-02-19 03:35:42 GMT 39.169563 -76.071594 24,750 81 486 1024
2020-02-19 03:35:38 GMT 39.167999 -76.085281 24,650 81 484 1024
2020-02-19 03:35:35 GMT 39.167038 -76.093521 24,600 81 484 960
2020-02-19 03:35:32 GMT 39.165253 -76.108864 24,550 81 483 960
2020-02-19 03:35:29 GMT 39.165253 -76.108864 24,525 81 483 960
2020-02-19 03:35:25 GMT 39.163971 -76.119972 24,450 81 482 960
2020-02-19 03:35:22 GMT 39.163101 -76.127609 24,375 81 481 1024
2020-02-19 03:35:19 GMT 39.162025 -76.136658 24,350 81 481 1024
2020-02-19 03:35:15 GMT 39.160767 -76.147430 24,300 81 481 1024
2020-02-19 03:35:12 GMT 39.159760 -76.156151 24,200 81 480 960
2020-02-19 03:35:09 GMT 39.158581 -76.166321 23,375 81 480 1024
2020-02-19 03:35:04 GMT 39.157322 -76.177368 24,025 81 480 1024
2020-02-19 03:35:01 GMT 39.155926 -76.189514 24,050 81 480 1024
2020-02-19 03:34:58 GMT 39.155132 -76.196594 24,000 81 479 960
2020-02-19 03:34:55 GMT 39.154018 -76.206482 23,925 81 479 960
2020-02-19 03:34:51 GMT 39.152893 -76.216637 23,875 81 479 960
2020-02-19 03:34:48 GMT 39.152069 -76.224281 23,825 82 479 960
2020-02-19 03:34:45 GMT 39.151291 -76.231323 23,750 82 479 1024
2020-02-19 03:34:42 GMT 39.150375 -76.239799 23,725 81 478 1088
2020-02-19 03:34:39 GMT 39.149452 -76.248230 23,700 81 478 1088
2020-02-19 03:34:35 GMT 39.148010 -76.261230 23,600 81 478 1024
2020-02-19 03:34:31 GMT 39.145542 -76.282532 23,500 81 475 1024
2020-02-19 03:34:28 GMT 39.145542 -76.282532 23,375 81 474 1088
2020-02-19 03:34:25 GMT 39.144882 -76.287865 23,450 81 472 1024
2020-02-19 03:34:22 GMT 39.143635 -76.298462 23,375 81 474 1088
2020-02-19 03:34:19 GMT 39.142517 -76.307617 23,325 81 473 1024
2020-02-19 03:34:15 GMT 39.141541 -76.315674 23,300 81 472 1024
2020-02-19 03:34:11 GMT 39.139957 -76.329529 23,200 81 470 960
2020-02-19 03:34:07 GMT 39.138885 -76.339233 23,125 81 471 960
2020-02-19 03:34:04 GMT 39.137817 -76.348999 23,100 82 472 1024
2020-02-19 03:34:01 GMT 39.137192 -76.354797 23,000 81 474 960
2020-02-19 03:33:58 GMT 39.135956 -76.365967 23,000 81 475 768
2020-02-19 03:33:55 GMT 39.133999 -76.382812 22,975 81 479 0
2020-02-19 03:33:49 GMT 39.133484 -76.387344 22,975 81 479 0
2020-02-19 03:33:46 GMT 39.132324 -76.397522 22,975 82 481 0
2020-02-19 03:33:43 GMT 39.131161 -76.407959 22,975 82 481 0
2020-02-19 03:33:40 GMT 39.130600 -76.413086 22,975 82 482 0
2020-02-19 03:33:37 GMT 39.129547 -76.422752 22,975 82 483 0
2020-02-19 03:33:34 GMT 39.128540 -76.432121 22,975 82 483 0
2020-02-19 03:33:31 GMT 39.127621 -76.440674 22,975 82 485 64
2020-02-19 03:33:28 GMT 39.126781 -76.448730 22,975 82 487 0
2020-02-19 03:33:25 GMT 39.125668 -76.459290 22,975 82 488 0
2020-02-19 03:33:22 GMT 39.125015 -76.465942 22,975 82 489 64
2020-02-19 03:33:19 GMT 39.123013 -76.486206 22,950 83 493 64
2020-02-19 03:33:15 GMT 39.123013 -76.486206 22,950 83 496 128
2020-02-19 03:33:12 GMT 39.122036 -76.497070 22,950 83 497 128
2020-02-19 03:33:07 GMT 39.120777 -76.512939 22,925 84 499 320
2020-02-19 03:33:04 GMT 39.120499 -76.517090 22,900 84 501 576
2020-02-19 03:33:01 GMT 39.119568 -76.530457 22,850 85 500 960
2020-02-19 03:32:58 GMT 39.119194 -76.536682 22,800 85 499 1344
2020-02-19 03:32:55 GMT 39.118637 -76.546997 22,650 86 496 1856
2020-02-19 03:32:52 GMT 39.118172 -76.556152 22,600 86 496 2048
2020-02-19 03:32:48 GMT 39.117645 -76.568558 22,450 87 495 2176
2020-02-19 03:32:45 GMT 39.117428 -76.574707 22,325 87 494 2240
2020-02-19 03:32:42 GMT 39.117142 -76.582649 22,125 88 494 2176
2020-02-19 03:32:38 GMT 39.116821 -76.594360 22,125 88 493 2176
2020-02-19 03:32:35 GMT 39.116592 -76.606117 21,975 88 492 2048
2020-02-19 03:32:32 GMT 39.116169 -76.623657 21,850 88 491 1920
2020-02-19 03:32:29 GMT 39.116169 -76.623657 21,750 88 487 1856
2020-02-19 03:32:26 GMT 39.116077 -76.629761 21,725 88 489 1856
2020-02-19 03:32:23 GMT 39.115814 -76.640800 21,625 88 489 1856
2020-02-19 03:32:15 GMT 39.115238 -76.665100 21,425 87 486 1984
2020-02-19 03:32:12 GMT 39.115036 -76.672867 21,250 88 485 2112
2020-02-19 03:32:06 GMT 39.114578 -76.690125 21,025 87 483 2240
2020-02-19 03:32:03 GMT 39.114353 -76.697571 20,950 87 483 2304
2020-02-19 03:31:59 GMT 39.113983 -76.709900 20,875 87 482 2304
2020-02-19 03:31:56 GMT 39.113655 -76.719910 20,625 87 481 2240
2020-02-19 03:31:53 GMT 39.113434 -76.727318 20,525 87 480 2560
2020-02-19 03:31:50 GMT 39.113297 -76.733055 20,450 87 480 2688
2020-02-19 03:31:44 GMT 39.112770 -76.750427 19,750 87 479 2752
2020-02-19 03:31:41 GMT 39.112564 -76.756996 20,075 87 479 2688
2020-02-19 03:31:38 GMT 39.112259 -76.767822 19,825 87 479 2560
2020-02-19 03:31:35 GMT 39.111935 -76.777466 19,825 87 478 2304
2020-02-19 03:31:32 GMT 39.111740 -76.785118 19,700 87 477 2048
2020-02-19 03:31:29 GMT 39.111420 -76.795898 19,550 87 475 1856
2020-02-19 03:31:25 GMT 39.111145 -76.805481 19,450 87 474 1792
2020-02-19 03:31:22 GMT 39.110630 -76.822021 19,300 87 468 1600
2020-02-19 03:31:16 GMT 39.110458 -76.829002 19,075 88 463 2048
2020-02-19 03:31:13 GMT 39.109978 -76.845886 19,075 88 465 1920
2020-02-19 03:31:10 GMT 39.109978 -76.845886 18,550 88 459 2112
2020-02-19 03:31:06 GMT 39.109634 -76.859100 18,825 88 461 2112
2020-02-19 03:31:03 GMT 39.109421 -76.868408 18,750 88 461 2112
2020-02-19 03:30:59 GMT 39.109177 -76.878563 18,550 88 459 2112
2020-02-19 03:30:53 GMT 39.108902 -76.892418 18,475 88 457 2240
2020-02-19 03:30:50 GMT 39.108627 -76.909492 18,250 88 455 2368
2020-02-19 03:30:47 GMT 39.108627 -76.909492 18,200 89 454 2432
2020-02-19 03:30:44 GMT 39.108536 -76.919434 18,075 89 453 2432
2020-02-19 03:30:40 GMT 39.108486 -76.928284 17,800 90 451 2368
2020-02-19 03:30:36 GMT 39.108486 -76.939819 17,750 90 450 2240
2020-02-19 03:30:33 GMT 39.108719 -76.956604 17,600 91 447 2176
2020-02-19 03:30:30 GMT 39.109001 -76.965332 17,375 92 444 2368
2020-02-19 03:30:23 GMT 39.109371 -76.973022 17,275 94 442 2560
2020-02-19 03:30:19 GMT 39.110256 -76.986328 17,050 96 440 2752
2020-02-19 03:30:15 GMT 39.110870 -76.993622 16,900 96 440 2816
2020-02-19 03:30:12 GMT 39.111877 -77.003708 16,725 98 437 2816
2020-02-19 03:30:06 GMT 39.113888 -77.018860 16,300 102 434 2688
2020-02-19 03:30:02 GMT 39.115128 -77.026695 16,250 102 434 2688
2020-02-19 03:29:59 GMT 39.116962 -77.036987 16,125 104 432 2624
2020-02-19 03:29:56 GMT 39.119843 -77.051361 15,875 104 428 2816
2020-02-19 03:29:52 GMT 39.119843 -77.051361 15,875 104 429 2752
2020-02-19 03:29:49 GMT 39.121902 -77.061508 15,675 104 428 2816
2020-02-19 03:29:43 GMT 39.124924 -77.076553 15,400 104 427 2816
2020-02-19 03:29:40 GMT 39.125900 -77.081421 15,325 104 426 2816
2020-02-19 03:29:37 GMT 39.128082 -77.092262 15,075 104 425 2944
2020-02-19 03:29:34 GMT 39.129364 -77.098824 14,950 104 425 2944
2020-02-19 03:29:31 GMT 39.130188 -77.102768 14,875 104 424 2880
2020-02-19 03:29:28 GMT 39.133255 -77.118164 14,600 104 421 2176
2020-02-19 03:29:21 GMT 39.135208 -77.128113 14,450 104 420 2048
2020-02-19 03:29:17 GMT 39.137165 -77.138062 14,250 104 417 1920
2020-02-19 03:29:14 GMT 39.139114 -77.148148 14,175 103 415 1984
2020-02-19 03:29:10 GMT 39.140564 -77.155762 13,850 103 404 2560
2020-02-19 03:29:06 GMT 39.142319 -77.164803 13,900 103 409 2496
2020-02-19 03:29:02 GMT 39.144470 -77.176147 13,675 103 407 2560
2020-02-19 03:28:59 GMT 39.145683 -77.182495 13,525 103 406 2624
2020-02-19 03:28:56 GMT 39.147079 -77.190002 13,450 103 405 2624
2020-02-19 03:28:51 GMT 39.148911 -77.199615 13,225 103 402 2496
2020-02-19 03:28:45 GMT 39.151566 -77.213524 13,025 103 400 2496
2020-02-19 03:28:42 GMT 39.153168 -77.222061 12,875 103 398 2624
2020-02-19 03:28:39 GMT 39.154449 -77.228928 12,800 103 397 2816
2020-02-19 03:28:35 GMT 39.155777 -77.236038 12,525 103 394 3072
2020-02-19 03:28:30 GMT 39.158298 -77.249756 12,250 103 393 2944
2020-02-19 03:28:25 GMT 39.160263 -77.260216 12,050 103 391 2688
2020-02-19 03:28:19 GMT 39.162598 -77.272873 11,800 103 388 2176
2020-02-19 03:28:15 GMT 39.164444 -77.282715 11,600 104 375 1664
2020-02-19 03:28:12 GMT 39.165939 -77.290726 11,575 103 380 1728
2020-02-19 03:28:09 GMT 39.166866 -77.295532 11,500 103 379 1728
2020-02-19 03:28:06 GMT 39.168503 -77.304283 11,400 104 374 1664
2020-02-19 03:28:03 GMT 39.169144 -77.307510 11,350 104 373 1536
2020-02-19 03:28:00 GMT 39.170822 -77.316101 11,275 104 369 1216
2020-02-19 03:27:57 GMT 39.172256 -77.323212 11,175 104 359 704
2020-02-19 03:27:54 GMT 39.173336 -77.328430 11,175 104 359 704
2020-02-19 03:27:47 GMT 39.177750 -77.348946 11,100 105 347 1024
2020-02-19 03:27:43 GMT 39.177750 -77.348946 11,025 106 342 1152
2020-02-19 03:27:40 GMT 39.179482 -77.357117 10,925 101 334 1152
2020-02-19 03:27:35 GMT 39.181110 -77.367004 10,900 88 325 3456
2020-02-19 03:27:32 GMT 39.181480 -77.369934 10,825 99 330 1408
2020-02-19 03:27:29 GMT 39.182182 -77.378601 10,550 93 325 2752
2020-02-19 03:27:25 GMT 39.182411 -77.384216 9,550 88 325 3456
2020-02-19 03:27:22 GMT 39.182465 -77.389603 10,425 90 325 3328
2020-02-19 03:27:17 GMT 39.181854 -77.404114 9,775 83 326 2944
2020-02-19 03:27:11 GMT 39.181366 -77.410683 9,775 83 326 2944
2020-02-19 03:27:07 GMT 39.178738 -77.430298 9,275 75 324 2240
2020-02-19 03:27:02 GMT 39.178738 -77.430298 9,300 74 324 2048
2020-02-19 03:26:57 GMT 39.176605 -77.438568 9,200 60 318 2048
2020-02-19 03:26:54 GMT 39.175095 -77.443108 9,025 61 319 1920
2020-02-19 03:26:51 GMT 39.173080 -77.447998 9,025 61 319 1920
2020-02-19 03:26:48 GMT 39.170311 -77.453796 8,875 52 311 3328
2020-02-19 03:26:36 GMT 39.157310 -77.491287 6,800 353 266 3008
2020-02-19 03:26:33 GMT 39.153641 -77.490738 6,800 353 266 3008
2020-02-19 03:26:30 GMT 39.149960 -77.490196 6,800 353 266 3008
2020-02-19 03:26:27 GMT 39.146290 -77.489647 6,800 353 266 3008
2020-02-19 03:26:24 GMT 39.138950 -77.488564 6,800 353 266 3008
2020-02-19 03:26:21 GMT 39.138950 -77.488564 6,800 353 266 3008
2020-02-19 03:26:18 GMT 39.135269 -77.488007 6,800 353 266 2528
2020-02-19 03:26:15 GMT 39.131599 -77.487457 6,800 353 266 2528
2020-02-19 03:26:12 GMT 39.127930 -77.486923 6,800 353 266 2528
2020-02-19 03:26:09 GMT 39.124249 -77.486366 6,800 353 266 2528
2020-02-19 03:26:06 GMT 39.120579 -77.485817 6,800 353 266 2528
2020-02-19 03:26:03 GMT 39.113049 -77.484802 6,600 353 272 2528
2020-02-19 03:26:00 GMT 39.113049 -77.484802 6,100 353 262 2528
2020-02-19 03:25:57 GMT 39.109428 -77.484238 6,100 352 257 2528
2020-02-19 03:25:54 GMT 39.105572 -77.483673 6,100 352 257 2528
2020-02-19 03:25:51 GMT 39.101780 -77.483231 6,100 352 257 2528
2020-02-19 03:25:48 GMT 39.098301 -77.482658 5,700 352 253 2528
2020-02-19 03:25:45 GMT 39.094711 -77.482224 5,700 352 250 2528
2020-02-19 03:25:42 GMT 39.091000 -77.481712 5,400 352 245 2528
2020-02-19 03:25:39 GMT 39.087620 -77.481110 5,400 352 245 2528
2020-02-19 03:25:36 GMT 39.084400 -77.480652 5,000 351 251 2528
2020-02-19 03:25:33 GMT 39.081039 -77.479797 5,000 351 251 2528
2020-02-19 03:25:30 GMT 39.077599 -77.479218 5,000 352 250 2528
2020-02-19 03:25:27 GMT 39.074009 -77.478600 4,900 352 240 2528
2020-02-19 03:25:24 GMT 39.070709 -77.478043 4,900 352 240 2528
2020-02-19 03:25:21 GMT 39.066978 -77.477470 4,800 351 219 2528
2020-02-19 03:25:18 GMT 39.064018 -77.476883 4,600 352 222 0
2020-02-19 03:25:15 GMT 39.060959 -77.476341 4,600 352 222 0
2020-02-19 03:25:12 GMT 39.057930 -77.475739 4,200 352 219 0
2020-02-19 03:25:09 GMT 39.051891 -77.474770 4,200 351 212 0
2020-02-19 03:25:06 GMT 39.051891 -77.474770 4,200 351 212 0
2020-02-19 03:25:03 GMT 39.048710 -77.474152 3,800 351 198 0
2020-02-19 03:25:00 GMT 39.045700 -77.473618 3,800 350 192 0
2020-02-19 03:24:57 GMT 39.043060 -77.473091 3,800 350 192 0
2020-02-19 03:24:54 GMT 39.040131 -77.472679 3,600 350 185 0
2020-02-19 03:24:51 GMT 39.034981 -77.471359 3,300 352 184 0
2020-02-19 03:24:48 GMT 39.034981 -77.471359 3,300 352 184 0
2020-02-19 03:24:45 GMT 39.032570 -77.470871 3,300 353 190 0
2020-02-19 03:24:42 GMT 39.029999 -77.470459 3,200 353 194 0
2020-02-19 03:24:39 GMT 39.027271 -77.470062 3,200 353 202 0
2020-02-19 03:24:36 GMT 39.023972 -77.469772 3,000 351 168 0
2020-02-19 03:24:33 GMT 39.021488 -77.469383 3,000 351 168 0
2020-02-19 03:24:30 GMT 39.016800 -77.468597 2,900 350 162 0
2020-02-19 03:24:27 GMT 39.016800 -77.468597 2,900 350 162 0
2020-02-19 03:24:24 GMT 39.012249 -77.467690 2,800 350 161 -96
2020-02-19 03:24:21 GMT 39.012249 -77.467690 2,800 350 161 -96
2020-02-19 03:24:18 GMT 39.010052 -77.467194 2,800 351 161 288
2020-02-19 03:24:15 GMT 39.007851 -77.466743 2,800 351 161 2400
2020-02-19 03:24:12 GMT 39.005661 -77.466278 2,700 351 161 2400
2020-02-19 03:24:09 GMT 39.001080 -77.465431 2,700 351 161 2400
2020-02-19 03:24:06 GMT 39.001080 -77.465431 2,700 350 158 2400
2020-02-19 03:24:03 GMT 38.998970 -77.464989 2,500 350 159 2400
2020-02-19 03:24:00 GMT 38.996910 -77.464531 2,500 351 162 2400
2020-02-19 03:23:57 GMT 38.994530 -77.464012 2,500 351 160 2400
2020-02-19 03:23:54 GMT 38.992310 -77.463676 2,300 351 156 2400
2020-02-19 03:23:51 GMT 38.990231 -77.463257 2,300 351 149 2400
2020-02-19 03:23:48 GMT 38.985958 -77.462471 2,025 352 160 2400
2020-02-19 03:23:45 GMT 38.983730 -77.462067 2,025 351 161 2400
2020-02-19 03:23:42 GMT 38.983730 -77.462067 1,675 351 161 2400
2020-02-19 03:23:39 GMT 38.981522 -77.461639 1,675 352 161 2400
2020-02-19 03:23:36 GMT 38.979309 -77.461243 1,500 352 161 2400
2020-02-19 03:23:33 GMT 38.977089 -77.460869 1,500 353 161 2400
2020-02-19 03:23:30 GMT 38.974880 -77.460510 1,325 353 161 2400
2020-02-19 03:23:27 GMT 38.972649 -77.460167 1,150 351 159 2400
2020-02-19 03:23:24 GMT 38.968208 -77.459503 675 356 164 2400
2020-02-19 03:23:21 GMT 38.968208 -77.459503 775 358 165 2400
2020-02-19 03:23:15 GMT 38.963661 -77.459297 575 359 165 -32
2020-02-19 03:23:12 GMT 38.961361 -77.459343 350 1 167 -32
2020-02-19 03:23:09 GMT 38.959042 -77.459442 225 0 169 -32
2020-02-19 03:23:06 GMT 38.956760 -77.459480 150 1 167 -32
2020-02-19 03:23:03 GMT 38.952278 -77.459641 150 1 153 -32
2020-02-19 03:23:00 GMT 38.950310 -77.459602 175 1 139 0
2020-02-19 03:22:57 GMT 38.950310 -77.459602 175 0 130 0
2020-02-19 03:22:54 GMT 38.948479 -77.459633 175 1 123 0
2020-02-19 03:22:51 GMT 38.946789 -77.459679 0 0 115 0
2020-02-19 03:22:48 GMT 38.945301 -77.459709 0 0 95 0
2020-02-19 03:22:45 GMT 38.943981 -77.459717 0 359 86 0
2020-02-19 03:22:42 GMT 38.942860 -77.459747 0 0 67 0
2020-02-19 03:22:39 GMT 38.941940 -77.459740 0 0 59 0
2020-02-19 03:22:36 GMT 38.941212 -77.459778 0 0 49 0
2020-02-19 03:22:33 GMT 38.940639 -77.459770 0 0 19 0
2020-02-19 03:22:30 GMT 38.940319 -77.459778 0 359 19 0
2020-02-19 03:22:27 GMT 38.940048 -77.459770 0 4 15 0
2020-02-19 03:22:24 GMT 38.939869 -77.459778 0 356 16 0
2020-02-19 03:22:21 GMT 38.939659 -77.459763 0 351 15 0
2020-02-19 03:22:18 GMT 38.939491 -77.459709 0 332 14 0
2020-02-19 03:22:15 GMT 38.939320 -77.459579 0 284 12 0
2020-02-19 03:22:12 GMT 38.939232 -77.459358 0 274 12 0
2020-02-19 03:22:09 GMT 38.939240 -77.459160 0 286 11 0
2020-02-19 03:22:06 GMT 38.939178 -77.458946 0 270 8 0
2020-02-19 03:22:03 GMT 38.939190 -77.458801 0 287 7 0
2020-02-19 03:22:00 GMT 38.939171 -77.458679 0 272 10 0
2020-02-19 03:21:57 GMT 38.939178 -77.458519 0 273 9 0
2020-02-19 03:21:54 GMT 38.939159 -77.458313 0 280 7 0
2020-02-19 03:21:51 GMT 38.939121 -77.458183 0 272 9 0
2020-02-19 03:21:48 GMT 38.939129 -77.458023 0 259 9 0
2020-02-19 03:21:45 GMT 38.939129 -77.457893 0 258 6 0
2020-02-19 03:21:42 GMT 38.939152 -77.457741 0 261 5 0
2020-02-19 03:21:39 GMT 38.939171 -77.457680 0 263 8 0
2020-02-19 03:21:36 GMT 38.939171 -77.457520 0 245 4 0
2020-02-19 03:21:33 GMT 38.939190 -77.457428 0 241 7 0
2020-02-19 03:21:30 GMT 38.939232 -77.457359 0 193 4 0
2020-02-19 03:21:27 GMT 38.939289 -77.457352 0 187 7 0
2020-02-19 03:21:24 GMT 38.939400 -77.457321 0 170 7 0
2020-02-19 03:21:21 GMT 38.939480 -77.457359 0 185 7 0
2020-02-19 03:21:18 GMT 38.939560 -77.457329 0 175 8 0
2020-02-19 03:21:15 GMT 38.939651 -77.457359 0 189 6 0
2020-02-19 03:21:12 GMT 38.939770 -77.457336 0 187 8 0
2020-02-19 03:21:09 GMT 38.939869 -77.457329 0 184 8 0
2020-02-19 03:21:06 GMT 38.940109 -77.457291 0 181 10 0
2020-02-19 03:21:03 GMT 38.940109 -77.457291 0 180 11 0
2020-02-19 03:21:00 GMT 38.940262 -77.457321 0 179 10 0
2020-02-19 03:20:57 GMT 38.940392 -77.457321 0 185 10 0
2020-02-19 03:20:54 GMT 38.940540 -77.457291 0 181 10 0
2020-02-19 03:20:51 GMT 38.940670 -77.457283 0 182 9 0
2020-02-19 03:20:48 GMT 38.940781 -77.457283 0 178 13 0
2020-02-19 03:20:45 GMT 38.940960 -77.457298 0 175 11 0
2020-02-19 03:20:42 GMT 38.941132 -77.457314 0 184 13 0
2020-02-19 03:20:39 GMT 38.941479 -77.457283 0 180 11 0
2020-02-19 03:20:36 GMT 38.941669 -77.457260 0 180 12 0
2020-02-19 03:20:33 GMT 38.941669 -77.457260 0 175 11 0
2020-02-19 03:20:30 GMT 38.941811 -77.457268 0 177 11 0
2020-02-19 03:20:27 GMT 38.941959 -77.457268 0 179 10 0
2020-02-19 03:20:24 GMT 38.942108 -77.457283 0 179 11 0
2020-02-19 03:20:21 GMT 38.942421 -77.457283 0 178 13 0
2020-02-19 03:20:18 GMT 38.942421 -77.457283 0 182 13 0
2020-02-19 03:20:15 GMT 38.942612 -77.457260 0 181 12 0
2020-02-19 03:20:12 GMT 38.942760 -77.457260 0 183 11 0
2020-02-19 03:20:09 GMT 38.942909 -77.457230 0 173 10 0
2020-02-19 03:20:06 GMT 38.943050 -77.457283 0 175 10 0
2020-02-19 03:20:03 GMT 38.943211 -77.457260 0 175 12 0
2020-02-19 03:20:00 GMT 38.943359 -77.457283 0 179 11 0
2020-02-19 03:19:57 GMT 38.943481 -77.457253 0 177 9 0
2020-02-19 03:19:54 GMT 38.943611 -77.457260 0 180 11 0
2020-02-19 03:19:51 GMT 38.943771 -77.457268 0 180 7 0
2020-02-19 03:19:48 GMT 38.943878 -77.457237 0 174 9 0
2020-02-19 03:19:45 GMT 38.944012 -77.457260 0 177 7 0
2020-02-19 03:19:42 GMT 38.944099 -77.457260 0 187 7 0
2020-02-19 03:19:39 GMT 38.944241 -77.457253 0 183 9 0
2020-02-19 03:19:36 GMT 38.944370 -77.457253 0 176 11 0
2020-02-19 03:19:33 GMT 38.944630 -77.457253 0 181 10 0
2020-02-19 03:19:30 GMT 38.944630 -77.457253 0 183 13 0
2020-02-19 03:19:27 GMT 38.944820 -77.457237 0 175 12 0
2020-02-19 03:19:24 GMT 38.944969 -77.457222 0 176 9 0
2020-02-19 03:19:21 GMT 38.945110 -77.457222 0 176 8 0
2020-02-19 03:19:18 GMT 38.945210 -77.457260 0 190 9 0
2020-02-19 03:19:15 GMT 38.945339 -77.457207 0 182 11 0
2020-02-19 03:19:12 GMT 38.945480 -77.457222 0 181 8 0
2020-02-19 03:19:09 GMT 38.945591 -77.457199 0 173 9 0
2020-02-19 03:19:06 GMT 38.945702 -77.457230 0 186 9 0
2020-02-19 03:19:03 GMT 38.945820 -77.457207 0 177 6 0
2020-02-19 03:19:00 GMT 38.945889 -77.457253 0 186 8 0
2020-02-19 03:18:57 GMT 38.945999 -77.457191 0 180 7 0
2020-02-19 03:18:54 GMT 38.946091 -77.457222 0 173 7 0
2020-02-19 03:18:51 GMT 38.946171 -77.457237 0 182 8 0
2020-02-19 03:18:48 GMT 38.946270 -77.457237 0 200 6 0
2020-02-19 03:18:45 GMT 38.946362 -77.457222 0 214 7 0
2020-02-19 03:18:42 GMT 38.946480 -77.457130 0 231 7 0
2020-02-19 03:18:39 GMT 38.946480 -77.457130 0 238 7 0
2020-02-19 03:18:36 GMT 38.946560 -77.457024 0 252 6 0
2020-02-19 03:18:30 GMT 38.946602 -77.456802 0 272 7 0
2020-02-19 03:18:27 GMT 38.946609 -77.456680 0 271 7 0
2020-02-19 03:18:24 GMT 38.946590 -77.456589 0 261 11 0
2020-02-19 03:18:21 GMT 38.946602 -77.456398 0 261 8 0
2020-02-19 03:18:18 GMT 38.946629 -77.456284 0 263 9 0
2020-02-19 03:18:15 GMT 38.946640 -77.456139 0 261 7 0
2020-02-19 03:18:12 GMT 38.946651 -77.456001 0 249 7 0
2020-02-19 03:18:09 GMT 38.946690 -77.455757 0 262 8 0
2020-02-19 03:18:06 GMT 38.946690 -77.455757 0 265 6 0
2020-02-19 03:18:03 GMT 38.946701 -77.455627 0 279 6 0
2020-02-19 03:18:00 GMT 38.946690 -77.455498 0 268 6 0
2020-02-19 03:17:57 GMT 38.946690 -77.455399 0 272 6 0
2020-02-19 03:17:54 GMT 38.946690 -77.455292 0 267 6 0
2020-02-19 03:17:51 GMT 38.946690 -77.455170 0 266 5 0
2020-02-19 03:17:48 GMT 38.946671 -77.455078 0 266 4 0
2020-02-19 03:17:45 GMT 38.946720 -77.455002 0 285 5 0
2020-02-19 03:17:42 GMT 38.946678 -77.454933 0 281 3 0
2020-02-19 03:17:39 GMT 38.946671 -77.454872 0 279 1 0
2020-02-19 03:17:36 GMT 38.946629 -77.454887 0 279 3 0
2020-02-19 03:17:33 GMT 38.946671 -77.454788 0 280 2 0
2020-02-19 03:17:30 GMT 38.946678 -77.454742 0 280 1 0
2020-02-19 03:17:27 GMT 38.946671 -77.454582 0 280 0 0
2020-02-19 03:17:24 GMT 38.946659 -77.454651 0 277 1 0
2020-02-19 03:17:21 GMT 38.946671 -77.454727 0 277 0 0
2020-02-19 03:17:18 GMT 38.946671 -77.454742 0 277 0 0
2020-02-19 03:17:15 GMT 38.946659 -77.454742 0 278 2
2020-02-19 03:17:12 GMT 38.946678 -77.454697 0 284 0
2020-02-19 03:17:07 GMT 38.946690 -77.454681 0 284 1
2020-02-19 03:17:04 GMT 38.946678 -77.454712 0 276 0
2020-02-19 03:17:01 GMT 38.946671 -77.454712 0 275 1
2020-02-19 03:16:58 GMT 38.946659 -77.454727 0 273 1
2020-02-19 03:16:55 GMT 38.946659 -77.454727 0 272 2
2020-02-19 03:16:52 GMT 38.946671 -77.454727 0 272 2
2020-02-19 03:16:49 GMT 38.946671 -77.454697 0 261 5
2020-02-19 03:16:46 GMT 38.946678 -77.454613 0 267 3
2020-02-19 03:16:43 GMT 38.946671 -77.454559 0 265 3
2020-02-19 03:16:40 GMT 38.946640 -77.454552 0 260 6
2020-02-19 03:16:37 GMT 38.946678 -77.454453 0 265 6
2020-02-19 03:16:34 GMT 38.946690 -77.454201 0 264 4
2020-02-19 03:16:31 GMT 38.946690 -77.454201 0 273 5
2020-02-19 03:16:28 GMT 38.946659 -77.454132 0 265 7
2020-02-19 03:16:25 GMT 38.946709 -77.454010 0 279 6
2020-02-19 03:16:22 GMT 38.946671 -77.453911 0 274 5
2020-02-19 03:16:19 GMT 38.946659 -77.453690 0 280 6
2020-02-19 03:16:16 GMT 38.946671 -77.453598 0 289 1

Making use of Plane Finder data

You are free to use the raw flight data, aircraft information and images provided in this report for your own purposes provided the data is correctly attributed to Plane Finder. We ask that you please credit Plane Finder and link to planefinder.net in close proximity to the content.

Optionally one of the following logos (no smaller then 150x24px) can be used and must link to planefinder.net

Embedding the Plane Finder map

You are welcome to embed the Plane Finder playback map on your website to offer visitors a more interactive experience. We suggest using the following HTML code:

<iframe src="//planefinder.net/data/report/UA924-N671UA-7700-squawk-2020-02-19/map" width="800" height="600" seamless="seamless"></iframe>

Where our data comes from

Plane Finder has a global network of data feeds and antenna radars that receive data broadcast directly from aircraft. The primary technologies used are ADS-B and MLAT. We also show feeds from the FAA and a FLARM glider feed.

Click here to find out more about the Plane Finder network.

How we collect our data